Darstellungsparameter: Aktuell verwendete Einstellungen:
Skalierung der Graphiken ... ?
xyx+y,   Skalierungsfaktor:      Skalierung: Modus: x, Faktor: 1
Darstellungszeitraum ... ?
Vom - - bis: - -   Zeitraum: 13.02.2010 - 12.05.2010
Min/Max/Avg-Anzeige ... ?
Zeige MMA aktuell
Zeige MMA Monat
Zeige MMA alles
Zeige --A aktuell
Zeige --A Monat
Zeige --A alles
Keine MMA-Anzeige
MMA:
Keine MMA-Graphiken
MMA-Basis: 13.02.2010 - 12.05.2010
Quicknavigation für Darstellung... ?
Tage:      1T, 2T, 3T, 5T -1T -2T -3T -5T +1T +2T +3T +5T
Wochen: 1W, 2W, 3W -1W -2W -3W +1W +2W +3W
Monate: 1M, 3M, 6M -1M -3M -6M +1M +3M +6M
Jahre:    1J, 3J, 5J, 10J -1J -3J -5J -10J +1J +3J +5J +10J
Nutze für die Darstellung ... ?
Originaldaten oder Mittelwerte auf ...
Stundenbasis Tagesbasis Wochenbasis
Monatsbasis Jahresbasis      Datenbasis: Original-Daten
Darstellen als:
Statistik (Auto) Statistik J:M      Darstellung:
Zur Graphik,    zurück zur Übersicht aller Sensoren.
 
Tabellarische Datenbersicht: ?
 
Sensor: Nr:Datum:Temp:Abs-Feuchte:Windchill:Wind:
Aussen-T/F 1 13-02-2010 00:01:25 -3.2 C 2.71 g/m*3 -3.2 C 0 km/h
2 13-02-2010 00:26:25 -3.4 C 2.75 g/m*3 -3.4 C 0 km/h
3 13-02-2010 00:51:25 -3.7 C 2.73 g/m*3 -3.7 C 0 km/h
4 13-02-2010 01:16:25 -3.9 C 2.76 g/m*3 -3.9 C 0 km/h
5 13-02-2010 01:41:25 -4 C 2.78 g/m*3 -4 C 0 km/h
6 13-02-2010 02:06:25 -3.9 C 2.8 g/m*3 -3.9 C 0 km/h
7 13-02-2010 02:31:25 -4 C 2.74 g/m*3 -4 C 0 km/h
8 13-02-2010 02:56:25 -4.1 C 2.69 g/m*3 -4.1 C 0 km/h
9 13-02-2010 03:21:25 -4.2 C 2.7 g/m*3 -4.2 C 0 km/h
10 13-02-2010 03:46:25 -4.2 C 2.74 g/m*3 -4.2 C 0 km/h
11 13-02-2010 04:11:25 -4.2 C 2.74 g/m*3 -4.2 C 0 km/h
12 13-02-2010 04:36:25 -4.1 C 2.8 g/m*3 -4.1 C 0 km/h
13 13-02-2010 05:01:25 -4.1 C 2.8 g/m*3 -4.1 C 0 km/h
14 13-02-2010 05:26:25 -4 C 2.82 g/m*3 -4 C 0 km/h
15 13-02-2010 05:51:25 -3.8 C 2.86 g/m*3 -3.8 C 0 km/h
16 13-02-2010 06:16:26 -3.9 C 2.84 g/m*3 -3.9 C 0 km/h
17 13-02-2010 06:41:26 -3.8 C 2.86 g/m*3 -3.8 C 0 km/h
18 13-02-2010 07:06:26 -3.7 C 2.84 g/m*3 -3.7 C 0 km/h
19 13-02-2010 07:31:26 -3.8 C 2.78 g/m*3 -3.8 C 0 km/h
20 13-02-2010 07:56:26 -3.8 C 2.82 g/m*3 -3.8 C 0 km/h
21 13-02-2010 08:21:26 -3.6 C 2.86 g/m*3 -3.6 C 0 km/h
22 13-02-2010 08:46:26 -3.2 C 2.9 g/m*3 -3.2 C 0 km/h
23 13-02-2010 09:11:26 -2.9 C 2.89 g/m*3 -2.9 C 0 km/h
24 13-02-2010 09:36:26 -2.6 C 2.91 g/m*3 -2.6 C 0 km/h
25 13-02-2010 10:01:26 -2.7 C 2.73 g/m*3 -2.7 C 0 km/h
Sensor: Nr:Datum:Temp:Abs-Feuchte:Windchill:Wind:
Aussen-T/F 26 13-02-2010 10:26:26 -2.4 C 2.7 g/m*3 -2.4 C 0 km/h
27 13-02-2010 10:51:26 -2.3 C 2.64 g/m*3 -2.3 C 0 km/h
28 13-02-2010 11:16:26 -1.9 C 2.76 g/m*3 -1.9 C 0 km/h
29 13-02-2010 11:41:26 -1.5 C 2.66 g/m*3 -1.5 C 0 km/h
30 13-02-2010 12:06:26 -1.3 C 2.7 g/m*3 -1.3 C 0 km/h
31 13-02-2010 12:31:26 -0.5 C 2.86 g/m*3 -0.5 C 0 km/h
32 13-02-2010 12:56:26 -1.2 C 2.67 g/m*3 -1.2 C 0 km/h
33 13-02-2010 13:21:26 -1.4 C 2.73 g/m*3 -1.4 C 0 km/h
34 13-02-2010 13:46:26 -1 C 2.76 g/m*3 -1 C 0 km/h
35 13-02-2010 14:11:26 -1.1 C 2.51 g/m*3 -1.1 C 0 km/h
36 13-02-2010 14:36:26 0 C 2.76 g/m*3 0 C 0 km/h
37 13-02-2010 15:01:27 -0.3 C 2.56 g/m*3 -0.3 C 0 km/h
38 13-02-2010 15:26:27 -0.5 C 2.57 g/m*3 -0.5 C 0 km/h
39 13-02-2010 15:51:27 -0.7 C 2.54 g/m*3 -0.7 C 0 km/h
40 13-02-2010 16:16:27 -0.9 C 2.55 g/m*3 -0.9 C 0 km/h
41 13-02-2010 16:41:27 -1 C 2.58 g/m*3 -1 C 0 km/h
42 13-02-2010 17:06:27 -1.4 C 2.68 g/m*3 -1.4 C 0 km/h
43 13-02-2010 17:31:27 -1.9 C 2.8 g/m*3 -1.9 C 0 km/h
44 13-02-2010 17:56:27 -2 C 2.91 g/m*3 -2 C 0 km/h
45 13-02-2010 18:21:27 -2 C 2.95 g/m*3 -2 C 0 km/h
46 13-02-2010 18:46:27 -2.1 C 2.97 g/m*3 -2.1 C 0 km/h
47 13-02-2010 19:11:27 -2.2 C 2.99 g/m*3 -2.2 C 0 km/h
48 13-02-2010 19:36:27 -2.1 C 3.01 g/m*3 -2.1 C 0 km/h
49 13-02-2010 20:01:27 -2.2 C 2.99 g/m*3 -2.2 C 0 km/h
50 13-02-2010 20:26:27 -2.3 C 3.01 g/m*3 -2.3 C 0 km/h
Sensor: Nr:Datum:Temp:Abs-Feuchte:Windchill:Wind:
Aussen-T/F 51 13-02-2010 20:51:27 -2.4 C 2.99 g/m*3 -2.4 C 0 km/h
52 13-02-2010 21:16:27 -2.4 C 2.99 g/m*3 -2.4 C 0 km/h
53 13-02-2010 21:41:27 -2.4 C 2.99 g/m*3 -2.4 C 0 km/h
54 13-02-2010 22:06:27 -2.5 C 2.97 g/m*3 -2.5 C 0 km/h
55 13-02-2010 22:31:27 -2.6 C 2.99 g/m*3 -2.6 C 0 km/h
56 13-02-2010 22:56:27 -2.5 C 3.05 g/m*3 -2.5 C 0 km/h
57 13-02-2010 23:21:28 -2.7 C 3.05 g/m*3 -2.7 C 0 km/h
58 13-02-2010 23:46:28 -2.8 C 3.03 g/m*3 -2.8 C 0 km/h
59 14-02-2010 00:11:28 -2.9 C 3.01 g/m*3 -2.9 C 0 km/h
60 14-02-2010 00:36:28 -3.1 C 3 g/m*3 -3.1 C 0 km/h
61 14-02-2010 01:01:28 -3.2 C 2.98 g/m*3 -3.2 C 0 km/h
62 14-02-2010 01:26:28 -3.3 C 2.96 g/m*3 -3.3 C 0 km/h
63 14-02-2010 01:51:28 -3.4 C 2.94 g/m*3 -3.4 C 0 km/h
64 14-02-2010 02:16:28 -3.4 C 2.98 g/m*3 -3.4 C 0 km/h
65 14-02-2010 02:41:28 -3.4 C 2.98 g/m*3 -3.4 C 0 km/h
66 14-02-2010 03:06:28 -3.4 C 3.02 g/m*3 -3.4 C 0 km/h
67 14-02-2010 03:31:28 -3.4 C 3.02 g/m*3 -3.4 C 0 km/h
68 14-02-2010 03:56:28 -3.6 C 2.97 g/m*3 -3.6 C 0 km/h
69 14-02-2010 04:21:28 -3.5 C 2.99 g/m*3 -3.5 C 0 km/h
70 14-02-2010 04:46:28 -3.6 C 2.97 g/m*3 -3.6 C 0 km/h
71 14-02-2010 05:11:28 -3.7 C 2.95 g/m*3 -3.7 C 0 km/h
72 14-02-2010 05:36:28 -3.6 C 3.01 g/m*3 -3.6 C 0 km/h
73 14-02-2010 06:01:28 -3.7 C 2.99 g/m*3 -3.7 C 0 km/h
74 14-02-2010 06:26:28 -3.7 C 2.99 g/m*3 -3.7 C 0 km/h
75 14-02-2010 06:51:28 -3.7 C 2.99 g/m*3 -3.7 C 0 km/h
Sensor: Nr:Datum:Temp:Abs-Feuchte:Windchill:Wind:
Aussen-T/F 76 14-02-2010 07:16:28 -3.4 C 3.05 g/m*3 -3.4 C 0 km/h
77 14-02-2010 07:41:28 -3.6 C 3.01 g/m*3 -3.6 C 0 km/h
78 14-02-2010 08:06:29 -3.5 C 3.03 g/m*3 -3.5 C 0 km/h
79 14-02-2010 08:31:29 -3.5 C 3.03 g/m*3 -3.5 C 0 km/h
80 14-02-2010 08:56:29 -3.3 C 3.08 g/m*3 -3.3 C 0 km/h
81 14-02-2010 09:21:29 -3.2 C 3.1 g/m*3 -3.2 C 0 km/h
82 14-02-2010 09:46:29 -3.1 C 3.12 g/m*3 -3.1 C 0 km/h
83 14-02-2010 10:11:29 -2.8 C 3.19 g/m*3 -2.8 C 0 km/h
84 14-02-2010 10:36:29 -2.4 C 3.24 g/m*3 -2.4 C 0 km/h
85 14-02-2010 11:01:29 -2.1 C 3.22 g/m*3 -2.1 C 0 km/h
86 14-02-2010 11:26:29 -1.9 C 3.23 g/m*3 -1.9 C 0 km/h
87 14-02-2010 11:51:29 -1.5 C 3.23 g/m*3 -1.5 C 0 km/h
88 14-02-2010 12:16:29 -1.1 C 3.19 g/m*3 -1.1 C 0 km/h
89 14-02-2010 12:41:29 -0.6 C 3.07 g/m*3 -0.6 C 0 km/h
90 14-02-2010 13:06:29 0.2 C 3.14 g/m*3 0.2 C 0 km/h
91 14-02-2010 13:31:29 0.6 C 3.03 g/m*3 0.6 C 0 km/h
92 14-02-2010 13:56:29 1 C 3.01 g/m*3 1 C 0 km/h
93 14-02-2010 14:21:29 1.4 C 3.09 g/m*3 1.4 C 0 km/h
94 14-02-2010 14:46:29 1.4 C 3.04 g/m*3 1.4 C 0 km/h
95 14-02-2010 15:11:29 0.8 C 2.92 g/m*3 0.8 C 0 km/h
96 14-02-2010 15:36:29 0.7 C 3 g/m*3 0.7 C 0 km/h
97 14-02-2010 16:01:29 0.1 C 2.98 g/m*3 0.1 C 0 km/h
98 14-02-2010 16:26:30 -0.3 C 2.99 g/m*3 -0.3 C 0 km/h
99 14-02-2010 16:51:30 -0.5 C 3.09 g/m*3 -0.5 C 0 km/h
100 14-02-2010 17:16:30 -0.7 C 3.14 g/m*3 -0.7 C 0 km/h
Sensor: Nr:Datum:Temp:Abs-Feuchte:Windchill:Wind:
Aussen-T/F 101 14-02-2010 17:41:30 -0.9 C 3.19 g/m*3 -0.9 C 0 km/h
102 14-02-2010 18:06:30 -1.1 C 3.23 g/m*3 -1.1 C 0 km/h
103 14-02-2010 18:31:30 -1.3 C 3.23 g/m*3 -1.3 C 0 km/h
104 14-02-2010 18:56:30 -1.5 C 3.27 g/m*3 -1.5 C 0 km/h
105 14-02-2010 19:21:30 -1.7 C 3.27 g/m*3 -1.7 C 0 km/h
106 14-02-2010 19:46:30 -1.8 C 3.29 g/m*3 -1.8 C 0 km/h
107 14-02-2010 20:11:30 -1.7 C 3.36 g/m*3 -1.7 C 0 km/h
108 14-02-2010 20:36:30 -1.9 C 3.31 g/m*3 -1.9 C 0 km/h
109 14-02-2010 21:01:30 -2.2 C 3.24 g/m*3 -2.2 C 0 km/h
110 14-02-2010 21:26:30 -2.4 C 3.16 g/m*3 -2.4 C 0 km/h
111 14-02-2010 21:51:30 -2.6 C 3.11 g/m*3 -2.6 C 0 km/h
112 14-02-2010 22:16:30 -2.9 C 3.01 g/m*3 -2.9 C 0 km/h
113 14-02-2010 22:41:30 -3 C 3.02 g/m*3 -3 C 0 km/h
114 14-02-2010 23:06:30 -3 C 2.99 g/m*3 -3 C 0 km/h
115 14-02-2010 23:31:30 -3 C 2.99 g/m*3 -3 C 0 km/h
116 14-02-2010 23:56:30 -3 C 2.99 g/m*3 -3 C 0 km/h
117 15-02-2010 00:21:30 -3 C 2.99 g/m*3 -3 C 0 km/h
118 15-02-2010 00:46:30 -3 C 2.99 g/m*3 -3 C 0 km/h
119 15-02-2010 01:11:31 -3 C 2.99 g/m*3 -3 C 0 km/h
120 15-02-2010 01:36:31 -2.9 C 2.97 g/m*3 -2.9 C 0 km/h
121 15-02-2010 02:01:31 -2.8 C 2.99 g/m*3 -2.8 C 0 km/h
122 15-02-2010 02:26:31 -2.7 C 3.01 g/m*3 -2.7 C 0 km/h
123 15-02-2010 02:51:31 -2.6 C 3.03 g/m*3 -2.6 C 0 km/h
124 15-02-2010 03:16:31 -2.6 C 2.99 g/m*3 -2.6 C 0 km/h
125 15-02-2010 03:41:31 -2.6 C 2.99 g/m*3 -2.6 C 0 km/h
Sensor: Nr:Datum:Temp:Abs-Feuchte:Windchill:Wind:
Aussen-T/F 126 15-02-2010 04:06:31 -2.6 C 2.99 g/m*3 -2.6 C 0 km/h
127 15-02-2010 04:31:31 -2.6 C 3.03 g/m*3 -2.6 C 0 km/h
128 15-02-2010 04:56:31 -2.6 C 3.03 g/m*3 -2.6 C 0 km/h
129 15-02-2010 05:21:31 -2.6 C 3.07 g/m*3 -2.6 C 0 km/h
130 15-02-2010 05:46:31 -2.6 C 3.11 g/m*3 -2.6 C 0 km/h
131 15-02-2010 06:11:31 -2.7 C 3.05 g/m*3 -2.7 C 0 km/h
132 15-02-2010 06:36:31 -2.8 C 3.03 g/m*3 -2.8 C 0 km/h
133 15-02-2010 07:01:31 -2.9 C 3.01 g/m*3 -2.9 C 0 km/h
134 15-02-2010 07:26:31 -3.2 C 2.9 g/m*3 -3.2 C 0 km/h
135 15-02-2010 07:51:31 -3.1 C 2.96 g/m*3 -3.1 C 0 km/h
136 15-02-2010 08:16:31 -3.1 C 2.96 g/m*3 -3.1 C 0 km/h
137 15-02-2010 08:41:31 -3 C 2.91 g/m*3 -3 C 0 km/h
138 15-02-2010 09:06:31 -2.7 C 2.93 g/m*3 -2.7 C 0 km/h
139 15-02-2010 09:31:31 -2.3 C 2.97 g/m*3 -2.3 C 0 km/h
140 15-02-2010 09:56:32 -1.8 C 3.04 g/m*3 -1.8 C 0 km/h
141 15-02-2010 10:21:32 -1.4 C 3.03 g/m*3 -1.4 C 0 km/h
142 15-02-2010 10:46:32 -0.2 C 3.11 g/m*3 -0.2 C 0 km/h
143 15-02-2010 11:11:32 -0.3 C 3.04 g/m*3 -0.3 C 0 km/h
144 15-02-2010 11:36:32 -0.2 C 3.11 g/m*3 -0.2 C 0 km/h
145 15-02-2010 12:01:32 0.3 C 3.07 g/m*3 0.3 C 0 km/h
146 15-02-2010 12:26:32 0.9 C 3.2 g/m*3 0.9 C 0 km/h
147 15-02-2010 12:51:32 1.2 C 3.21 g/m*3 1.2 C 0 km/h
148 15-02-2010 13:16:32 1.6 C 3.24 g/m*3 1.6 C 0 km/h
149 15-02-2010 13:41:32 1.8 C 3.29 g/m*3 1.8 C 0 km/h
150 15-02-2010 14:06:32 2.2 C 3.21 g/m*3 2.2 C 0 km/h
Sensor: Nr:Datum:Temp:Abs-Feuchte:Windchill:Wind:
Aussen-T/F 151 15-02-2010 14:31:32 1.4 C 3.2 g/m*3 1.4 C 0 km/h
152 15-02-2010 14:56:32 1.6 C 3.41 g/m*3 1.6 C 0 km/h
153 15-02-2010 15:21:32 1.8 C 3.45 g/m*3 1.8 C 0 km/h
154 15-02-2010 15:46:32 1.8 C 3.4 g/m*3 1.8 C 0 km/h
155 15-02-2010 16:11:32 1.5 C 3.38 g/m*3 1.5 C 0 km/h
156 15-02-2010 16:36:32 1.3 C 3.44 g/m*3 1.3 C 0 km/h
157 15-02-2010 17:01:32 0.7 C 3.46 g/m*3 0.7 C 0 km/h
158 15-02-2010 17:26:32 0.3 C 3.46 g/m*3 0.3 C 0 km/h
159 15-02-2010 17:51:32 -0.2 C 3.39 g/m*3 -0.2 C 0 km/h
160 15-02-2010 18:16:33 -0.4 C 3.44 g/m*3 -0.4 C 0 km/h
161 15-02-2010 18:41:33 -0.6 C 3.44 g/m*3 -0.6 C 0 km/h
162 15-02-2010 19:06:33 -0.9 C 3.46 g/m*3 -0.9 C 0 km/h
163 15-02-2010 19:31:33 -1 C 3.44 g/m*3 -1 C 0 km/h
164 15-02-2010 19:56:33 -1 C 3.48 g/m*3 -1 C 0 km/h
165 15-02-2010 20:21:33 -1.2 C 3.43 g/m*3 -1.2 C 0 km/h
166 15-02-2010 20:46:33 -1.3 C 3.41 g/m*3 -1.3 C 0 km/h
167 15-02-2010 21:11:33 -1.2 C 3.43 g/m*3 -1.2 C 0 km/h
168 15-02-2010 21:36:33 -1.2 C 3.48 g/m*3 -1.2 C 0 km/h
169 15-02-2010 22:01:33 -1 C 3.57 g/m*3 -1 C 0 km/h
170 15-02-2010 22:26:33 -1 C 3.53 g/m*3 -1 C 0 km/h
171 15-02-2010 22:51:33 -1.2 C 3.48 g/m*3 -1.2 C 0 km/h
172 15-02-2010 23:16:33 -1.2 C 3.48 g/m*3 -1.2 C 0 km/h
173 15-02-2010 23:41:33 -1.3 C 3.45 g/m*3 -1.3 C 0 km/h
174 16-02-2010 00:06:33 -1.4 C 3.43 g/m*3 -1.4 C 0 km/h
175 16-02-2010 00:31:33 -2.1 C 3.22 g/m*3 -2.1 C 0 km/h
Sensor: Nr:Datum:Temp:Abs-Feuchte:Windchill:Wind:
Aussen-T/F 176 16-02-2010 00:56:33 -2.7 C 3.13 g/m*3 -2.7 C 0 km/h
177 16-02-2010 01:21:33 -2.9 C 3.13 g/m*3 -2.9 C 0 km/h
178 16-02-2010 01:46:33 -2.9 C 3.16 g/m*3 -2.9 C 0 km/h
179 16-02-2010 02:11:33 -2.9 C 3.16 g/m*3 -2.9 C 0 km/h
180 16-02-2010 02:36:33 -3.2 C 3.1 g/m*3 -3.2 C 0 km/h
181 16-02-2010 03:01:34 -3.3 C 3.08 g/m*3 -3.3 C 0 km/h
182 16-02-2010 03:26:34 -3.4 C 3.09 g/m*3 -3.4 C 0 km/h
183 16-02-2010 03:51:34 -3.1 C 3.16 g/m*3 -3.1 C 0 km/h
184 16-02-2010 04:16:34 -2.9 C 3.2 g/m*3 -2.9 C 0 km/h
185 16-02-2010 04:41:34 -2.7 C 3.29 g/m*3 -2.7 C 0 km/h
186 16-02-2010 05:06:34 -2.7 C 3.25 g/m*3 -2.7 C 0 km/h
187 16-02-2010 05:31:34 -2.7 C 3.25 g/m*3 -2.7 C 0 km/h
188 16-02-2010 05:56:34 -2.6 C 3.27 g/m*3 -2.6 C 0 km/h
189 16-02-2010 06:21:34 -2.3 C 3.34 g/m*3 -2.3 C 0 km/h
190 16-02-2010 06:46:34 -2.3 C 3.3 g/m*3 -2.3 C 0 km/h
191 16-02-2010 07:11:34 -2.5 C 3.26 g/m*3 -2.5 C 0 km/h
192 16-02-2010 07:36:34 -2.8 C 3.19 g/m*3 -2.8 C 0 km/h
193 16-02-2010 08:01:34 -2.8 C 3.19 g/m*3 -2.8 C 0 km/h
194 16-02-2010 08:26:34 -2.5 C 3.3 g/m*3 -2.5 C 0 km/h
195 16-02-2010 08:51:34 -1.9 C 3.4 g/m*3 -1.9 C 0 km/h
196 16-02-2010 09:16:34 -1.4 C 3.47 g/m*3 -1.4 C 0 km/h
197 16-02-2010 09:41:34 -0.7 C 3.51 g/m*3 -0.7 C 0 km/h
198 16-02-2010 10:06:34 -0.6 C 3.35 g/m*3 -0.6 C 0 km/h
199 16-02-2010 10:31:34 0.1 C 3.42 g/m*3 0.1 C 0 km/h
200 16-02-2010 10:56:34 -0.1 C 3.27 g/m*3 -0.1 C 0 km/h
Sensor: Nr:Datum:Temp:Abs-Feuchte:Windchill:Wind:
Aussen-T/F 201 16-02-2010 11:21:34 0.3 C 3.31 g/m*3 0.3 C 0 km/h
202 16-02-2010 11:46:35 0.4 C 3.19 g/m*3 0.4 C 0 km/h
203 16-02-2010 12:11:35 1.2 C 3.31 g/m*3 1.2 C 0 km/h
204 16-02-2010 12:36:35 2.4 C 2.91 g/m*3 2.4 C 0 km/h
205 16-02-2010 13:01:35 2.8 C 2.76 g/m*3 2.8 C 0 km/h
206 16-02-2010 13:26:35 2.9 C 2.6 g/m*3 2.9 C 0 km/h
207 16-02-2010 13:51:35 2.8 C 2.7 g/m*3 2.8 C 0 km/h
208 16-02-2010 14:16:35 3.5 C 2.64 g/m*3 3.5 C 0 km/h
209 16-02-2010 14:41:35 3.4 C 2.57 g/m*3 3.4 C 0 km/h
210 16-02-2010 15:06:35 3.2 C 2.53 g/m*3 3.2 C 0 km/h
211 16-02-2010 15:31:35 3.9 C 2.4 g/m*3 3.9 C 0 km/h
212 16-02-2010 15:56:35 4.5 C 2.43 g/m*3 4.5 C 0 km/h
213 16-02-2010 16:21:35 4.4 C 2.42 g/m*3 4.4 C 0 km/h
214 16-02-2010 16:46:35 4.1 C 2.43 g/m*3 4.1 C 0 km/h
215 16-02-2010 17:11:35 2.8 C 2.58 g/m*3 2.8 C 0 km/h
216 16-02-2010 17:36:35 1.1 C 2.61 g/m*3 1.1 C 0 km/h
217 16-02-2010 18:01:35 -0.2 C 2.63 g/m*3 -0.2 C 0 km/h
218 16-02-2010 18:26:35 -1.4 C 2.73 g/m*3 -1.4 C 0 km/h
219 16-02-2010 18:51:35 -2 C 2.74 g/m*3 -2 C 0 km/h
220 16-02-2010 19:16:35 -2.5 C 2.73 g/m*3 -2.5 C 0 km/h
221 16-02-2010 19:41:35 -2.7 C 2.77 g/m*3 -2.7 C 0 km/h
222 16-02-2010 20:06:36 -3 C 2.75 g/m*3 -3 C 0 km/h
223 16-02-2010 20:31:36 -3.2 C 2.75 g/m*3 -3.2 C 0 km/h
224 16-02-2010 20:56:36 -3.6 C 2.67 g/m*3 -3.6 C 0 km/h
225 16-02-2010 21:21:36 -3.8 C 2.67 g/m*3 -3.8 C 0 km/h
Sensor: Nr:Datum:Temp:Abs-Feuchte:Windchill:Wind:
Aussen-T/F 226 16-02-2010 21:46:36 -4.1 C 2.62 g/m*3 -4.1 C 0 km/h
227 16-02-2010 22:11:36 -4.2 C 2.63 g/m*3 -4.2 C 0 km/h
228 16-02-2010 22:36:36 -4.5 C 2.58 g/m*3 -4.5 C 0 km/h
229 16-02-2010 23:01:36 -4.7 C 2.54 g/m*3 -4.7 C 0 km/h
230 16-02-2010 23:26:36 -4.9 C 2.5 g/m*3 -4.9 C 0 km/h
231 16-02-2010 23:51:36 -5.1 C 2.47 g/m*3 -5.1 C 0 km/h
232 17-02-2010 00:16:36 -5.4 C 2.41 g/m*3 -5.4 C 0 km/h
233 17-02-2010 00:41:36 -5.7 C 2.36 g/m*3 -5.7 C 0 km/h
234 17-02-2010 01:06:36 -6 C 2.34 g/m*3 -6 C 0 km/h
235 17-02-2010 01:31:36 -6.2 C 2.31 g/m*3 -6.2 C 0 km/h
236 17-02-2010 01:56:36 -6.5 C 2.26 g/m*3 -6.5 C 0 km/h
237 17-02-2010 02:21:36 -6.6 C 2.27 g/m*3 -6.6 C 0 km/h
238 17-02-2010 02:46:36 -6.8 C 2.24 g/m*3 -6.8 C 0 km/h
239 17-02-2010 03:11:36 -6.9 C 2.22 g/m*3 -6.9 C 0 km/h
240 17-02-2010 03:36:36 -6.2 C 2.37 g/m*3 -6.2 C 0 km/h
241 17-02-2010 04:01:36 -5.8 C 2.44 g/m*3 -5.8 C 0 km/h
242 17-02-2010 04:26:36 -5.5 C 2.5 g/m*3 -5.5 C 0 km/h
243 17-02-2010 04:51:37 -5.3 C 2.5 g/m*3 -5.3 C 0 km/h
244 17-02-2010 05:16:37 -5.2 C 2.48 g/m*3 -5.2 C 0 km/h
245 17-02-2010 05:41:37 -4.9 C 2.54 g/m*3 -4.9 C 0 km/h
246 17-02-2010 06:06:37 -4.9 C 2.54 g/m*3 -4.9 C 0 km/h
247 17-02-2010 06:31:37 -4.7 C 2.57 g/m*3 -4.7 C 0 km/h
248 17-02-2010 06:56:37 -4.5 C 2.61 g/m*3 -4.5 C 0 km/h
249 17-02-2010 07:21:37 -4.4 C 2.6 g/m*3 -4.4 C 0 km/h
250 17-02-2010 07:46:37 -4.1 C 2.62 g/m*3 -4.1 C 0 km/h
Sensor: Nr:Datum:Temp:Abs-Feuchte:Windchill:Wind:
Aussen-T/F 251 17-02-2010 08:11:37 -3.8 C 2.67 g/m*3 -3.8 C 0 km/h
252 17-02-2010 08:36:37 -3.4 C 2.71 g/m*3 -3.4 C 0 km/h
253 17-02-2010 09:01:37 -3.1 C 2.65 g/m*3 -3.1 C 0 km/h
254 17-02-2010 09:26:37 -2.9 C 2.49 g/m*3 -2.9 C 0 km/h
255 17-02-2010 09:51:37 -2.7 C 2.53 g/m*3 -2.7 C 0 km/h
256 17-02-2010 10:16:37 -2.7 C 2.53 g/m*3 -2.7 C 0 km/h
257 17-02-2010 10:41:37 -2.2 C 2.54 g/m*3 -2.2 C 0 km/h
258 17-02-2010 11:06:37 -1.4 C 2.73 g/m*3 -1.4 C 0 km/h
259 17-02-2010 11:31:37 -0.6 C 2.79 g/m*3 -0.6 C 0 km/h
260 17-02-2010 11:56:37 1 C 2.91 g/m*3 1 C 0 km/h
261 17-02-2010 12:21:37 2.7 C 2.8 g/m*3 2.7 C 0 km/h
262 17-02-2010 12:46:37 3.5 C 2.71 g/m*3 3.5 C 0 km/h
263 17-02-2010 13:11:38 2.9 C 2.72 g/m*3 2.9 C 0 km/h
264 17-02-2010 13:36:38 2.8 C 2.7 g/m*3 2.8 C 0 km/h
265 17-02-2010 14:01:38 2.7 C 2.97 g/m*3 2.7 C 0 km/h
266 17-02-2010 14:26:38 2.1 C 3.3 g/m*3 2.1 C 0 km/h
267 17-02-2010 14:51:38 2.1 C 3.58 g/m*3 2.1 C 0 km/h
268 17-02-2010 15:16:38 1.3 C 3.81 g/m*3 1.3 C 0 km/h
269 17-02-2010 15:41:38 1.2 C 4 g/m*3 1.2 C 0 km/h
270 17-02-2010 16:06:38 1.3 C 4.13 g/m*3 1.3 C 0 km/h
271 17-02-2010 16:31:38 1 C 4.15 g/m*3 1 C 0 km/h
272 17-02-2010 16:56:38 0.9 C 4.23 g/m*3 0.9 C 0 km/h
273 17-02-2010 17:21:38 0.7 C 4.17 g/m*3 0.7 C 0 km/h
274 17-02-2010 17:46:38 0.6 C 4.19 g/m*3 0.6 C 0 km/h
275 17-02-2010 18:11:38 0.5 C 4.21 g/m*3 0.5 C 0 km/h
Sensor: Nr:Datum:Temp:Abs-Feuchte:Windchill:Wind:
Aussen-T/F 276 17-02-2010 18:36:38 0.5 C 4.31 g/m*3 0.5 C 0 km/h
277 17-02-2010 19:01:38 0.5 C 4.36 g/m*3 0.5 C 0 km/h
278 17-02-2010 19:26:38 0.5 C 4.36 g/m*3 0.5 C 0 km/h
279 17-02-2010 19:51:38 0.5 C 4.41 g/m*3 0.5 C 0 km/h
280 17-02-2010 20:16:38 0.7 C 4.53 g/m*3 0.7 C 0 km/h
281 17-02-2010 20:41:38 0.7 C 4.53 g/m*3 0.7 C 0 km/h
282 17-02-2010 21:06:38 0.7 C 4.53 g/m*3 0.7 C 0 km/h
283 17-02-2010 21:31:38 0.8 C 4.51 g/m*3 0.8 C 0 km/h
284 17-02-2010 21:56:39 0.8 C 4.56 g/m*3 0.8 C 0 km/h
285 17-02-2010 22:21:39 0.8 C 4.51 g/m*3 0.8 C 0 km/h
286 17-02-2010 22:46:39 0.8 C 4.51 g/m*3 0.8 C 0 km/h
287 17-02-2010 23:11:39 0.8 C 4.51 g/m*3 0.8 C 0 km/h
288 17-02-2010 23:36:39 0.8 C 4.51 g/m*3 0.8 C 0 km/h
289 18-02-2010 00:01:39 0.8 C 4.51 g/m*3 0.8 C 0 km/h
290 18-02-2010 00:26:39 0.9 C 4.54 g/m*3 0.9 C 0 km/h
291 18-02-2010 00:51:39 0.9 C 4.54 g/m*3 0.9 C 0 km/h
292 18-02-2010 01:16:39 1 C 4.57 g/m*3 1 C 0 km/h
293 18-02-2010 01:41:39 1 C 4.57 g/m*3 1 C 0 km/h
294 18-02-2010 02:06:39 1 C 4.57 g/m*3 1 C 0 km/h
295 18-02-2010 02:31:39 1.2 C 4.63 g/m*3 1.2 C 0 km/h
296 18-02-2010 02:56:39 1 C 4.57 g/m*3 1 C 0 km/h
297 18-02-2010 03:21:39 1.2 C 4.63 g/m*3 1.2 C 0 km/h
298 18-02-2010 03:46:39 1 C 4.57 g/m*3 1 C 0 km/h
299 18-02-2010 04:11:39 1 C 4.62 g/m*3 1 C 0 km/h
300 18-02-2010 04:36:39 1 C 4.62 g/m*3 1 C 0 km/h
Sensor: Nr:Datum:Temp:Abs-Feuchte:Windchill:Wind:
Aussen-T/F 301 18-02-2010 05:01:39 1.2 C 4.68 g/m*3 1.2 C 0 km/h
302 18-02-2010 05:26:39 1 C 4.62 g/m*3 1 C 0 km/h
303 18-02-2010 05:51:39 1.1 C 4.65 g/m*3 1.1 C 0 km/h
304 18-02-2010 06:16:40 1.1 C 4.65 g/m*3 1.1 C 0 km/h
305 18-02-2010 06:41:40 1.2 C 4.74 g/m*3 1.2 C 0 km/h
306 18-02-2010 07:06:40 1.1 C 4.7 g/m*3 1.1 C 0 km/h
307 18-02-2010 07:31:40 1.1 C 4.7 g/m*3 1.1 C 0 km/h
308 18-02-2010 07:56:40 1.1 C 4.7 g/m*3 1.1 C 0 km/h
309 18-02-2010 08:21:40 1.1 C 4.76 g/m*3 1.1 C 0 km/h
310 18-02-2010 08:46:40 1.4 C 4.85 g/m*3 1.4 C 0 km/h
311 18-02-2010 09:11:40 1.7 C 5.01 g/m*3 1.7 C 0 km/h
312 18-02-2010 09:36:40 2 C 5.06 g/m*3 2 C 0 km/h
313 18-02-2010 10:01:40 2.6 C 5.32 g/m*3 2.6 C 0 km/h
314 18-02-2010 10:26:40 3.6 C 5.63 g/m*3 3.6 C 0 km/h
315 18-02-2010 10:51:40 3.8 C 5.58 g/m*3 3.8 C 0 km/h
316 18-02-2010 11:16:40 4.1 C 5.25 g/m*3 4.1 C 0 km/h
317 18-02-2010 11:41:40 4.4 C 5.03 g/m*3 4.4 C 0 km/h
318 18-02-2010 12:06:40 4.7 C 4.86 g/m*3 4.7 C 0 km/h
319 18-02-2010 12:31:40 5.1 C 4.65 g/m*3 5.1 C 0 km/h
320 18-02-2010 12:56:40 5.8 C 4.58 g/m*3 5.8 C 0 km/h
321 18-02-2010 13:21:40 6.8 C 4.36 g/m*3 6.8 C 0 km/h
322 18-02-2010 13:46:40 7.4 C 4.14 g/m*3 7.4 C 0 km/h
323 18-02-2010 14:11:40 8 C 4.13 g/m*3 8 C 0 km/h
324 18-02-2010 14:36:41 8.5 C 4.1 g/m*3 8.5 C 0 km/h
325 18-02-2010 15:01:41 9.1 C 3.73 g/m*3 9.1 C 0 km/h
Sensor: Nr:Datum:Temp:Abs-Feuchte:Windchill:Wind:
Aussen-T/F 326 18-02-2010 15:26:41 9.5 C 3.64 g/m*3 9.5 C 0 km/h
327 18-02-2010 15:51:41 10.1 C 3.59 g/m*3 10.1 C 0 km/h
328 18-02-2010 16:16:41 9.6 C 3.57 g/m*3 9.6 C 0 km/h
329 18-02-2010 16:41:41 9.3 C 3.59 g/m*3 9.3 C 0 km/h
330 18-02-2010 17:06:41 7.5 C 3.36 g/m*3 7.5 C 0 km/h
331 18-02-2010 17:31:41 6.3 C 3.55 g/m*3 6.3 C 0 km/h
332 18-02-2010 17:56:41 5.6 C 3.68 g/m*3 5.6 C 0 km/h
333 18-02-2010 18:21:41 4 C 3.88 g/m*3 4 C 0 km/h
334 18-02-2010 18:46:41 3.2 C 3.98 g/m*3 3.2 C 0 km/h
335 18-02-2010 19:11:41 2.6 C 4.11 g/m*3 2.6 C 0 km/h
336 18-02-2010 19:36:41 2.5 C 4.2 g/m*3 2.5 C 0 km/h
337 18-02-2010 20:01:41 2.1 C 4.08 g/m*3 2.1 C 0 km/h
338 18-02-2010 20:26:41 2 C 4.17 g/m*3 2 C 0 km/h
339 18-02-2010 20:51:41 1.6 C 4.16 g/m*3 1.6 C 0 km/h
340 18-02-2010 21:16:41 1.4 C 4.21 g/m*3 1.4 C 0 km/h
341 18-02-2010 21:41:41 1.4 C 4.21 g/m*3 1.4 C 0 km/h
342 18-02-2010 22:06:41 1.7 C 4.3 g/m*3 1.7 C 0 km/h
343 18-02-2010 22:31:41 2 C 4.33 g/m*3 2 C 0 km/h
344 18-02-2010 22:56:42 1.9 C 4.36 g/m*3 1.9 C 0 km/h
345 18-02-2010 23:21:42 1.7 C 4.3 g/m*3 1.7 C 0 km/h
346 18-02-2010 23:46:42 1.9 C 4.53 g/m*3 1.9 C 0 km/h
347 19-02-2010 00:11:42 2.1 C 4.59 g/m*3 2.1 C 0 km/h
348 19-02-2010 00:36:42 1.8 C 4.55 g/m*3 1.8 C 0 km/h
349 19-02-2010 01:01:42 2 C 4.67 g/m*3 2 C 0 km/h
350 19-02-2010 01:26:42 2 C 4.67 g/m*3 2 C 0 km/h
Sensor: Nr:Datum:Temp:Abs-Feuchte:Windchill:Wind:
Aussen-T/F 351 19-02-2010 01:51:42 2.1 C 4.76 g/m*3 2.1 C 0 km/h
352 19-02-2010 02:16:42 2.1 C 4.7 g/m*3 2.1 C 0 km/h
353 19-02-2010 02:41:42 2 C 4.67 g/m*3 2 C 0 km/h
354 19-02-2010 03:06:42 1.8 C 4.66 g/m*3 1.8 C 0 km/h
355 19-02-2010 03:31:42 1.8 C 4.71 g/m*3 1.8 C 0 km/h
356 19-02-2010 03:56:42 1.6 C 4.7 g/m*3 1.6 C 0 km/h
357 19-02-2010 04:21:42 1.6 C 4.7 g/m*3 1.6 C 0 km/h
358 19-02-2010 04:46:42 1.6 C 4.7 g/m*3 1.6 C 0 km/h
359 19-02-2010 05:11:42 1.7 C 4.79 g/m*3 1.7 C 0 km/h
360 19-02-2010 05:36:42 1.8 C 4.77 g/m*3 1.8 C 0 km/h
361 19-02-2010 06:01:42 1.9 C 4.8 g/m*3 1.9 C 0 km/h
362 19-02-2010 06:26:42 2.1 C 4.76 g/m*3 2.1 C 0 km/h
363 19-02-2010 06:51:42 2 C 4.67 g/m*3 2 C 0 km/h
364 19-02-2010 07:16:42 1.7 C 4.63 g/m*3 1.7 C 0 km/h
365 19-02-2010 07:41:43 1.5 C 4.57 g/m*3 1.5 C 0 km/h
366 19-02-2010 08:06:43 1.5 C 4.62 g/m*3 1.5 C 0 km/h
367 19-02-2010 08:31:43 1.6 C 4.65 g/m*3 1.6 C 0 km/h
368 19-02-2010 08:56:43 2.1 C 4.81 g/m*3 2.1 C 0 km/h
369 19-02-2010 09:21:43 2.5 C 4.83 g/m*3 2.5 C 0 km/h
370 19-02-2010 09:46:43 3.1 C 4.91 g/m*3 3.1 C 0 km/h
371 19-02-2010 10:11:43 3.7 C 5.05 g/m*3 3.7 C 0 km/h
372 19-02-2010 10:36:02 4.6 C 5.1 g/m*3 4.6 C 0 km/h
373 19-02-2010 11:01:02 5.3 C 5.06 g/m*3 5.3 C 0 km/h
374 19-02-2010 11:26:01 6 C 4.79 g/m*3 6 C 0 km/h
375 19-02-2010 11:51:02 6.5 C 4.72 g/m*3 6.5 C 0 km/h
Sensor: Nr:Datum:Temp:Abs-Feuchte:Windchill:Wind:
Aussen-T/F 376 19-02-2010 12:16:02 7 C 4.49 g/m*3 7 C 0 km/h
377 19-02-2010 12:41:02 7.6 C 4.27 g/m*3 7.6 C 0 km/h
378 19-02-2010 13:06:02 7.6 C 4.11 g/m*3 7.6 C 0 km/h
379 19-02-2010 13:31:02 7.7 C 4.05 g/m*3 7.7 C 0 km/h
380 19-02-2010 13:56:02 7.6 C 3.95 g/m*3 7.6 C 0 km/h
381 19-02-2010 14:21:01 7.5 C 4 g/m*3 7.5 C 0 km/h
382 19-02-2010 14:46:02 7.5 C 3.92 g/m*3 7.5 C 0 km/h
383 19-02-2010 15:11:03 7.8 C 3.67 g/m*3 7.8 C 0 km/h
384 19-02-2010 15:36:02 7.2 C 3.53 g/m*3 7.2 C 0 km/h
385 19-02-2010 16:01:02 6.3 C 3.33 g/m*3 6.3 C 0 km/h
386 19-02-2010 16:26:01 6.1 C 3.29 g/m*3 6.1 C 0 km/h
387 19-02-2010 16:51:01 5.5 C 3.23 g/m*3 5.5 C 0 km/h
388 19-02-2010 17:16:02 5 C 3.06 g/m*3 5 C 0 km/h
389 19-02-2010 17:41:02 5.1 C 3.01 g/m*3 5.1 C 0 km/h
390 19-02-2010 18:06:02 4.5 C 3.02 g/m*3 4.5 C 0 km/h
391 19-02-2010 18:31:02 4.1 C 3.07 g/m*3 4.1 C 0 km/h
392 19-02-2010 18:56:01 3.7 C 3.18 g/m*3 3.7 C 0 km/h
393 19-02-2010 19:21:01 3.6 C 3.22 g/m*3 3.6 C 0 km/h
394 19-02-2010 19:46:02 3.6 C 3.28 g/m*3 3.6 C 0 km/h
395 19-02-2010 20:11:02 3.3 C 3.34 g/m*3 3.3 C 0 km/h
396 19-02-2010 20:36:02 3.3 C 3.46 g/m*3 3.3 C 0 km/h
397 19-02-2010 21:14:02 3.3 C 3.52 g/m*3 3.3 C 0 km/h
398 19-02-2010 21:26:02 3.2 C 3.56 g/m*3 3.2 C 0 km/h
399 19-02-2010 21:38:01 3.2 C 3.5 g/m*3 3.2 C 0 km/h
400 19-02-2010 21:50:01 3.1 C 3.53 g/m*3 3.1 C 0 km/h
Sensor: Nr:Datum:Temp:Abs-Feuchte:Windchill:Wind:
Aussen-T/F 401 19-02-2010 22:02:02 2.8 C 3.52 g/m*3 2.8 C 0 km/h
402 19-02-2010 22:14:02 2.6 C 3.53 g/m*3 2.6 C 0 km/h
403 19-02-2010 22:26:01 2.6 C 3.47 g/m*3 2.6 C 0 km/h
404 19-02-2010 22:38:02 2.4 C 3.43 g/m*3 2.4 C 0 km/h
405 19-02-2010 22:50:01 2.2 C 3.38 g/m*3 2.2 C 0 km/h
406 19-02-2010 23:02:02 2.1 C 3.36 g/m*3 2.1 C 0 km/h
407 19-02-2010 23:14:02 2.5 C 3.22 g/m*3 2.5 C 0 km/h
408 19-02-2010 23:26:01 2.5 C 3.16 g/m*3 2.5 C 0 km/h
409 19-02-2010 23:38:02 2.2 C 3.21 g/m*3 2.2 C 0 km/h
410 19-02-2010 23:50:01 1.6 C 3.24 g/m*3 1.6 C 0 km/h
411 20-02-2010 00:02:02 1.5 C 3.33 g/m*3 1.5 C 0 km/h
412 20-02-2010 00:14:02 1.4 C 3.31 g/m*3 1.4 C 0 km/h
413 20-02-2010 00:26:02 1.2 C 3.37 g/m*3 1.2 C 0 km/h
414 20-02-2010 00:38:01 1.1 C 3.4 g/m*3 1.1 C 0 km/h
415 20-02-2010 00:50:02 0.7 C 3.41 g/m*3 0.7 C 0 km/h
416 20-02-2010 01:02:01 0.4 C 3.39 g/m*3 0.4 C 0 km/h
417 20-02-2010 01:14:01 0.1 C 3.42 g/m*3 0.1 C 0 km/h
418 20-02-2010 01:26:01 -0.1 C 3.46 g/m*3 -0.1 C 0 km/h
419 20-02-2010 01:38:02 -0.1 C 3.51 g/m*3 -0.1 C 0 km/h
420 20-02-2010 01:50:02 -0.1 C 3.56 g/m*3 -0.1 C 0 km/h
421 20-02-2010 02:02:02 -0.2 C 3.58 g/m*3 -0.2 C 0 km/h
422 20-02-2010 02:14:02 -0.3 C 3.56 g/m*3 -0.3 C 0 km/h
423 20-02-2010 02:26:02 -0.3 C 3.61 g/m*3 -0.3 C 0 km/h
424 20-02-2010 02:38:02 -0.4 C 3.58 g/m*3 -0.4 C 0 km/h
425 20-02-2010 02:50:01 -0.4 C 3.58 g/m*3 -0.4 C 0 km/h
Sensor: Nr:Datum:Temp:Abs-Feuchte:Windchill:Wind:
Aussen-T/F 426 20-02-2010 03:02:01 -0.4 C 3.58 g/m*3 -0.4 C 0 km/h
427 20-02-2010 03:14:01 -0.7 C 3.46 g/m*3 -0.7 C 0 km/h
428 20-02-2010 03:26:01 -0.7 C 3.51 g/m*3 -0.7 C 0 km/h
429 20-02-2010 03:38:02 -0.8 C 3.48 g/m*3 -0.8 C 0 km/h
430 20-02-2010 03:50:02 -1 C 3.44 g/m*3 -1 C 0 km/h
431 20-02-2010 04:02:01 -0.9 C 3.51 g/m*3 -0.9 C 0 km/h
432 20-02-2010 04:14:01 -0.7 C 3.55 g/m*3 -0.7 C 0 km/h
433 20-02-2010 04:26:01 -0.7 C 3.51 g/m*3 -0.7 C 0 km/h
434 20-02-2010 04:38:02 -0.4 C 3.58 g/m*3 -0.4 C 0 km/h
435 20-02-2010 04:50:01 -0.2 C 3.58 g/m*3 -0.2 C 0 km/h
436 20-02-2010 05:02:01 -0.1 C 3.61 g/m*3 -0.1 C 0 km/h
437 20-02-2010 05:14:01 -0.2 C 3.54 g/m*3 -0.2 C 0 km/h
438 20-02-2010 05:26:01 -0.2 C 3.58 g/m*3 -0.2 C 0 km/h
439 20-02-2010 05:38:02 -0.2 C 3.58 g/m*3 -0.2 C 0 km/h
440 20-02-2010 05:50:01 0 C 3.63 g/m*3 0 C 0 km/h
441 20-02-2010 06:02:02 -0.2 C 3.58 g/m*3 -0.2 C 0 km/h
442 20-02-2010 06:14:02 0.1 C 3.71 g/m*3 0.1 C 0 km/h
443 20-02-2010 06:26:01 0.4 C 3.79 g/m*3 0.4 C 0 km/h
444 20-02-2010 06:38:01 0.3 C 3.76 g/m*3 0.3 C 0 km/h
445 20-02-2010 06:50:01 0 C 3.68 g/m*3 0 C 0 km/h
446 20-02-2010 07:02:01 -0.2 C 3.68 g/m*3 -0.2 C 0 km/h
447 20-02-2010 07:14:02 -0.5 C 3.65 g/m*3 -0.5 C 0 km/h
448 20-02-2010 07:26:01 -0.6 C 3.67 g/m*3 -0.6 C 0 km/h
449 20-02-2010 07:38:01 -0.6 C 3.72 g/m*3 -0.6 C 0 km/h
450 20-02-2010 07:50:01 -0.6 C 3.76 g/m*3 -0.6 C 0 km/h
Sensor: Nr:Datum:Temp:Abs-Feuchte:Windchill:Wind:
Aussen-T/F 451 20-02-2010 08:02:02 -0.2 C 3.92 g/m*3 -0.2 C 0 km/h
452 20-02-2010 08:14:02 0.1 C 3.95 g/m*3 0.1 C 0 km/h
453 20-02-2010 08:26:01 0.4 C 3.98 g/m*3 0.4 C 0 km/h
454 20-02-2010 08:38:01 0.7 C 3.97 g/m*3 0.7 C 0 km/h
455 20-02-2010 08:50:01 1 C 3.94 g/m*3 1 C 0 km/h
456 20-02-2010 09:02:02 1.2 C 3.95 g/m*3 1.2 C 0 km/h
457 20-02-2010 09:14:02 1.4 C 3.89 g/m*3 1.4 C 0 km/h
458 20-02-2010 09:26:01 1.5 C 3.87 g/m*3 1.5 C 0 km/h
459 20-02-2010 09:38:01 1.2 C 3.79 g/m*3 1.2 C 0 km/h
460 20-02-2010 09:50:01 1.2 C 3.74 g/m*3 1.2 C 0 km/h
461 20-02-2010 10:02:01 1.3 C 3.76 g/m*3 1.3 C 0 km/h
462 20-02-2010 10:14:01 1.4 C 3.73 g/m*3 1.4 C 0 km/h
463 20-02-2010 10:26:01 1.5 C 3.71 g/m*3 1.5 C 0 km/h
464 20-02-2010 10:38:01 1.7 C 3.76 g/m*3 1.7 C 0 km/h
465 20-02-2010 10:50:01 1.8 C 3.73 g/m*3 1.8 C 0 km/h
466 20-02-2010 11:02:01 2.1 C 3.75 g/m*3 2.1 C 0 km/h
467 20-02-2010 11:14:01 3 C 3.63 g/m*3 3 C 0 km/h
468 20-02-2010 11:26:01 3.3 C 3.58 g/m*3 3.3 C 0 km/h
469 20-02-2010 11:38:01 3.7 C 3.61 g/m*3 3.7 C 0 km/h
470 20-02-2010 11:50:01 4.1 C 3.46 g/m*3 4.1 C 0 km/h
471 20-02-2010 12:02:01 4.1 C 3.33 g/m*3 4.1 C 0 km/h
472 20-02-2010 12:14:01 3.9 C 3.47 g/m*3 3.9 C 0 km/h
473 20-02-2010 12:26:02 4.1 C 3.39 g/m*3 4.1 C 0 km/h
474 20-02-2010 12:38:01 3.8 C 3.45 g/m*3 3.8 C 0 km/h
475 20-02-2010 12:50:01 4.2 C 3.41 g/m*3 4.2 C 0 km/h
Sensor: Nr:Datum:Temp:Abs-Feuchte:Windchill:Wind:
Aussen-T/F 476 20-02-2010 13:02:01 4.2 C 3.22 g/m*3 4.2 C 0 km/h
477 20-02-2010 13:14:01 4.3 C 3.18 g/m*3 4.3 C 0 km/h
478 20-02-2010 13:26:02 4.5 C 3.22 g/m*3 4.5 C 0 km/h
479 20-02-2010 13:38:01 4.5 C 3.16 g/m*3 4.5 C 0 km/h
480 20-02-2010 13:50:02 4.3 C 3.11 g/m*3 4.3 C 0 km/h
481 20-02-2010 14:02:01 4.2 C 3.22 g/m*3 4.2 C 0 km/h
482 20-02-2010 14:14:01 4.5 C 3.22 g/m*3 4.5 C 0 km/h
483 20-02-2010 14:26:02 4.9 C 3.24 g/m*3 4.9 C 0 km/h
484 20-02-2010 14:38:01 4.7 C 3.2 g/m*3 4.7 C 0 km/h
485 20-02-2010 14:50:01 4.5 C 3.22 g/m*3 4.5 C 0 km/h
486 20-02-2010 15:02:01 4.4 C 3.2 g/m*3 4.4 C 0 km/h
487 20-02-2010 15:14:01 4.8 C 3.22 g/m*3 4.8 C 0 km/h
488 20-02-2010 15:26:02 4.9 C 3.17 g/m*3 4.9 C 0 km/h
489 20-02-2010 15:38:01 5.1 C 3.15 g/m*3 5.1 C 0 km/h
490 20-02-2010 15:50:02 5.1 C 3.08 g/m*3 5.1 C 0 km/h
491 20-02-2010 16:02:01 5 C 3.06 g/m*3 5 C 0 km/h
492 20-02-2010 16:14:01 4.9 C 3.11 g/m*3 4.9 C 0 km/h
493 20-02-2010 16:26:02 5 C 3.06 g/m*3 5 C 0 km/h
494 20-02-2010 16:38:01 5.2 C 3.1 g/m*3 5.2 C 0 km/h
495 20-02-2010 16:50:02 4.9 C 3.04 g/m*3 4.9 C 0 km/h
496 20-02-2010 17:02:01 4.5 C 3.09 g/m*3 4.5 C 0 km/h
497 20-02-2010 17:14:01 4.9 C 3.11 g/m*3 4.9 C 0 km/h
498 20-02-2010 17:26:01 4.8 C 3.08 g/m*3 4.8 C 0 km/h
499 20-02-2010 17:38:01 4.2 C 3.16 g/m*3 4.2 C 0 km/h
500 20-02-2010 17:50:02 3.6 C 3.47 g/m*3 3.6 C 0 km/h
Sensor: Nr:Datum:Temp:Abs-Feuchte:Windchill:Wind:
Aussen-T/F 501 20-02-2010 18:02:01 2.9 C 3.54 g/m*3 2.9 C 0 km/h
502 20-02-2010 18:14:01 2.5 C 3.56 g/m*3 2.5 C 0 km/h
503 20-02-2010 18:26:02 2.5 C 3.56 g/m*3 2.5 C 0 km/h
504 20-02-2010 18:38:01 2.7 C 3.55 g/m*3 2.7 C 0 km/h
505 20-02-2010 18:50:02 2.6 C 3.47 g/m*3 2.6 C 0 km/h
506 20-02-2010 19:02:01 2.2 C 3.44 g/m*3 2.2 C 0 km/h
507 20-02-2010 19:14:01 2 C 3.45 g/m*3 2 C 0 km/h
508 20-02-2010 19:26:01 1.8 C 3.45 g/m*3 1.8 C 0 km/h
509 20-02-2010 19:38:02 2 C 3.45 g/m*3 2 C 0 km/h
510 20-02-2010 19:50:01 1.5 C 3.44 g/m*3 1.5 C 0 km/h
511 20-02-2010 20:02:01 1.3 C 3.44 g/m*3 1.3 C 0 km/h
512 20-02-2010 20:14:01 0.9 C 3.45 g/m*3 0.9 C 0 km/h
513 20-02-2010 20:26:01 0.8 C 3.48 g/m*3 0.8 C 0 km/h
514 20-02-2010 20:38:02 0.6 C 3.43 g/m*3 0.6 C 0 km/h
515 20-02-2010 20:50:01 0.7 C 3.41 g/m*3 0.7 C 0 km/h
516 20-02-2010 21:02:02 0.7 C 3.41 g/m*3 0.7 C 0 km/h
517 20-02-2010 21:14:02 0.8 C 3.33 g/m*3 0.8 C 0 km/h
518 20-02-2010 21:26:01 0.8 C 3.28 g/m*3 0.8 C 0 km/h
519 20-02-2010 21:38:02 0.7 C 3.3 g/m*3 0.7 C 0 km/h
520 20-02-2010 21:50:01 1 C 3.32 g/m*3 1 C 0 km/h
521 20-02-2010 22:02:02 1.1 C 3.34 g/m*3 1.1 C 0 km/h
522 20-02-2010 22:14:02 0.9 C 3.35 g/m*3 0.9 C 0 km/h
523 20-02-2010 22:26:01 0.7 C 3.36 g/m*3 0.7 C 0 km/h
524 20-02-2010 22:38:02 0.4 C 3.34 g/m*3 0.4 C 0 km/h
525 20-02-2010 22:50:01 0.4 C 3.39 g/m*3 0.4 C 0 km/h
Sensor: Nr:Datum:Temp:Abs-Feuchte:Windchill:Wind:
Aussen-T/F 526 20-02-2010 23:02:02 0.5 C 3.41 g/m*3 0.5 C 0 km/h
527 20-02-2010 23:14:02 0.6 C 3.48 g/m*3 0.6 C 0 km/h
528 20-02-2010 23:26:01 0.9 C 3.56 g/m*3 0.9 C 0 km/h
529 20-02-2010 23:38:01 1.4 C 3.63 g/m*3 1.4 C 0 km/h
530 20-02-2010 23:50:01 1.5 C 3.6 g/m*3 1.5 C 0 km/h
531 21-02-2010 00:02:01 1.6 C 3.62 g/m*3 1.6 C 0 km/h
532 21-02-2010 00:14:01 1.8 C 3.67 g/m*3 1.8 C 0 km/h
533 21-02-2010 00:26:01 2.1 C 3.64 g/m*3 2.1 C 0 km/h
534 21-02-2010 00:38:02 2.2 C 3.66 g/m*3 2.2 C 0 km/h
535 21-02-2010 00:50:01 2.1 C 3.64 g/m*3 2.1 C 0 km/h
536 21-02-2010 01:02:02 2.1 C 3.64 g/m*3 2.1 C 0 km/h
537 21-02-2010 01:14:02 2 C 3.61 g/m*3 2 C 0 km/h
538 21-02-2010 01:26:01 1.7 C 3.59 g/m*3 1.7 C 0 km/h
539 21-02-2010 01:38:02 1.7 C 3.59 g/m*3 1.7 C 0 km/h
540 21-02-2010 01:50:01 1.7 C 3.54 g/m*3 1.7 C 0 km/h
541 21-02-2010 02:02:02 1.6 C 3.57 g/m*3 1.6 C 0 km/h
542 21-02-2010 02:14:02 1.6 C 3.57 g/m*3 1.6 C 0 km/h
543 21-02-2010 02:26:01 1.7 C 3.59 g/m*3 1.7 C 0 km/h
544 21-02-2010 02:38:01 1.8 C 3.62 g/m*3 1.8 C 0 km/h
545 21-02-2010 02:50:01 1.7 C 3.7 g/m*3 1.7 C 0 km/h
546 21-02-2010 03:02:01 1.5 C 3.81 g/m*3 1.5 C 0 km/h
547 21-02-2010 03:14:02 1.3 C 3.87 g/m*3 1.3 C 0 km/h
548 21-02-2010 03:26:02 1 C 3.89 g/m*3 1 C 0 km/h
549 21-02-2010 03:38:01 0.6 C 3.89 g/m*3 0.6 C 0 km/h
550 21-02-2010 03:50:01 0.4 C 3.93 g/m*3 0.4 C 0 km/h
Sensor: Nr:Datum:Temp:Abs-Feuchte:Windchill:Wind:
Aussen-T/F 551 21-02-2010 04:02:02 0.4 C 3.98 g/m*3 0.4 C 0 km/h
552 21-02-2010 04:14:02 0.4 C 4.08 g/m*3 0.4 C 0 km/h
553 21-02-2010 04:26:01 0.3 C 4.11 g/m*3 0.3 C 0 km/h
554 21-02-2010 04:38:01 0.4 C 4.18 g/m*3 0.4 C 0 km/h
555 21-02-2010 04:50:01 0.4 C 4.23 g/m*3 0.4 C 0 km/h
556 21-02-2010 05:02:01 0.5 C 4.31 g/m*3 0.5 C 0 km/h
557 21-02-2010 05:14:01 0.4 C 4.33 g/m*3 0.4 C 0 km/h
558 21-02-2010 05:26:01 0.5 C 4.36 g/m*3 0.5 C 0 km/h
559 21-02-2010 05:38:01 0.5 C 4.41 g/m*3 0.5 C 0 km/h
560 21-02-2010 05:50:01 0.6 C 4.44 g/m*3 0.6 C 0 km/h
561 21-02-2010 06:02:01 0.6 C 4.49 g/m*3 0.6 C 0 km/h
562 21-02-2010 06:14:01 0.7 C 4.53 g/m*3 0.7 C 0 km/h
563 21-02-2010 06:26:02 0.7 C 4.53 g/m*3 0.7 C 0 km/h
564 21-02-2010 06:38:01 0.8 C 4.56 g/m*3 0.8 C 0 km/h
565 21-02-2010 06:50:02 0.8 C 4.56 g/m*3 0.8 C 0 km/h
566 21-02-2010 07:02:01 0.9 C 4.54 g/m*3 0.9 C 0 km/h
567 21-02-2010 07:14:01 0.9 C 4.48 g/m*3 0.9 C 0 km/h
568 21-02-2010 07:26:02 0.8 C 4.45 g/m*3 0.8 C 0 km/h
569 21-02-2010 07:38:01 0.8 C 4.4 g/m*3 0.8 C 0 km/h
570 21-02-2010 07:50:01 0.8 C 4.35 g/m*3 0.8 C 0 km/h
571 21-02-2010 08:02:02 1.3 C 4.45 g/m*3 1.3 C 0 km/h
572 21-02-2010 08:14:02 1.2 C 4.42 g/m*3 1.2 C 0 km/h
573 21-02-2010 08:26:01 1.4 C 4.37 g/m*3 1.4 C 0 km/h
574 21-02-2010 08:38:01 1.6 C 4.38 g/m*3 1.6 C 0 km/h
575 21-02-2010 08:50:01 1.5 C 4.4 g/m*3 1.5 C 0 km/h
Sensor: Nr:Datum:Temp:Abs-Feuchte:Windchill:Wind:
Aussen-T/F 576 21-02-2010 09:02:01 1.6 C 4.43 g/m*3 1.6 C 0 km/h
577 21-02-2010 09:14:02 1.7 C 4.46 g/m*3 1.7 C 0 km/h
578 21-02-2010 09:26:01 2 C 4.5 g/m*3 2 C 0 km/h
579 21-02-2010 09:38:01 2.1 C 4.48 g/m*3 2.1 C 0 km/h
580 21-02-2010 09:50:01 2.3 C 4.48 g/m*3 2.3 C 0 km/h
581 21-02-2010 10:02:02 2.5 C 4.48 g/m*3 2.5 C 0 km/h
582 21-02-2010 10:14:02 2.8 C 4.52 g/m*3 2.8 C 0 km/h
583 21-02-2010 10:26:01 2.9 C 4.49 g/m*3 2.9 C 0 km/h
584 21-02-2010 10:38:02 3 C 4.34 g/m*3 3 C 0 km/h
585 21-02-2010 10:50:02 3.1 C 4.37 g/m*3 3.1 C 0 km/h
586 21-02-2010 11:02:01 3.2 C 4.4 g/m*3 3.2 C 0 km/h
587 21-02-2010 11:14:01 3.7 C 4.42 g/m*3 3.7 C 0 km/h
588 21-02-2010 11:26:01 3.8 C 4.33 g/m*3 3.8 C 0 km/h
589 21-02-2010 11:38:02 4 C 4.26 g/m*3 4 C 0 km/h
590 21-02-2010 11:50:01 4.2 C 4.25 g/m*3 4.2 C 0 km/h
591 21-02-2010 12:02:01 4.4 C 4.05 g/m*3 4.4 C 0 km/h
592 21-02-2010 12:14:01 4.5 C 3.81 g/m*3 4.5 C 0 km/h
593 21-02-2010 12:26:02 4.8 C 3.82 g/m*3 4.8 C 0 km/h
594 21-02-2010 12:38:01 5 C 3.94 g/m*3 5 C 0 km/h
595 21-02-2010 12:50:01 5.1 C 3.9 g/m*3 5.1 C 0 km/h
596 21-02-2010 13:02:01 4.9 C 3.78 g/m*3 4.9 C 0 km/h
597 21-02-2010 13:14:01 4.7 C 3.86 g/m*3 4.7 C 0 km/h
598 21-02-2010 13:26:01 4.7 C 3.93 g/m*3 4.7 C 0 km/h
599 21-02-2010 13:38:01 4.7 C 4.06 g/m*3 4.7 C 0 km/h
600 21-02-2010 13:50:01 5.2 C 4.06 g/m*3 5.2 C 0 km/h
Sensor: Nr:Datum:Temp:Abs-Feuchte:Windchill:Wind:
Aussen-T/F 601 21-02-2010 14:02:02 5.7 C 4.06 g/m*3 5.7 C 0 km/h
602 21-02-2010 14:14:02 5.3 C 3.95 g/m*3 5.3 C 0 km/h
603 21-02-2010 14:26:01 5.3 C 3.95 g/m*3 5.3 C 0 km/h
604 21-02-2010 14:38:01 5.2 C 4.06 g/m*3 5.2 C 0 km/h
605 21-02-2010 14:50:01 5.2 C 4.06 g/m*3 5.2 C 0 km/h
606 21-02-2010 15:02:01 5.4 C 4.12 g/m*3 5.4 C 0 km/h
607 21-02-2010 15:14:01 6.1 C 4.09 g/m*3 6.1 C 0 km/h
608 21-02-2010 15:26:01 6.3 C 4.07 g/m*3 6.3 C 0 km/h
609 21-02-2010 15:38:01 6.4 C 4.1 g/m*3 6.4 C 0 km/h
610 21-02-2010 15:50:02 6.3 C 4.15 g/m*3 6.3 C 0 km/h
611 21-02-2010 16:02:01 6.4 C 4.17 g/m*3 6.4 C 0 km/h
612 21-02-2010 16:14:01 6.5 C 4.12 g/m*3 6.5 C 0 km/h
613 21-02-2010 16:26:02 6.5 C 4.2 g/m*3 6.5 C 0 km/h
614 21-02-2010 16:38:01 6.2 C 4.04 g/m*3 6.2 C 0 km/h
615 21-02-2010 16:50:01 7.2 C 4.24 g/m*3 7.2 C 0 km/h
616 21-02-2010 17:02:02 6.5 C 3.97 g/m*3 6.5 C 0 km/h
617 21-02-2010 17:14:02 5.9 C 4.11 g/m*3 5.9 C 0 km/h
618 21-02-2010 17:26:01 5.6 C 4.1 g/m*3 5.6 C 0 km/h
619 21-02-2010 17:38:02 5.3 C 4.16 g/m*3 5.3 C 0 km/h
620 21-02-2010 17:50:01 5.1 C 4.17 g/m*3 5.1 C 0 km/h
621 21-02-2010 18:02:02 4.8 C 4.29 g/m*3 4.8 C 0 km/h
622 21-02-2010 18:14:02 4.6 C 4.3 g/m*3 4.6 C 0 km/h
623 21-02-2010 18:26:01 4.4 C 4.31 g/m*3 4.4 C 0 km/h
624 21-02-2010 18:38:01 3.8 C 4.27 g/m*3 3.8 C 0 km/h
625 21-02-2010 18:50:01 3.4 C 4.28 g/m*3 3.4 C 0 km/h
Sensor: Nr:Datum:Temp:Abs-Feuchte:Windchill:Wind:
Aussen-T/F 626 21-02-2010 19:02:02 3 C 4.22 g/m*3 3 C 0 km/h
627 21-02-2010 19:14:02 2.9 C 4.37 g/m*3 2.9 C 0 km/h
628 21-02-2010 19:26:01 2.8 C 4.4 g/m*3 2.8 C 0 km/h
629 21-02-2010 19:38:01 2.8 C 4.46 g/m*3 2.8 C 0 km/h
630 21-02-2010 19:50:01 2.7 C 4.49 g/m*3 2.7 C 0 km/h
631 21-02-2010 20:02:01 2.5 C 4.43 g/m*3 2.5 C 0 km/h
632 21-02-2010 20:14:01 2.4 C 4.4 g/m*3 2.4 C 0 km/h
633 21-02-2010 20:26:01 2.7 C 4.6 g/m*3 2.7 C 0 km/h
634 21-02-2010 20:38:01 2.8 C 4.63 g/m*3 2.8 C 0 km/h
635 21-02-2010 20:50:01 3 C 4.58 g/m*3 3 C 0 km/h
636 21-02-2010 21:02:01 3 C 4.58 g/m*3 3 C 0 km/h
637 21-02-2010 21:14:01 3 C 4.58 g/m*3 3 C 0 km/h
638 21-02-2010 21:26:02 2.9 C 4.61 g/m*3 2.9 C 0 km/h
639 21-02-2010 21:38:01 2.8 C 4.58 g/m*3 2.8 C 0 km/h
640 21-02-2010 21:50:02 2.7 C 4.6 g/m*3 2.7 C 0 km/h
641 21-02-2010 22:02:01 2.6 C 4.57 g/m*3 2.6 C 0 km/h
642 21-02-2010 22:14:01 2.4 C 4.51 g/m*3 2.4 C 0 km/h
643 21-02-2010 22:26:02 2.3 C 4.54 g/m*3 2.3 C 0 km/h
644 21-02-2010 22:38:01 2.1 C 4.53 g/m*3 2.1 C 0 km/h
645 21-02-2010 22:50:02 2.1 C 4.53 g/m*3 2.1 C 0 km/h
646 21-02-2010 23:02:01 2.2 C 4.62 g/m*3 2.2 C 0 km/h
647 21-02-2010 23:14:01 2.1 C 4.59 g/m*3 2.1 C 0 km/h
648 21-02-2010 23:26:02 2 C 4.56 g/m*3 2 C 0 km/h
649 21-02-2010 23:38:01 2 C 4.56 g/m*3 2 C 0 km/h
650 21-02-2010 23:50:02 1.9 C 4.58 g/m*3 1.9 C 0 km/h
Sensor: Nr:Datum:Temp:Abs-Feuchte:Windchill:Wind:
Aussen-T/F 651 22-02-2010 00:02:01 1.9 C 4.58 g/m*3 1.9 C 0 km/h
652 22-02-2010 00:14:01 1.8 C 4.55 g/m*3 1.8 C 0 km/h
653 22-02-2010 00:26:01 1.7 C 4.57 g/m*3 1.7 C 0 km/h
654 22-02-2010 00:38:02 1.7 C 4.57 g/m*3 1.7 C 0 km/h
655 22-02-2010 00:50:01 1.6 C 4.54 g/m*3 1.6 C 0 km/h
656 22-02-2010 01:02:02 1.6 C 4.54 g/m*3 1.6 C 0 km/h
657 22-02-2010 01:14:02 1.5 C 4.51 g/m*3 1.5 C 0 km/h
658 22-02-2010 01:26:01 1.3 C 4.45 g/m*3 1.3 C 0 km/h
659 22-02-2010 01:38:02 1.3 C 4.45 g/m*3 1.3 C 0 km/h
660 22-02-2010 01:50:01 1.3 C 4.45 g/m*3 1.3 C 0 km/h
661 22-02-2010 02:02:02 1.3 C 4.45 g/m*3 1.3 C 0 km/h
662 22-02-2010 02:14:02 1.3 C 4.45 g/m*3 1.3 C 0 km/h
663 22-02-2010 02:26:01 1 C 4.36 g/m*3 1 C 0 km/h
664 22-02-2010 02:38:01 1 C 4.36 g/m*3 1 C 0 km/h
665 22-02-2010 02:50:01 1 C 4.41 g/m*3 1 C 0 km/h
666 22-02-2010 03:02:01 1.1 C 4.44 g/m*3 1.1 C 0 km/h
667 22-02-2010 03:14:02 1.1 C 4.44 g/m*3 1.1 C 0 km/h
668 22-02-2010 03:26:02 1 C 4.41 g/m*3 1 C 0 km/h
669 22-02-2010 03:38:01 1.1 C 4.44 g/m*3 1.1 C 0 km/h
670 22-02-2010 03:50:01 1.1 C 4.49 g/m*3 1.1 C 0 km/h
671 22-02-2010 04:02:02 1.4 C 4.59 g/m*3 1.4 C 0 km/h
672 22-02-2010 04:14:02 1.1 C 4.44 g/m*3 1.1 C 0 km/h
673 22-02-2010 04:26:01 1 C 4.41 g/m*3 1 C 0 km/h
674 22-02-2010 04:38:02 1.1 C 4.49 g/m*3 1.1 C 0 km/h
675 22-02-2010 04:50:01 1.1 C 4.49 g/m*3 1.1 C 0 km/h
Sensor: Nr:Datum:Temp:Abs-Feuchte:Windchill:Wind:
Aussen-T/F 676 22-02-2010 05:02:02 1.1 C 4.49 g/m*3 1.1 C 0 km/h
677 22-02-2010 05:14:02 1.2 C 4.53 g/m*3 1.2 C 0 km/h
678 22-02-2010 05:26:01 1.4 C 4.59 g/m*3 1.4 C 0 km/h
679 22-02-2010 05:38:01 1.4 C 4.59 g/m*3 1.4 C 0 km/h
680 22-02-2010 05:50:01 1.5 C 4.62 g/m*3 1.5 C 0 km/h
681 22-02-2010 06:02:01 1.5 C 4.62 g/m*3 1.5 C 0 km/h
682 22-02-2010 06:14:02 1.5 C 4.62 g/m*3 1.5 C 0 km/h
683 22-02-2010 06:26:01 1.5 C 4.62 g/m*3 1.5 C 0 km/h
684 22-02-2010 06:38:01 1.6 C 4.65 g/m*3 1.6 C 0 km/h
685 22-02-2010 06:50:01 1.6 C 4.65 g/m*3 1.6 C 0 km/h
686 22-02-2010 07:02:01 1.6 C 4.65 g/m*3 1.6 C 0 km/h
687 22-02-2010 07:14:01 1.8 C 4.77 g/m*3 1.8 C 0 km/h
688 22-02-2010 07:26:02 2.2 C 4.9 g/m*3 2.2 C 0 km/h
689 22-02-2010 07:38:01 2.3 C 4.93 g/m*3 2.3 C 0 km/h
690 22-02-2010 07:50:02 2.5 C 5 g/m*3 2.5 C 0 km/h
691 22-02-2010 08:02:01 2.7 C 5.07 g/m*3 2.7 C 0 km/h
692 22-02-2010 08:14:01 3 C 5.11 g/m*3 3 C 0 km/h
693 22-02-2010 08:26:02 3.2 C 5.12 g/m*3 3.2 C 0 km/h
694 22-02-2010 08:38:01 3.5 C 5.16 g/m*3 3.5 C 0 km/h
695 22-02-2010 08:50:02 3.8 C 5.21 g/m*3 3.8 C 0 km/h
696 22-02-2010 09:02:01 4.2 C 5.22 g/m*3 4.2 C 0 km/h
697 22-02-2010 09:14:01 4.5 C 5.32 g/m*3 4.5 C 0 km/h
698 22-02-2010 09:26:01 4.8 C 5.3 g/m*3 4.8 C 0 km/h
699 22-02-2010 09:38:01 5.1 C 5.27 g/m*3 5.1 C 0 km/h
700 22-02-2010 09:50:02 5.3 C 5.2 g/m*3 5.3 C 0 km/h
Sensor: Nr:Datum:Temp:Abs-Feuchte:Windchill:Wind:
Aussen-T/F 701 22-02-2010 10:02:01 5.7 C 5.19 g/m*3 5.7 C 0 km/h
702 22-02-2010 10:14:01 6.3 C 5.18 g/m*3 6.3 C 0 km/h
703 22-02-2010 10:26:01 6.9 C 5.08 g/m*3 6.9 C 0 km/h
704 22-02-2010 10:38:02 7.2 C 5.02 g/m*3 7.2 C 0 km/h
705 22-02-2010 10:50:01 7.6 C 5.08 g/m*3 7.6 C 0 km/h
706 22-02-2010 11:02:01 7.7 C 5.19 g/m*3 7.7 C 0 km/h
707 22-02-2010 11:14:01 8 C 5.21 g/m*3 8 C 0 km/h
708 22-02-2010 11:26:02 8.5 C 5.21 g/m*3 8.5 C 0 km/h
709 22-02-2010 11:38:01 8.9 C 5.26 g/m*3 8.9 C 0 km/h
710 22-02-2010 11:50:02 8.7 C 5.19 g/m*3 8.7 C 0 km/h
711 22-02-2010 12:02:01 8.6 C 5.33 g/m*3 8.6 C 0 km/h
712 22-02-2010 12:14:01 8.4 C 5.51 g/m*3 8.4 C 0 km/h
713 22-02-2010 12:26:02 8.8 C 5.74 g/m*3 8.8 C 0 km/h
714 22-02-2010 12:38:01 9.7 C 5.81 g/m*3 9.7 C 0 km/h
715 22-02-2010 12:50:02 10.3 C 5.55 g/m*3 10.3 C 0 km/h
716 22-02-2010 13:02:01 10.6 C 5.37 g/m*3 10.6 C 0 km/h
717 22-02-2010 13:14:01 11.2 C 5.27 g/m*3 11.2 C 0 km/h
718 22-02-2010 13:26:01 11.7 C 5.12 g/m*3 11.7 C 0 km/h
719 22-02-2010 13:38:02 11.4 C 5.13 g/m*3 11.4 C 0 km/h
720 22-02-2010 13:50:01 11.8 C 5.26 g/m*3 11.8 C 0 km/h
721 22-02-2010 14:02:02 11.9 C 5.08 g/m*3 11.9 C 0 km/h
722 22-02-2010 14:14:02 12.7 C 5.01 g/m*3 12.7 C 0 km/h
723 22-02-2010 14:26:01 12.2 C 5.07 g/m*3 12.2 C 0 km/h
724 22-02-2010 14:38:02 12.5 C 5.06 g/m*3 12.5 C 0 km/h
725 22-02-2010 14:50:01 12.2 C 5.07 g/m*3 12.2 C 0 km/h
Sensor: Nr:Datum:Temp:Abs-Feuchte:Windchill:Wind:
Aussen-T/F 726 22-02-2010 15:02:02 12.3 C 5.1 g/m*3 12.3 C 0 km/h
727 22-02-2010 15:14:02 12.7 C 5.12 g/m*3 12.7 C 0 km/h
728 22-02-2010 15:26:01 13.3 C 5.2 g/m*3 13.3 C 0 km/h
729 22-02-2010 15:38:02 13.4 C 5 g/m*3 13.4 C 0 km/h
730 22-02-2010 15:50:01 12.7 C 5.23 g/m*3 12.7 C 0 km/h
731 22-02-2010 16:02:02 12.4 C 5.14 g/m*3 12.4 C 0 km/h
732 22-02-2010 16:14:02 11.9 C 5.3 g/m*3 11.9 C 0 km/h
733 22-02-2010 16:26:01 11.5 C 5.37 g/m*3 11.5 C 0 km/h
734 22-02-2010 16:38:01 11.4 C 5.44 g/m*3 11.4 C 0 km/h
735 22-02-2010 16:50:01 11.8 C 5.58 g/m*3 11.8 C 0 km/h
736 22-02-2010 17:02:01 12.1 C 5.47 g/m*3 12.1 C 0 km/h
737 22-02-2010 17:14:01 11.8 C 5.47 g/m*3 11.8 C 0 km/h
738 22-02-2010 17:26:01 11.3 C 5.51 g/m*3 11.3 C 0 km/h
739 22-02-2010 17:38:01 10.7 C 5.6 g/m*3 10.7 C 0 km/h
740 22-02-2010 17:50:01 10.4 C 5.69 g/m*3 10.4 C 0 km/h
741 22-02-2010 18:02:01 10.1 C 5.67 g/m*3 10.1 C 0 km/h
742 22-02-2010 18:14:01 9.9 C 5.79 g/m*3 9.9 C 0 km/h
743 22-02-2010 18:26:02 9.7 C 5.72 g/m*3 9.7 C 0 km/h
744 22-02-2010 18:38:01 9.4 C 5.7 g/m*3 9.4 C 0 km/h
745 22-02-2010 18:50:02 9.2 C 5.8 g/m*3 9.2 C 0 km/h
746 22-02-2010 19:02:01 9 C 5.73 g/m*3 9 C 0 km/h
747 22-02-2010 19:14:01 8.9 C 5.87 g/m*3 8.9 C 0 km/h
748 22-02-2010 19:26:02 8.9 C 5.87 g/m*3 8.9 C 0 km/h
749 22-02-2010 19:38:01 9 C 5.82 g/m*3 9 C 0 km/h
750 22-02-2010 19:50:02 9.1 C 5.77 g/m*3 9.1 C 0 km/h
Sensor: Nr:Datum:Temp:Abs-Feuchte:Windchill:Wind:
Aussen-T/F 751 22-02-2010 20:02:02 9.1 C 5.68 g/m*3 9.1 C 0 km/h
752 22-02-2010 20:14:02 9.2 C 5.63 g/m*3 9.2 C 0 km/h
753 22-02-2010 20:26:01 9.5 C 5.64 g/m*3 9.5 C 0 km/h
754 22-02-2010 20:38:02 9.4 C 5.52 g/m*3 9.4 C 0 km/h
755 22-02-2010 20:50:02 9 C 5.47 g/m*3 9 C 0 km/h
756 22-02-2010 21:02:01 8.7 C 5.53 g/m*3 8.7 C 0 km/h
757 22-02-2010 21:14:01 8.9 C 5.52 g/m*3 8.9 C 0 km/h
758 22-02-2010 21:26:01 8.8 C 5.48 g/m*3 8.8 C 0 km/h
759 22-02-2010 21:38:02 8.9 C 5.52 g/m*3 8.9 C 0 km/h
760 22-02-2010 21:50:01 8.9 C 5.52 g/m*3 8.9 C 0 km/h
761 22-02-2010 22:02:02 9.1 C 5.5 g/m*3 9.1 C 0 km/h
762 22-02-2010 22:14:02 9.5 C 5.55 g/m*3 9.5 C 0 km/h
763 22-02-2010 22:28:08 10.1 C 5.67 g/m*3 10.1 C 0 km/h
764 22-02-2010 22:40:08 11.1 C 5.54 g/m*3 11.1 C 0 km/h
765 22-02-2010 22:52:08 11.5 C 5.47 g/m*3 11.5 C 0 km/h
766 22-02-2010 23:04:08 12 C 5.33 g/m*3 12 C 0 km/h
767 22-02-2010 23:16:08 12.1 C 5.36 g/m*3 12.1 C 0 km/h
768 22-02-2010 23:28:08 12.1 C 5.47 g/m*3 12.1 C 0 km/h
769 22-02-2010 23:40:08 12 C 5.44 g/m*3 12 C 0 km/h
770 22-02-2010 23:52:08 12.2 C 5.5 g/m*3 12.2 C 0 km/h
771 23-02-2010 00:04:08 12.1 C 5.47 g/m*3 12.1 C 0 km/h
772 23-02-2010 00:16:08 12.1 C 5.47 g/m*3 12.1 C 0 km/h
773 23-02-2010 00:28:08 12.2 C 5.5 g/m*3 12.2 C 0 km/h
774 23-02-2010 00:40:08 12.2 C 5.4 g/m*3 12.2 C 0 km/h
775 23-02-2010 00:52:08 12.1 C 5.36 g/m*3 12.1 C 0 km/h
Sensor: Nr:Datum:Temp:Abs-Feuchte:Windchill:Wind:
Aussen-T/F 776 23-02-2010 01:04:08 11.8 C 5.47 g/m*3 11.8 C 0 km/h
777 23-02-2010 01:16:08 11.5 C 5.58 g/m*3 11.5 C 0 km/h
778 23-02-2010 01:28:08 11.4 C 5.75 g/m*3 11.4 C 0 km/h
779 23-02-2010 01:40:08 11.4 C 5.75 g/m*3 11.4 C 0 km/h
780 23-02-2010 01:52:08 11.4 C 5.85 g/m*3 11.4 C 0 km/h
781 23-02-2010 02:04:08 11.2 C 5.78 g/m*3 11.2 C 0 km/h
782 23-02-2010 02:16:08 11.2 C 5.88 g/m*3 11.2 C 0 km/h
783 23-02-2010 02:28:08 10.6 C 6.25 g/m*3 10.6 C 0 km/h
784 23-02-2010 02:40:08 10.4 C 6.46 g/m*3 10.4 C 0 km/h
785 23-02-2010 02:52:08 9.6 C 6.78 g/m*3 9.6 C 0 km/h
786 23-02-2010 03:04:09 9.3 C 6.83 g/m*3 9.3 C 0 km/h
787 23-02-2010 03:16:09 9.2 C 6.97 g/m*3 9.2 C 0 km/h
788 23-02-2010 03:28:09 9.1 C 6.92 g/m*3 9.1 C 0 km/h
789 23-02-2010 03:40:09 9.1 C 7.01 g/m*3 9.1 C 0 km/h
790 23-02-2010 03:52:09 8.9 C 7.1 g/m*3 8.9 C 0 km/h
791 23-02-2010 04:04:09 8.6 C 7.13 g/m*3 8.6 C 0 km/h
792 23-02-2010 04:16:09 8.6 C 7.22 g/m*3 8.6 C 0 km/h
793 23-02-2010 04:28:09 8.5 C 7.17 g/m*3 8.5 C 0 km/h
794 23-02-2010 04:40:09 8.6 C 7.22 g/m*3 8.6 C 0 km/h
795 23-02-2010 04:52:09 8.5 C 7.17 g/m*3 8.5 C 0 km/h
796 23-02-2010 05:04:09 8.4 C 7.04 g/m*3 8.4 C 0 km/h
797 23-02-2010 05:16:09 8.5 C 7.17 g/m*3 8.5 C 0 km/h
798 23-02-2010 05:28:09 8.3 C 7.08 g/m*3 8.3 C 0 km/h
799 23-02-2010 05:40:09 8.5 C 7.17 g/m*3 8.5 C 0 km/h
800 23-02-2010 05:52:09 8.5 C 7.09 g/m*3 8.5 C 0 km/h
Sensor: Nr:Datum:Temp:Abs-Feuchte:Windchill:Wind:
Aussen-T/F 801 23-02-2010 06:04:09 8.5 C 7.09 g/m*3 8.5 C 0 km/h
802 23-02-2010 06:16:09 8.5 C 7.09 g/m*3 8.5 C 0 km/h
803 23-02-2010 06:28:09 8.5 C 7.09 g/m*3 8.5 C 0 km/h
804 23-02-2010 06:40:09 8.5 C 7.09 g/m*3 8.5 C 0 km/h
805 23-02-2010 06:52:09 8.5 C 7.09 g/m*3 8.5 C 0 km/h
806 23-02-2010 07:04:09 8.4 C 7.04 g/m*3 8.4 C 0 km/h
807 23-02-2010 07:16:08 8.2 C 6.95 g/m*3 8.2 C 0 km/h
808 23-02-2010 07:28:08 8.1 C 6.99 g/m*3 8.1 C 0 km/h
809 23-02-2010 07:40:08 8.2 C 7.03 g/m*3 8.2 C 0 km/h
810 23-02-2010 07:52:01 8.2 C 7.03 g/m*3 8.2 C 0 km/h
811 23-02-2010 08:04:02 8.3 C 7.16 g/m*3 8.3 C 0 km/h
812 23-02-2010 08:16:01 8.5 C 7.26 g/m*3 8.5 C 0 km/h
813 23-02-2010 08:28:01 8.6 C 7.22 g/m*3 8.6 C 0 km/h
814 23-02-2010 08:40:02 8.8 C 7.31 g/m*3 8.8 C 0 km/h
815 23-02-2010 08:52:02 8.9 C 7.27 g/m*3 8.9 C 0 km/h
816 23-02-2010 09:04:02 9 C 7.23 g/m*3 9 C 0 km/h
817 23-02-2010 09:16:01 9.1 C 7.28 g/m*3 9.1 C 0 km/h
818 23-02-2010 09:28:01 9.1 C 7.1 g/m*3 9.1 C 0 km/h
819 23-02-2010 09:40:02 9.1 C 7.01 g/m*3 9.1 C 0 km/h
820 23-02-2010 09:52:02 9.3 C 7.19 g/m*3 9.3 C 0 km/h
821 23-02-2010 10:04:02 9.7 C 7.19 g/m*3 9.7 C 0 km/h
822 23-02-2010 10:16:01 10.4 C 7.04 g/m*3 10.4 C 0 km/h
823 23-02-2010 10:28:01 10.7 C 6.88 g/m*3 10.7 C 0 km/h
824 23-02-2010 10:40:02 10.6 C 6.83 g/m*3 10.6 C 0 km/h
825 23-02-2010 10:52:01 10.6 C 6.73 g/m*3 10.6 C 0 km/h
Sensor: Nr:Datum:Temp:Abs-Feuchte:Windchill:Wind:
Aussen-T/F 826 23-02-2010 11:04:02 10.8 C 6.92 g/m*3 10.8 C 0 km/h
827 23-02-2010 11:16:02 11 C 6.81 g/m*3 11 C 0 km/h
828 23-02-2010 11:28:02 11.2 C 6.69 g/m*3 11.2 C 0 km/h
829 23-02-2010 11:40:02 11.4 C 6.57 g/m*3 11.4 C 0 km/h
830 23-02-2010 11:52:01 11.6 C 6.55 g/m*3 11.6 C 0 km/h
831 23-02-2010 12:04:02 11.2 C 6.49 g/m*3 11.2 C 0 km/h
832 23-02-2010 12:16:02 10.9 C 6.66 g/m*3 10.9 C 0 km/h
833 23-02-2010 12:28:02 10.3 C 6.9 g/m*3 10.3 C 0 km/h
834 23-02-2010 12:40:01 10.5 C 7.27 g/m*3 10.5 C 0 km/h
835 23-02-2010 12:52:02 10.4 C 7.13 g/m*3 10.4 C 0 km/h
836 23-02-2010 13:04:01 10.3 C 7.18 g/m*3 10.3 C 0 km/h
837 23-02-2010 13:16:02 10.4 C 7.32 g/m*3 10.4 C 0 km/h
838 23-02-2010 13:28:02 10.5 C 7.37 g/m*3 10.5 C 0 km/h
839 23-02-2010 13:40:01 10.3 C 7.47 g/m*3 10.3 C 0 km/h
840 23-02-2010 13:52:02 10.6 C 7.71 g/m*3 10.6 C 0 km/h
841 23-02-2010 14:04:02 10.9 C 7.76 g/m*3 10.9 C 0 km/h
842 23-02-2010 14:16:02 11 C 7.81 g/m*3 11 C 0 km/h
843 23-02-2010 14:28:02 10.8 C 7.71 g/m*3 10.8 C 0 km/h
844 23-02-2010 14:40:03 10.9 C 7.76 g/m*3 10.9 C 0 km/h
845 23-02-2010 14:52:02 11 C 7.61 g/m*3 11 C 0 km/h
846 23-02-2010 15:04:01 11 C 7.71 g/m*3 11 C 0 km/h
847 23-02-2010 15:16:02 11 C 7.71 g/m*3 11 C 0 km/h
848 23-02-2010 15:28:02 11 C 7.81 g/m*3 11 C 0 km/h
849 23-02-2010 15:40:02 11.1 C 7.66 g/m*3 11.1 C 0 km/h
850 23-02-2010 15:52:02 11 C 7.51 g/m*3 11 C 0 km/h
Sensor: Nr:Datum:Temp:Abs-Feuchte:Windchill:Wind:
Aussen-T/F 851 23-02-2010 16:04:03 10.7 C 7.46 g/m*3 10.7 C 0 km/h
852 23-02-2010 16:16:02 10.5 C 7.47 g/m*3 10.5 C 0 km/h
853 23-02-2010 16:28:02 10.6 C 7.52 g/m*3 10.6 C 0 km/h
854 23-02-2010 16:40:02 10.6 C 7.52 g/m*3 10.6 C 0 km/h
855 23-02-2010 16:52:01 10.4 C 7.32 g/m*3 10.4 C 0 km/h
856 23-02-2010 17:04:02 10.4 C 7.32 g/m*3 10.4 C 0 km/h
857 23-02-2010 17:16:01 10.2 C 7.23 g/m*3 10.2 C 0 km/h
858 23-02-2010 17:28:01 10.1 C 7.09 g/m*3 10.1 C 0 km/h
859 23-02-2010 17:40:02 10.1 C 7.19 g/m*3 10.1 C 0 km/h
860 23-02-2010 17:52:01 10 C 7.14 g/m*3 10 C 0 km/h
861 23-02-2010 18:04:02 9.8 C 7.24 g/m*3 9.8 C 0 km/h
862 23-02-2010 18:16:01 9.6 C 7.33 g/m*3 9.6 C 0 km/h
863 23-02-2010 18:28:01 9.6 C 7.33 g/m*3 9.6 C 0 km/h
864 23-02-2010 18:40:02 9.5 C 7.37 g/m*3 9.5 C 0 km/h
865 23-02-2010 18:52:01 9.5 C 7.46 g/m*3 9.5 C 0 km/h
866 23-02-2010 19:04:02 9.2 C 7.41 g/m*3 9.2 C 0 km/h
867 23-02-2010 19:16:02 9.1 C 7.45 g/m*3 9.1 C 0 km/h
868 23-02-2010 19:28:02 9.2 C 7.59 g/m*3 9.2 C 0 km/h
869 23-02-2010 19:40:02 9.2 C 7.68 g/m*3 9.2 C 0 km/h
870 23-02-2010 19:52:02 9.2 C 7.68 g/m*3 9.2 C 0 km/h
871 23-02-2010 20:04:02 9 C 7.67 g/m*3 9 C 0 km/h
872 23-02-2010 20:16:02 9.1 C 7.81 g/m*3 9.1 C 0 km/h
873 23-02-2010 20:28:02 9 C 7.76 g/m*3 9 C 0 km/h
874 23-02-2010 20:40:02 9 C 7.76 g/m*3 9 C 0 km/h
875 23-02-2010 20:52:01 9.2 C 7.86 g/m*3 9.2 C 0 km/h
Sensor: Nr:Datum:Temp:Abs-Feuchte:Windchill:Wind:
Aussen-T/F 876 23-02-2010 21:04:02 9.3 C 7.91 g/m*3 9.3 C 0 km/h
877 23-02-2010 21:16:01 9.4 C 7.78 g/m*3 9.4 C 0 km/h
878 23-02-2010 21:28:01 9.6 C 7.6 g/m*3 9.6 C 0 km/h
879 23-02-2010 21:40:02 9.6 C 7.33 g/m*3 9.6 C 0 km/h
880 23-02-2010 21:52:02 9.5 C 7.1 g/m*3 9.5 C 0 km/h
881 23-02-2010 22:04:02 9.3 C 6.92 g/m*3 9.3 C 0 km/h
882 23-02-2010 22:16:02 9.3 C 6.92 g/m*3 9.3 C 0 km/h
883 23-02-2010 22:28:02 9.3 C 6.74 g/m*3 9.3 C 0 km/h
884 23-02-2010 22:40:02 8.9 C 6.75 g/m*3 8.9 C 0 km/h
885 23-02-2010 22:52:01 8.7 C 6.75 g/m*3 8.7 C 0 km/h
886 23-02-2010 23:04:02 8.5 C 6.66 g/m*3 8.5 C 0 km/h
887 23-02-2010 23:16:02 8.5 C 6.66 g/m*3 8.5 C 0 km/h
888 23-02-2010 23:28:02 8.2 C 6.62 g/m*3 8.2 C 0 km/h
889 23-02-2010 23:40:01 8.2 C 6.7 g/m*3 8.2 C 0 km/h
890 23-02-2010 23:52:02 8.2 C 6.7 g/m*3 8.2 C 0 km/h
891 24-02-2010 00:04:01 8.1 C 6.66 g/m*3 8.1 C 0 km/h
892 24-02-2010 00:16:02 7.9 C 6.74 g/m*3 7.9 C 0 km/h
893 24-02-2010 00:28:02 7.9 C 6.82 g/m*3 7.9 C 0 km/h
894 24-02-2010 00:40:01 7.8 C 6.77 g/m*3 7.8 C 0 km/h
895 24-02-2010 00:52:02 7.5 C 6.64 g/m*3 7.5 C 0 km/h
896 24-02-2010 01:04:01 7.3 C 6.64 g/m*3 7.3 C 0 km/h
897 24-02-2010 01:16:02 7.5 C 6.8 g/m*3 7.5 C 0 km/h
898 24-02-2010 01:28:02 8.1 C 6.99 g/m*3 8.1 C 0 km/h
899 24-02-2010 01:40:01 8.7 C 6.92 g/m*3 8.7 C 0 km/h
900 24-02-2010 01:52:02 8.6 C 6.7 g/m*3 8.6 C 0 km/h
Sensor: Nr:Datum:Temp:Abs-Feuchte:Windchill:Wind:
Aussen-T/F 901 24-02-2010 02:04:02 8.3 C 6.57 g/m*3 8.3 C 0 km/h
902 24-02-2010 02:16:02 8.1 C 6.57 g/m*3 8.1 C 0 km/h
903 24-02-2010 02:28:02 7.9 C 6.74 g/m*3 7.9 C 0 km/h
904 24-02-2010 02:40:02 7.9 C 6.82 g/m*3 7.9 C 0 km/h
905 24-02-2010 02:52:01 7.8 C 6.77 g/m*3 7.8 C 0 km/h
906 24-02-2010 03:04:01 7.7 C 6.73 g/m*3 7.7 C 0 km/h
907 24-02-2010 03:16:01 7.9 C 6.9 g/m*3 7.9 C 0 km/h
908 24-02-2010 03:28:01 8 C 6.86 g/m*3 8 C 0 km/h
909 24-02-2010 03:40:02 8 C 6.78 g/m*3 8 C 0 km/h
910 24-02-2010 03:52:02 8 C 6.78 g/m*3 8 C 0 km/h
911 24-02-2010 04:04:01 8 C 6.78 g/m*3 8 C 0 km/h
912 24-02-2010 04:16:02 8 C 6.86 g/m*3 8 C 0 km/h
913 24-02-2010 04:28:02 8 C 6.86 g/m*3 8 C 0 km/h
914 24-02-2010 04:40:01 8 C 6.86 g/m*3 8 C 0 km/h
915 24-02-2010 04:52:02 8.1 C 6.91 g/m*3 8.1 C 0 km/h
916 24-02-2010 05:04:01 8.3 C 7 g/m*3 8.3 C 0 km/h
917 24-02-2010 05:16:01 8.4 C 6.96 g/m*3 8.4 C 0 km/h
918 24-02-2010 05:28:01 8.2 C 6.78 g/m*3 8.2 C 0 km/h
919 24-02-2010 05:40:01 8.3 C 6.83 g/m*3 8.3 C 0 km/h
920 24-02-2010 05:52:02 8.4 C 6.79 g/m*3 8.4 C 0 km/h
921 24-02-2010 06:04:01 8.2 C 6.62 g/m*3 8.2 C 0 km/h
922 24-02-2010 06:16:01 7.9 C 6.65 g/m*3 7.9 C 0 km/h
923 24-02-2010 06:28:01 7.8 C 6.61 g/m*3 7.8 C 0 km/h
924 24-02-2010 06:40:02 7.6 C 6.53 g/m*3 7.6 C 0 km/h
925 24-02-2010 06:52:01 7.3 C 6.4 g/m*3 7.3 C 0 km/h
Sensor: Nr:Datum:Temp:Abs-Feuchte:Windchill:Wind:
Aussen-T/F 926 24-02-2010 07:04:01 7.3 C 6.56 g/m*3 7.3 C 0 km/h
927 24-02-2010 07:16:01 7.4 C 6.6 g/m*3 7.4 C 0 km/h
928 24-02-2010 07:28:01 7.5 C 6.64 g/m*3 7.5 C 0 km/h
929 24-02-2010 07:40:02 7.5 C 6.56 g/m*3 7.5 C 0 km/h
930 24-02-2010 07:52:01 7.4 C 6.6 g/m*3 7.4 C 0 km/h
931 24-02-2010 08:04:02 7.5 C 6.64 g/m*3 7.5 C 0 km/h
932 24-02-2010 08:16:01 7.5 C 6.56 g/m*3 7.5 C 0 km/h
933 24-02-2010 08:28:01 7.9 C 6.82 g/m*3 7.9 C 0 km/h
934 24-02-2010 08:40:02 8.1 C 6.74 g/m*3 8.1 C 0 km/h
935 24-02-2010 08:52:01 8.5 C 6.92 g/m*3 8.5 C 0 km/h
936 24-02-2010 09:04:02 8.6 C 6.79 g/m*3 8.6 C 0 km/h
937 24-02-2010 09:16:01 8.9 C 6.83 g/m*3 8.9 C 0 km/h
938 24-02-2010 09:28:01 9.1 C 6.65 g/m*3 9.1 C 0 km/h
939 24-02-2010 09:40:01 9.2 C 6.52 g/m*3 9.2 C 0 km/h
940 24-02-2010 09:52:01 9.4 C 6.51 g/m*3 9.4 C 0 km/h
941 24-02-2010 10:04:02 9.7 C 6.55 g/m*3 9.7 C 0 km/h
942 24-02-2010 10:16:01 10 C 6.39 g/m*3 10 C 0 km/h
943 24-02-2010 10:28:01 10.2 C 6.28 g/m*3 10.2 C 0 km/h
944 24-02-2010 10:40:01 10.4 C 6.26 g/m*3 10.4 C 0 km/h
945 24-02-2010 10:52:01 10.9 C 6.17 g/m*3 10.9 C 0 km/h
946 24-02-2010 11:04:01 10.9 C 5.97 g/m*3 10.9 C 0 km/h
947 24-02-2010 11:16:02 11.1 C 5.74 g/m*3 11.1 C 0 km/h
948 24-02-2010 11:28:02 11.2 C 5.68 g/m*3 11.2 C 0 km/h
949 24-02-2010 11:40:01 11.2 C 5.57 g/m*3 11.2 C 0 km/h
950 24-02-2010 11:52:01 11.3 C 5.61 g/m*3 11.3 C 0 km/h
Sensor: Nr:Datum:Temp:Abs-Feuchte:Windchill:Wind:
Aussen-T/F 951 24-02-2010 12:04:01 11.1 C 5.64 g/m*3 11.1 C 0 km/h
952 24-02-2010 12:16:02 11.2 C 5.57 g/m*3 11.2 C 0 km/h
953 24-02-2010 12:28:02 11.6 C 5.72 g/m*3 11.6 C 0 km/h
954 24-02-2010 12:40:01 11.8 C 5.58 g/m*3 11.8 C 0 km/h
955 24-02-2010 12:52:02 12 C 5.54 g/m*3 12 C 0 km/h
956 24-02-2010 13:04:01 12 C 5.54 g/m*3 12 C 0 km/h
957 24-02-2010 13:16:02 11.8 C 5.58 g/m*3 11.8 C 0 km/h
958 24-02-2010 13:28:02 12 C 5.44 g/m*3 12 C 0 km/h
959 24-02-2010 13:40:01 12.2 C 5.61 g/m*3 12.2 C 0 km/h
960 24-02-2010 13:52:02 12.4 C 5.35 g/m*3 12.4 C 0 km/h
961 24-02-2010 14:04:01 12.3 C 5.32 g/m*3 12.3 C 0 km/h
962 24-02-2010 14:16:01 12.6 C 5.53 g/m*3 12.6 C 0 km/h
963 24-02-2010 14:28:01 12.7 C 5.45 g/m*3 12.7 C 0 km/h
964 24-02-2010 14:40:01 12.8 C 5.38 g/m*3 12.8 C 0 km/h
965 24-02-2010 14:52:02 13.1 C 5.36 g/m*3 13.1 C 0 km/h
966 24-02-2010 15:04:01 13.2 C 5.4 g/m*3 13.2 C 0 km/h
967 24-02-2010 15:16:01 13.1 C 5.36 g/m*3 13.1 C 0 km/h
968 24-02-2010 15:28:01 13.2 C 5.4 g/m*3 13.2 C 0 km/h
969 24-02-2010 15:40:02 13.7 C 5.45 g/m*3 13.7 C 0 km/h
970 24-02-2010 15:52:01 14.1 C 5.46 g/m*3 14.1 C 0 km/h
971 24-02-2010 16:04:01 15.2 C 5.58 g/m*3 15.2 C 0 km/h
972 24-02-2010 16:16:01 14.4 C 5.19 g/m*3 14.4 C 0 km/h
973 24-02-2010 16:28:01 14 C 5.43 g/m*3 14 C 0 km/h
974 24-02-2010 16:40:02 14.4 C 5.32 g/m*3 14.4 C 0 km/h
975 24-02-2010 16:52:01 14.2 C 5.13 g/m*3 14.2 C 0 km/h
Sensor: Nr:Datum:Temp:Abs-Feuchte:Windchill:Wind:
Aussen-T/F 976 24-02-2010 17:04:02 13.6 C 5.3 g/m*3 13.6 C 0 km/h
977 24-02-2010 17:16:01 12.8 C 5.38 g/m*3 12.8 C 0 km/h
978 24-02-2010 17:28:01 11.8 C 5.68 g/m*3 11.8 C 0 km/h
979 24-02-2010 17:40:02 11.2 C 5.68 g/m*3 11.2 C 0 km/h
980 24-02-2010 17:52:01 10.7 C 5.8 g/m*3 10.7 C 0 km/h
981 24-02-2010 18:04:02 10.2 C 5.8 g/m*3 10.2 C 0 km/h
982 24-02-2010 18:16:01 9.8 C 5.85 g/m*3 9.8 C 0 km/h
983 24-02-2010 18:28:02 9.7 C 5.9 g/m*3 9.7 C 0 km/h
984 24-02-2010 18:40:01 9.6 C 5.95 g/m*3 9.6 C 0 km/h
985 24-02-2010 18:52:01 9.6 C 6.05 g/m*3 9.6 C 0 km/h
986 24-02-2010 19:04:01 9.7 C 6.18 g/m*3 9.7 C 0 km/h
987 24-02-2010 19:16:01 9.5 C 6.55 g/m*3 9.5 C 0 km/h
988 24-02-2010 19:28:01 8.8 C 6.7 g/m*3 8.8 C 0 km/h
989 24-02-2010 19:40:01 8.5 C 6.92 g/m*3 8.5 C 0 km/h
990 24-02-2010 19:52:01 8.5 C 7.09 g/m*3 8.5 C 0 km/h
991 24-02-2010 20:04:01 8.4 C 7.13 g/m*3 8.4 C 0 km/h
992 24-02-2010 20:16:02 8.3 C 7.16 g/m*3 8.3 C 0 km/h
993 24-02-2010 20:28:02 8.4 C 7.3 g/m*3 8.4 C 0 km/h
994 24-02-2010 20:40:01 8.3 C 7.33 g/m*3 8.3 C 0 km/h
995 24-02-2010 20:52:01 8.5 C 7.43 g/m*3 8.5 C 0 km/h
996 24-02-2010 21:04:01 8.5 C 7.51 g/m*3 8.5 C 0 km/h
997 24-02-2010 21:16:02 8.4 C 7.38 g/m*3 8.4 C 0 km/h
998 24-02-2010 21:28:02 7.9 C 7.23 g/m*3 7.9 C 0 km/h
999 24-02-2010 21:40:01 7.8 C 7.18 g/m*3 7.8 C 0 km/h
1000 24-02-2010 21:52:02 7.6 C 7.09 g/m*3 7.6 C 0 km/h
Sensor: Nr:Datum:Temp:Abs-Feuchte:Windchill:Wind:
Aussen-T/F 1001 24-02-2010 22:04:01 7.5 C 6.96 g/m*3 7.5 C 0 km/h
1002 24-02-2010 22:16:02 7.6 C 7.01 g/m*3 7.6 C 0 km/h
1003 24-02-2010 22:28:02 7.7 C 7.05 g/m*3 7.7 C 0 km/h
1004 24-02-2010 22:40:01 8 C 7.03 g/m*3 8 C 0 km/h
1005 24-02-2010 22:52:02 8.1 C 6.82 g/m*3 8.1 C 0 km/h
1006 24-02-2010 23:04:01 8.2 C 6.7 g/m*3 8.2 C 0 km/h
1007 24-02-2010 23:16:01 8.3 C 6.74 g/m*3 8.3 C 0 km/h
1008 24-02-2010 23:28:01 8.4 C 6.62 g/m*3 8.4 C 0 km/h
1009 24-02-2010 23:40:01 8.4 C 6.53 g/m*3 8.4 C 0 km/h
1010 24-02-2010 23:52:02 8.4 C 6.45 g/m*3 8.4 C 0 km/h
1011 25-02-2010 00:04:01 8.7 C 6.49 g/m*3 8.7 C 0 km/h
1012 25-02-2010 00:16:02 8.7 C 6.4 g/m*3 8.7 C 0 km/h
1013 25-02-2010 00:28:02 8.6 C 6.36 g/m*3 8.6 C 0 km/h
1014 25-02-2010 00:40:01 8.4 C 6.28 g/m*3 8.4 C 0 km/h
1015 25-02-2010 00:52:02 8.1 C 6.24 g/m*3 8.1 C 0 km/h
1016 25-02-2010 01:04:01 8.1 C 6.41 g/m*3 8.1 C 0 km/h
1017 25-02-2010 01:16:01 8.4 C 6.36 g/m*3 8.4 C 0 km/h
1018 25-02-2010 01:28:01 8.5 C 6.23 g/m*3 8.5 C 0 km/h
1019 25-02-2010 01:40:02 8.6 C 6.19 g/m*3 8.6 C 0 km/h
1020 25-02-2010 01:52:01 8.6 C 6.19 g/m*3 8.6 C 0 km/h
1021 25-02-2010 02:04:01 8.4 C 6.11 g/m*3 8.4 C 0 km/h
1022 25-02-2010 02:16:01 8 C 6.12 g/m*3 8 C 0 km/h
1023 25-02-2010 02:28:01 7.9 C 6.32 g/m*3 7.9 C 0 km/h
1024 25-02-2010 02:40:02 7.9 C 6.41 g/m*3 7.9 C 0 km/h
1025 25-02-2010 02:52:01 7.8 C 6.28 g/m*3 7.8 C 0 km/h
Sensor: Nr:Datum:Temp:Abs-Feuchte:Windchill:Wind:
Aussen-T/F 1026 25-02-2010 03:04:01 7.7 C 6.32 g/m*3 7.7 C 0 km/h
1027 25-02-2010 03:16:02 7.5 C 6.48 g/m*3 7.5 C 0 km/h
1028 25-02-2010 03:28:02 7.4 C 6.6 g/m*3 7.4 C 0 km/h
1029 25-02-2010 03:40:02 7.3 C 6.56 g/m*3 7.3 C 0 km/h
1030 25-02-2010 03:52:02 7.3 C 6.56 g/m*3 7.3 C 0 km/h
1031 25-02-2010 04:04:01 7.2 C 6.52 g/m*3 7.2 C 0 km/h
1032 25-02-2010 04:16:01 7.2 C 6.52 g/m*3 7.2 C 0 km/h
1033 25-02-2010 04:28:01 7.2 C 6.52 g/m*3 7.2 C 0 km/h
1034 25-02-2010 04:40:02 7.1 C 6.47 g/m*3 7.1 C 0 km/h
1035 25-02-2010 04:52:01 7.1 C 6.55 g/m*3 7.1 C 0 km/h
1036 25-02-2010 05:04:02 7.3 C 6.56 g/m*3 7.3 C 0 km/h
1037 25-02-2010 05:16:01 7.2 C 6.52 g/m*3 7.2 C 0 km/h
1038 25-02-2010 05:28:01 7.4 C 6.6 g/m*3 7.4 C 0 km/h
1039 25-02-2010 05:40:02 7.6 C 6.53 g/m*3 7.6 C 0 km/h
1040 25-02-2010 05:52:01 7.9 C 6.32 g/m*3 7.9 C 0 km/h
1041 25-02-2010 06:04:02 8.1 C 6.07 g/m*3 8.1 C 0 km/h
1042 25-02-2010 06:16:01 8.3 C 5.98 g/m*3 8.3 C 0 km/h
1043 25-02-2010 06:28:01 8.5 C 5.89 g/m*3 8.5 C 0 km/h
1044 25-02-2010 06:40:02 8.6 C 5.84 g/m*3 8.6 C 0 km/h
1045 25-02-2010 06:52:02 8.7 C 5.79 g/m*3 8.7 C 0 km/h
1046 25-02-2010 07:04:01 8.7 C 5.79 g/m*3 8.7 C 0 km/h
1047 25-02-2010 07:16:01 8.8 C 5.74 g/m*3 8.8 C 0 km/h
1048 25-02-2010 07:28:01 8.8 C 5.83 g/m*3 8.8 C 0 km/h
1049 25-02-2010 07:40:01 8.7 C 5.88 g/m*3 8.7 C 0 km/h
1050 25-02-2010 07:52:02 8.6 C 5.93 g/m*3 8.6 C 0 km/h
Sensor: Nr:Datum:Temp:Abs-Feuchte:Windchill:Wind:
Aussen-T/F 1051 25-02-2010 08:04:01 8.4 C 6.02 g/m*3 8.4 C 0 km/h
1052 25-02-2010 08:16:01 8.6 C 5.93 g/m*3 8.6 C 0 km/h
1053 25-02-2010 08:28:01 8.9 C 5.78 g/m*3 8.9 C 0 km/h
1054 25-02-2010 08:40:02 9 C 5.64 g/m*3 9 C 0 km/h
1055 25-02-2010 08:52:01 9.1 C 5.68 g/m*3 9.1 C 0 km/h
1056 25-02-2010 09:04:02 9.3 C 5.66 g/m*3 9.3 C 0 km/h
1057 25-02-2010 09:16:01 9.5 C 5.64 g/m*3 9.5 C 0 km/h
1058 25-02-2010 09:28:01 9.6 C 5.5 g/m*3 9.6 C 0 km/h
1059 25-02-2010 09:40:02 9.6 C 5.59 g/m*3 9.6 C 0 km/h
1060 25-02-2010 09:52:01 9.9 C 5.6 g/m*3 9.9 C 0 km/h
1061 25-02-2010 10:04:02 9.9 C 5.51 g/m*3 9.9 C 0 km/h
1062 25-02-2010 10:16:01 9.9 C 5.6 g/m*3 9.9 C 0 km/h
1063 25-02-2010 10:28:01 10.2 C 5.42 g/m*3 10.2 C 0 km/h
1064 25-02-2010 10:40:02 10.6 C 5.37 g/m*3 10.6 C 0 km/h
1065 25-02-2010 10:52:01 10.7 C 5.21 g/m*3 10.7 C 0 km/h
1066 25-02-2010 11:04:01 10.6 C 5.17 g/m*3 10.6 C 0 km/h
1067 25-02-2010 11:16:01 11.2 C 5.17 g/m*3 11.2 C 0 km/h
1068 25-02-2010 11:28:01 10.9 C 5.17 g/m*3 10.9 C 0 km/h
1069 25-02-2010 11:40:02 11.2 C 5.07 g/m*3 11.2 C 0 km/h
1070 25-02-2010 11:52:01 11.3 C 5.1 g/m*3 11.3 C 0 km/h
1071 25-02-2010 12:04:02 11.4 C 4.82 g/m*3 11.4 C 0 km/h
1072 25-02-2010 12:16:01 11.4 C 4.82 g/m*3 11.4 C 0 km/h
1073 25-02-2010 12:28:01 11.4 C 4.82 g/m*3 11.4 C 0 km/h
1074 25-02-2010 12:40:02 11.1 C 4.73 g/m*3 11.1 C 0 km/h
1075 25-02-2010 12:52:01 11.4 C 4.82 g/m*3 11.4 C 0 km/h
Sensor: Nr:Datum:Temp:Abs-Feuchte:Windchill:Wind:
Aussen-T/F 1076 25-02-2010 13:04:02 11.7 C 4.81 g/m*3 11.7 C 0 km/h
1077 25-02-2010 13:16:01 12.9 C 4.85 g/m*3 12.9 C 0 km/h
1078 25-02-2010 13:28:01 13 C 4.54 g/m*3 13 C 0 km/h
1079 25-02-2010 13:40:02 12.7 C 4.68 g/m*3 12.7 C 0 km/h
1080 25-02-2010 13:52:01 11.9 C 4.77 g/m*3 11.9 C 0 km/h
1081 25-02-2010 14:04:02 12.2 C 4.96 g/m*3 12.2 C 0 km/h
1082 25-02-2010 14:16:01 13 C 4.88 g/m*3 13 C 0 km/h
1083 25-02-2010 14:28:01 12.8 C 4.82 g/m*3 12.8 C 0 km/h
1084 25-02-2010 14:40:01 12.4 C 4.7 g/m*3 12.4 C 0 km/h
1085 25-02-2010 14:52:01 12.6 C 4.87 g/m*3 12.6 C 0 km/h
1086 25-02-2010 15:04:02 12.7 C 4.68 g/m*3 12.7 C 0 km/h
1087 25-02-2010 15:16:01 12.8 C 4.59 g/m*3 12.8 C 0 km/h
1088 25-02-2010 15:28:01 12.5 C 4.4 g/m*3 12.5 C 0 km/h
1089 25-02-2010 15:40:01 12.5 C 4.4 g/m*3 12.5 C 0 km/h
1090 25-02-2010 15:52:01 12.3 C 4.34 g/m*3 12.3 C 0 km/h
1091 25-02-2010 16:04:01 12.2 C 4.32 g/m*3 12.2 C 0 km/h
1092 25-02-2010 16:16:02 12 C 4.26 g/m*3 12 C 0 km/h
1093 25-02-2010 16:28:02 11.8 C 4.53 g/m*3 11.8 C 0 km/h
1094 25-02-2010 16:40:01 11.6 C 4.68 g/m*3 11.6 C 0 km/h
1095 25-02-2010 16:52:01 11.5 C 4.75 g/m*3 11.5 C 0 km/h
1096 25-02-2010 17:04:01 11.2 C 5.07 g/m*3 11.2 C 0 km/h
1097 25-02-2010 17:16:01 11.2 C 4.97 g/m*3 11.2 C 0 km/h
1098 25-02-2010 17:28:01 11 C 4.8 g/m*3 11 C 0 km/h
1099 25-02-2010 17:40:01 11 C 4.8 g/m*3 11 C 0 km/h
1100 25-02-2010 17:52:01 10.9 C 4.87 g/m*3 10.9 C 0 km/h
Sensor: Nr:Datum:Temp:Abs-Feuchte:Windchill:Wind:
Aussen-T/F 1101 25-02-2010 18:04:02 10.5 C 5.14 g/m*3 10.5 C 0 km/h
1102 25-02-2010 18:16:01 9.7 C 5.35 g/m*3 9.7 C 0 km/h
1103 25-02-2010 18:28:01 9.3 C 5.93 g/m*3 9.3 C 0 km/h
1104 25-02-2010 18:40:02 8.9 C 6.22 g/m*3 8.9 C 0 km/h
1105 25-02-2010 18:52:02 8.8 C 6.53 g/m*3 8.8 C 0 km/h
1106 25-02-2010 19:04:01 8.5 C 6.57 g/m*3 8.5 C 0 km/h
1107 25-02-2010 19:16:01 8.6 C 6.79 g/m*3 8.6 C 0 km/h
1108 25-02-2010 19:28:01 8.5 C 6.83 g/m*3 8.5 C 0 km/h
1109 25-02-2010 19:40:02 8.4 C 6.87 g/m*3 8.4 C 0 km/h
1110 25-02-2010 19:52:01 8.5 C 6.83 g/m*3 8.5 C 0 km/h
1111 25-02-2010 20:04:02 8.6 C 6.79 g/m*3 8.6 C 0 km/h
1112 25-02-2010 20:16:01 8.6 C 6.7 g/m*3 8.6 C 0 km/h
1113 25-02-2010 20:28:01 8.6 C 6.7 g/m*3 8.6 C 0 km/h
1114 25-02-2010 20:40:02 8.7 C 6.66 g/m*3 8.7 C 0 km/h
1115 25-02-2010 20:52:01 8.8 C 6.61 g/m*3 8.8 C 0 km/h
1116 25-02-2010 21:04:02 8.9 C 6.66 g/m*3 8.9 C 0 km/h
1117 25-02-2010 21:16:01 9 C 6.52 g/m*3 9 C 0 km/h
1118 25-02-2010 21:28:01 9.2 C 6.61 g/m*3 9.2 C 0 km/h
1119 25-02-2010 21:40:02 9.2 C 6.52 g/m*3 9.2 C 0 km/h
1120 25-02-2010 21:52:01 9.2 C 6.52 g/m*3 9.2 C 0 km/h
1121 25-02-2010 22:04:01 9.1 C 6.57 g/m*3 9.1 C 0 km/h
1122 25-02-2010 22:16:01 9.1 C 6.65 g/m*3 9.1 C 0 km/h
1123 25-02-2010 22:28:01 9.2 C 6.61 g/m*3 9.2 C 0 km/h
1124 25-02-2010 22:40:01 9.3 C 6.65 g/m*3 9.3 C 0 km/h
1125 25-02-2010 22:52:02 9.2 C 6.61 g/m*3 9.2 C 0 km/h
Sensor: Nr:Datum:Temp:Abs-Feuchte:Windchill:Wind:
Aussen-T/F 1126 25-02-2010 23:04:01 9.2 C 6.7 g/m*3 9.2 C 0 km/h
1127 25-02-2010 23:16:01 9.5 C 6.83 g/m*3 9.5 C 0 km/h
1128 25-02-2010 23:28:01 9.4 C 6.78 g/m*3 9.4 C 0 km/h
1129 25-02-2010 23:40:02 9.3 C 6.74 g/m*3 9.3 C 0 km/h
1130 25-02-2010 23:52:01 9.4 C 6.78 g/m*3 9.4 C 0 km/h
1131 26-02-2010 00:04:02 9.3 C 6.83 g/m*3 9.3 C 0 km/h
1132 26-02-2010 00:16:01 9.4 C 6.87 g/m*3 9.4 C 0 km/h
1133 26-02-2010 00:28:01 9.4 C 6.87 g/m*3 9.4 C 0 km/h
1134 26-02-2010 00:40:02 9.3 C 6.83 g/m*3 9.3 C 0 km/h
1135 26-02-2010 00:52:01 9.3 C 6.92 g/m*3 9.3 C 0 km/h
1136 26-02-2010 01:04:02 9.4 C 6.96 g/m*3 9.4 C 0 km/h
1137 26-02-2010 01:16:01 9.5 C 7.01 g/m*3 9.5 C 0 km/h
1138 26-02-2010 01:28:01 9.4 C 6.96 g/m*3 9.4 C 0 km/h
1139 26-02-2010 01:40:01 9.6 C 7.05 g/m*3 9.6 C 0 km/h
1140 26-02-2010 01:52:01 9.6 C 6.96 g/m*3 9.6 C 0 km/h
1141 26-02-2010 02:04:01 9.8 C 7.05 g/m*3 9.8 C 0 km/h
1142 26-02-2010 02:16:01 9.8 C 7.05 g/m*3 9.8 C 0 km/h
1143 26-02-2010 02:28:01 9.7 C 7.01 g/m*3 9.7 C 0 km/h
1144 26-02-2010 02:40:01 9.8 C 7.05 g/m*3 9.8 C 0 km/h
1145 26-02-2010 02:53:06 9.8 C 7.05 g/m*3 9.8 C 0 km/h
1146 26-02-2010 03:05:06 9.8 C 7.05 g/m*3 9.8 C 0 km/h
1147 26-02-2010 03:17:06 10 C 6.95 g/m*3 10 C 0 km/h
1148 26-02-2010 03:29:06 9.9 C 7 g/m*3 9.9 C 0 km/h
1149 26-02-2010 03:41:02 9.9 C 6.91 g/m*3 9.9 C 0 km/h
1150 26-02-2010 03:53:02 9.7 C 6.82 g/m*3 9.7 C 0 km/h
Sensor: Nr:Datum:Temp:Abs-Feuchte:Windchill:Wind:
Aussen-T/F 1151 26-02-2010 04:05:03 9.5 C 6.83 g/m*3 9.5 C 0 km/h
1152 26-02-2010 04:17:02 9.5 C 6.83 g/m*3 9.5 C 0 km/h
1153 26-02-2010 04:29:02 9.5 C 6.83 g/m*3 9.5 C 0 km/h
1154 26-02-2010 04:41:02 9.7 C 6.73 g/m*3 9.7 C 0 km/h
1155 26-02-2010 04:53:01 9.5 C 6.64 g/m*3 9.5 C 0 km/h
1156 26-02-2010 05:05:02 9.4 C 6.51 g/m*3 9.4 C 0 km/h
1157 26-02-2010 05:17:01 9.4 C 6.42 g/m*3 9.4 C 0 km/h
1158 26-02-2010 05:29:01 9.6 C 6.32 g/m*3 9.6 C 0 km/h
1159 26-02-2010 05:41:02 9.2 C 6.34 g/m*3 9.2 C 0 km/h
1160 26-02-2010 05:53:01 9.1 C 6.3 g/m*3 9.1 C 0 km/h
1161 26-02-2010 06:05:02 8.8 C 6.27 g/m*3 8.8 C 0 km/h
1162 26-02-2010 06:17:01 9 C 6.26 g/m*3 9 C 0 km/h
1163 26-02-2010 06:29:01 9.1 C 6.21 g/m*3 9.1 C 0 km/h
1164 26-02-2010 06:41:02 9.2 C 6.07 g/m*3 9.2 C 0 km/h
1165 26-02-2010 06:53:01 9.4 C 6.15 g/m*3 9.4 C 0 km/h
1166 26-02-2010 07:05:02 9.1 C 6.03 g/m*3 9.1 C 0 km/h
1167 26-02-2010 07:17:02 8.9 C 6.31 g/m*3 8.9 C 0 km/h
1168 26-02-2010 07:29:02 9 C 6.26 g/m*3 9 C 0 km/h
1169 26-02-2010 07:41:02 9.2 C 6.07 g/m*3 9.2 C 0 km/h
1170 26-02-2010 07:53:02 9.5 C 5.92 g/m*3 9.5 C 0 km/h
1171 26-02-2010 08:05:02 9.6 C 5.77 g/m*3 9.6 C 0 km/h
1172 26-02-2010 08:17:02 9.6 C 5.68 g/m*3 9.6 C 0 km/h
1173 26-02-2010 08:29:02 9.8 C 5.57 g/m*3 9.8 C 0 km/h
1174 26-02-2010 08:41:02 9.7 C 5.72 g/m*3 9.7 C 0 km/h
1175 26-02-2010 08:53:02 9.8 C 5.66 g/m*3 9.8 C 0 km/h
Sensor: Nr:Datum:Temp:Abs-Feuchte:Windchill:Wind:
Aussen-T/F 1176 26-02-2010 09:05:02 10.2 C 5.52 g/m*3 10.2 C 0 km/h
1177 26-02-2010 09:17:02 10.2 C 5.42 g/m*3 10.2 C 0 km/h
1178 26-02-2010 09:29:02 10.1 C 5.58 g/m*3 10.1 C 0 km/h
1179 26-02-2010 09:41:02 10.1 C 5.39 g/m*3 10.1 C 0 km/h
1180 26-02-2010 09:53:02 10.5 C 5.33 g/m*3 10.5 C 0 km/h
1181 26-02-2010 10:05:02 9.8 C 5.66 g/m*3 9.8 C 0 km/h
1182 26-02-2010 10:17:02 9.5 C 5.92 g/m*3 9.5 C 0 km/h
1183 26-02-2010 10:29:02 9.9 C 5.88 g/m*3 9.9 C 0 km/h
1184 26-02-2010 10:41:02 10.1 C 5.48 g/m*3 10.1 C 0 km/h
1185 26-02-2010 10:53:02 10.3 C 5.36 g/m*3 10.3 C 0 km/h
1186 26-02-2010 11:05:02 10.6 C 5.47 g/m*3 10.6 C 0 km/h
1187 26-02-2010 11:17:03 10.8 C 5.34 g/m*3 10.8 C 0 km/h
1188 26-02-2010 11:29:03 11 C 5.2 g/m*3 11 C 0 km/h
1189 26-02-2010 11:41:02 11.2 C 5.17 g/m*3 11.2 C 0 km/h
1190 26-02-2010 11:53:02 10.2 C 5.52 g/m*3 10.2 C 0 km/h
1191 26-02-2010 12:05:02 9.7 C 5.72 g/m*3 9.7 C 0 km/h
1192 26-02-2010 12:17:02 10 C 5.64 g/m*3 10 C 0 km/h
1193 26-02-2010 12:29:02 10.8 C 5.73 g/m*3 10.8 C 0 km/h
1194 26-02-2010 12:41:02 10.8 C 5.44 g/m*3 10.8 C 0 km/h
1195 26-02-2010 12:53:02 10.3 C 5.84 g/m*3 10.3 C 0 km/h
1196 26-02-2010 13:05:02 10.4 C 5.78 g/m*3 10.4 C 0 km/h
1197 26-02-2010 13:17:03 10.7 C 5.6 g/m*3 10.7 C 0 km/h
1198 26-02-2010 13:29:03 11.4 C 5.44 g/m*3 11.4 C 0 km/h
1199 26-02-2010 13:41:02 11.1 C 5.24 g/m*3 11.1 C 0 km/h
1200 26-02-2010 13:53:01 10.9 C 5.07 g/m*3 10.9 C 0 km/h
Sensor: Nr:Datum:Temp:Abs-Feuchte:Windchill:Wind:
Aussen-T/F 1201 26-02-2010 14:05:01 11.1 C 5.34 g/m*3 11.1 C 0 km/h
1202 26-02-2010 14:17:02 10.8 C 5.14 g/m*3 10.8 C 0 km/h
1203 26-02-2010 14:29:02 10.6 C 5.17 g/m*3 10.6 C 0 km/h
1204 26-02-2010 14:41:02 10.1 C 5.01 g/m*3 10.1 C 0 km/h
1205 26-02-2010 14:53:03 9.4 C 5.25 g/m*3 9.4 C 0 km/h
1206 26-02-2010 15:05:03 9.2 C 5.36 g/m*3 9.2 C 0 km/h
1207 26-02-2010 15:17:02 8.9 C 5.26 g/m*3 8.9 C 0 km/h
1208 26-02-2010 15:29:03 8.7 C 5.28 g/m*3 8.7 C 0 km/h
1209 26-02-2010 15:41:02 8.4 C 5.34 g/m*3 8.4 C 0 km/h
1210 26-02-2010 15:53:02 8.3 C 4.89 g/m*3 8.3 C 0 km/h
1211 26-02-2010 16:05:02 8.2 C 4.69 g/m*3 8.2 C 0 km/h
1212 26-02-2010 16:17:02 8 C 4.3 g/m*3 8 C 0 km/h
1213 26-02-2010 16:29:02 7.9 C 4.19 g/m*3 7.9 C 0 km/h
1214 26-02-2010 16:41:04 7.9 C 4.02 g/m*3 7.9 C 0 km/h
1215 26-02-2010 16:53:02 7.9 C 4.11 g/m*3 7.9 C 0 km/h
1216 26-02-2010 17:05:01 8.1 C 4.08 g/m*3 8.1 C 0 km/h
1217 26-02-2010 17:17:02 8 C 4.05 g/m*3 8 C 0 km/h
1218 26-02-2010 17:29:02 7.9 C 4.11 g/m*3 7.9 C 0 km/h
1219 26-02-2010 17:41:02 7.8 C 4.16 g/m*3 7.8 C 0 km/h
1220 26-02-2010 17:53:02 7.7 C 4.22 g/m*3 7.7 C 0 km/h
1221 26-02-2010 18:05:02 7.6 C 4.27 g/m*3 7.6 C 0 km/h
1222 26-02-2010 18:17:01 7.3 C 4.42 g/m*3 7.3 C 0 km/h
1223 26-02-2010 18:29:01 6.6 C 4.76 g/m*3 6.6 C 0 km/h
1224 26-02-2010 18:41:02 6.3 C 4.44 g/m*3 6.3 C 0 km/h
1225 26-02-2010 18:53:02 6.3 C 4.22 g/m*3 6.3 C 0 km/h
Sensor: Nr:Datum:Temp:Abs-Feuchte:Windchill:Wind:
Aussen-T/F 1226 26-02-2010 19:05:02 6.5 C 4.2 g/m*3 6.5 C 0 km/h
1227 26-02-2010 19:17:02 6.3 C 4.29 g/m*3 6.3 C 0 km/h
1228 26-02-2010 19:29:02 5.8 C 4.3 g/m*3 5.8 C 0 km/h
1229 26-02-2010 19:41:04 5.8 C 4.01 g/m*3 5.8 C 0 km/h
1230 26-02-2010 19:53:04 5.8 C 3.94 g/m*3 5.8 C 0 km/h
1231 26-02-2010 20:05:02 5.9 C 4.04 g/m*3 5.9 C 0 km/h
1232 26-02-2010 20:17:02 6 C 4.14 g/m*3 6 C 0 km/h
1233 26-02-2010 20:29:02 5.9 C 4.18 g/m*3 5.9 C 0 km/h
1234 26-02-2010 20:41:03 6 C 3.92 g/m*3 6 C 0 km/h
1235 26-02-2010 20:53:02 5.9 C 3.89 g/m*3 5.9 C 0 km/h
1236 26-02-2010 21:05:02 5.8 C 3.94 g/m*3 5.8 C 0 km/h
1237 26-02-2010 21:17:03 5.6 C 4.03 g/m*3 5.6 C 0 km/h
1238 26-02-2010 21:29:03 5.5 C 4 g/m*3 5.5 C 0 km/h
1239 26-02-2010 21:41:02 5.6 C 3.89 g/m*3 5.6 C 0 km/h
1240 26-02-2010 21:53:03 5.7 C 3.91 g/m*3 5.7 C 0 km/h
1241 26-02-2010 22:05:02 5.5 C 3.86 g/m*3 5.5 C 0 km/h
1242 26-02-2010 22:17:03 5.4 C 3.84 g/m*3 5.4 C 0 km/h
1243 26-02-2010 22:29:03 5.3 C 3.81 g/m*3 5.3 C 0 km/h
1244 26-02-2010 22:42:04 5.2 C 3.65 g/m*3 5.2 C 0 km/h
1245 26-02-2010 22:54:04 5.1 C 3.69 g/m*3 5.1 C 0 km/h
1246 26-02-2010 23:06:04 5.1 C 3.63 g/m*3 5.1 C 0 km/h
1247 26-02-2010 23:18:04 5.1 C 3.63 g/m*3 5.1 C 0 km/h
1248 26-02-2010 23:30:04 4.9 C 3.71 g/m*3 4.9 C 0 km/h
1249 26-02-2010 23:42:04 4.7 C 3.66 g/m*3 4.7 C 0 km/h
1250 26-02-2010 23:54:05 4.7 C 3.6 g/m*3 4.7 C 0 km/h
Sensor: Nr:Datum:Temp:Abs-Feuchte:Windchill:Wind:
Aussen-T/F 1251 27-02-2010 00:06:05 4.5 C 3.62 g/m*3 4.5 C 0 km/h
1252 27-02-2010 00:18:05 4.4 C 3.59 g/m*3 4.4 C 0 km/h
1253 27-02-2010 00:30:05 4.4 C 3.59 g/m*3 4.4 C 0 km/h
1254 27-02-2010 00:42:05 4.3 C 3.57 g/m*3 4.3 C 0 km/h
1255 27-02-2010 00:54:05 4.1 C 3.58 g/m*3 4.1 C 0 km/h
1256 27-02-2010 01:06:05 3.8 C 3.64 g/m*3 3.8 C 0 km/h
1257 27-02-2010 01:18:05 3.9 C 3.73 g/m*3 3.9 C 0 km/h
1258 27-02-2010 01:30:05 4 C 3.62 g/m*3 4 C 0 km/h
1259 27-02-2010 01:42:05 4.1 C 3.58 g/m*3 4.1 C 0 km/h
1260 27-02-2010 01:54:05 3.7 C 3.68 g/m*3 3.7 C 0 km/h
1261 27-02-2010 02:06:05 3.2 C 3.74 g/m*3 3.2 C 0 km/h
1262 27-02-2010 02:18:05 2.8 C 3.75 g/m*3 2.8 C 0 km/h
1263 27-02-2010 02:30:05 3.1 C 3.77 g/m*3 3.1 C 0 km/h
1264 27-02-2010 02:42:05 3.1 C 3.77 g/m*3 3.1 C 0 km/h
1265 27-02-2010 02:54:05 3.2 C 3.74 g/m*3 3.2 C 0 km/h
1266 27-02-2010 03:06:05 3.3 C 3.76 g/m*3 3.3 C 0 km/h
1267 27-02-2010 03:18:05 3.5 C 3.69 g/m*3 3.5 C 0 km/h
1268 27-02-2010 03:30:05 3.7 C 3.74 g/m*3 3.7 C 0 km/h
1269 27-02-2010 03:42:05 3.6 C 3.78 g/m*3 3.6 C 0 km/h
1270 27-02-2010 03:54:05 3.5 C 3.81 g/m*3 3.5 C 0 km/h
1271 27-02-2010 04:06:06 3.4 C 3.79 g/m*3 3.4 C 0 km/h
1272 27-02-2010 04:18:06 3.3 C 3.88 g/m*3 3.3 C 0 km/h
1273 27-02-2010 04:30:06 3.4 C 3.97 g/m*3 3.4 C 0 km/h
1274 27-02-2010 04:42:06 3.6 C 4.09 g/m*3 3.6 C 0 km/h
1275 27-02-2010 04:54:06 4.1 C 4.16 g/m*3 4.1 C 0 km/h
Sensor: Nr:Datum:Temp:Abs-Feuchte:Windchill:Wind:
Aussen-T/F 1276 27-02-2010 05:06:06 4 C 4.07 g/m*3 4 C 0 km/h
1277 27-02-2010 05:18:06 3.9 C 4.17 g/m*3 3.9 C 0 km/h
1278 27-02-2010 05:30:06 3.9 C 4.23 g/m*3 3.9 C 0 km/h
1279 27-02-2010 05:42:06 3.8 C 4.2 g/m*3 3.8 C 0 km/h
1280 27-02-2010 05:54:06 3.6 C 4.21 g/m*3 3.6 C 0 km/h
1281 27-02-2010 06:06:06 4 C 4.26 g/m*3 4 C 0 km/h
1282 27-02-2010 06:18:06 4.3 C 4.28 g/m*3 4.3 C 0 km/h
1283 27-02-2010 06:30:06 4.3 C 4.22 g/m*3 4.3 C 0 km/h
1284 27-02-2010 06:42:06 4.4 C 4.31 g/m*3 4.4 C 0 km/h
1285 27-02-2010 06:54:06 4.6 C 4.37 g/m*3 4.6 C 0 km/h
1286 27-02-2010 07:06:06 4.4 C 4.31 g/m*3 4.4 C 0 km/h
1287 27-02-2010 07:18:06 4.7 C 4.46 g/m*3 4.7 C 0 km/h
1288 27-02-2010 07:30:06 4.8 C 4.49 g/m*3 4.8 C 0 km/h
1289 27-02-2010 07:42:06 5.2 C 4.54 g/m*3 5.2 C 0 km/h
1290 27-02-2010 07:54:06 5.3 C 4.57 g/m*3 5.3 C 0 km/h
1291 27-02-2010 08:06:07 5.4 C 4.6 g/m*3 5.4 C 0 km/h
1292 27-02-2010 08:18:07 5.6 C 4.67 g/m*3 5.6 C 0 km/h
1293 27-02-2010 08:30:07 5.8 C 4.66 g/m*3 5.8 C 0 km/h
1294 27-02-2010 08:42:03 6.4 C 4.62 g/m*3 6.4 C 0 km/h
1295 27-02-2010 08:54:01 6.5 C 4.57 g/m*3 6.5 C 0 km/h
1296 27-02-2010 09:06:02 6.6 C 4.6 g/m*3 6.6 C 0 km/h
1297 27-02-2010 09:18:02 6.8 C 4.59 g/m*3 6.8 C 0 km/h
1298 27-02-2010 09:30:02 7 C 4.49 g/m*3 7 C 0 km/h
1299 27-02-2010 09:42:01 7.1 C 4.45 g/m*3 7.1 C 0 km/h
1300 27-02-2010 09:54:02 7.3 C 4.5 g/m*3 7.3 C 0 km/h
Sensor: Nr:Datum:Temp:Abs-Feuchte:Windchill:Wind:
Aussen-T/F 1301 27-02-2010 10:06:01 7.5 C 4.48 g/m*3 7.5 C 0 km/h
1302 27-02-2010 10:18:02 7.6 C 4.43 g/m*3 7.6 C 0 km/h
1303 27-02-2010 10:30:02 8.1 C 4.49 g/m*3 8.1 C 0 km/h
1304 27-02-2010 10:42:01 8.7 C 4.58 g/m*3 8.7 C 0 km/h
1305 27-02-2010 10:54:03 8.6 C 4.55 g/m*3 8.6 C 0 km/h
1306 27-02-2010 11:06:02 8.7 C 4.5 g/m*3 8.7 C 0 km/h
1307 27-02-2010 11:18:02 9.1 C 4.53 g/m*3 9.1 C 0 km/h
1308 27-02-2010 11:30:03 9.3 C 4.49 g/m*3 9.3 C 0 km/h
1309 27-02-2010 11:42:02 9.3 C 4.31 g/m*3 9.3 C 0 km/h
1310 27-02-2010 11:54:02 9.3 C 4.31 g/m*3 9.3 C 0 km/h
1311 27-02-2010 12:06:02 9.4 C 4.34 g/m*3 9.4 C 0 km/h
1312 27-02-2010 12:18:02 9.8 C 4.36 g/m*3 9.8 C 0 km/h
1313 27-02-2010 12:30:02 10.1 C 4.35 g/m*3 10.1 C 0 km/h
1314 27-02-2010 12:42:02 10.8 C 4.35 g/m*3 10.8 C 0 km/h
1315 27-02-2010 12:54:02 11.2 C 4.16 g/m*3 11.2 C 0 km/h
1316 27-02-2010 13:06:01 11.8 C 4.1 g/m*3 11.8 C 0 km/h
1317 27-02-2010 13:18:01 11.8 C 3.68 g/m*3 11.8 C 0 km/h
1318 27-02-2010 13:30:01 12.3 C 3.58 g/m*3 12.3 C 0 km/h
1319 27-02-2010 13:42:02 12.9 C 3.49 g/m*3 12.9 C 0 km/h
1320 27-02-2010 13:54:02 12.9 C 3.38 g/m*3 12.9 C 0 km/h
1321 27-02-2010 14:06:02 13.4 C 3.49 g/m*3 13.4 C 0 km/h
1322 27-02-2010 14:18:02 14.2 C 3.42 g/m*3 14.2 C 0 km/h
1323 27-02-2010 14:30:02 14.5 C 3.23 g/m*3 14.5 C 0 km/h
1324 27-02-2010 14:42:02 14.8 C 3.17 g/m*3 14.8 C 0 km/h
1325 27-02-2010 14:54:01 14.9 C 2.8 g/m*3 14.9 C 0 km/h
Sensor: Nr:Datum:Temp:Abs-Feuchte:Windchill:Wind:
Aussen-T/F 1326 27-02-2010 15:06:02 14.8 C 2.79 g/m*3 14.8 C 0 km/h
1327 27-02-2010 15:18:01 15.5 C 2.78 g/m*3 15.5 C 0 km/h
1328 27-02-2010 15:30:01 15.9 C 2.84 g/m*3 15.9 C 0 km/h
1329 27-02-2010 15:42:02 15.6 C 2.93 g/m*3 15.6 C 0 km/h
1330 27-02-2010 15:54:02 15.7 C 3.08 g/m*3 15.7 C 0 km/h
1331 27-02-2010 16:06:02 15.7 C 2.81 g/m*3 15.7 C 0 km/h
1332 27-02-2010 16:18:01 14.8 C 2.66 g/m*3 14.8 C 0 km/h
1333 27-02-2010 16:30:01 15 C 2.56 g/m*3 15 C 0 km/h
1334 27-02-2010 16:42:02 14.3 C 2.46 g/m*3 14.3 C 0 km/h
1335 27-02-2010 16:54:02 14.6 C 2.5 g/m*3 14.6 C 0 km/h
1336 27-02-2010 17:06:02 15.7 C 2.68 g/m*3 15.7 C 0 km/h
1337 27-02-2010 17:18:02 14.4 C 2.47 g/m*3 14.4 C 0 km/h
1338 27-02-2010 17:30:02 13.5 C 2.57 g/m*3 13.5 C 0 km/h
1339 27-02-2010 17:42:02 12.9 C 3.38 g/m*3 12.9 C 0 km/h
1340 27-02-2010 17:54:02 11.7 C 3.66 g/m*3 11.7 C 0 km/h
1341 27-02-2010 18:06:02 11 C 3.7 g/m*3 11 C 0 km/h
1342 27-02-2010 18:18:03 10.5 C 3.88 g/m*3 10.5 C 0 km/h
1343 27-02-2010 18:30:03 10.2 C 3.81 g/m*3 10.2 C 0 km/h
1344 27-02-2010 18:42:02 10 C 3.95 g/m*3 10 C 0 km/h
1345 27-02-2010 18:54:02 9.9 C 4.2 g/m*3 9.9 C 0 km/h
1346 27-02-2010 19:06:02 9.8 C 4.27 g/m*3 9.8 C 0 km/h
1347 27-02-2010 19:18:02 10 C 4.23 g/m*3 10 C 0 km/h
1348 27-02-2010 19:30:02 10 C 4.23 g/m*3 10 C 0 km/h
1349 27-02-2010 19:42:02 9.8 C 4.18 g/m*3 9.8 C 0 km/h
1350 27-02-2010 19:54:02 9.8 C 4.18 g/m*3 9.8 C 0 km/h
Sensor: Nr:Datum:Temp:Abs-Feuchte:Windchill:Wind:
Aussen-T/F 1351 27-02-2010 20:06:02 10 C 4.13 g/m*3 10 C 0 km/h
1352 27-02-2010 20:18:02 9.9 C 4.2 g/m*3 9.9 C 0 km/h
1353 27-02-2010 20:30:02 9.7 C 4.15 g/m*3 9.7 C 0 km/h
1354 27-02-2010 20:42:02 9.9 C 4.01 g/m*3 9.9 C 0 km/h
1355 27-02-2010 20:54:02 9.8 C 4.18 g/m*3 9.8 C 0 km/h
1356 27-02-2010 21:06:01 9.6 C 3.94 g/m*3 9.6 C 0 km/h
1357 27-02-2010 21:18:02 9.6 C 3.94 g/m*3 9.6 C 0 km/h
1358 27-02-2010 21:30:02 9.6 C 3.94 g/m*3 9.6 C 0 km/h
1359 27-02-2010 21:42:01 9.7 C 3.69 g/m*3 9.7 C 0 km/h
1360 27-02-2010 21:54:03 9.6 C 3.66 g/m*3 9.6 C 0 km/h
1361 27-02-2010 22:06:03 9.7 C 3.78 g/m*3 9.7 C 0 km/h
1362 27-02-2010 22:18:02 9.8 C 3.71 g/m*3 9.8 C 0 km/h
1363 27-02-2010 22:30:02 9.8 C 3.71 g/m*3 9.8 C 0 km/h
1364 27-02-2010 22:43:02 9.9 C 3.64 g/m*3 9.9 C 0 km/h
1365 27-02-2010 22:55:02 9.8 C 3.71 g/m*3 9.8 C 0 km/h
1366 27-02-2010 23:07:02 9.8 C 3.71 g/m*3 9.8 C 0 km/h
1367 27-02-2010 23:19:02 9.7 C 3.69 g/m*3 9.7 C 0 km/h
1368 27-02-2010 23:31:02 9.6 C 3.66 g/m*3 9.6 C 0 km/h
1369 27-02-2010 23:43:03 9.6 C 3.76 g/m*3 9.6 C 0 km/h
1370 27-02-2010 23:55:03 9.4 C 3.8 g/m*3 9.4 C 0 km/h
1371 28-02-2010 00:07:03 9.3 C 3.77 g/m*3 9.3 C 0 km/h
1372 28-02-2010 00:19:03 8.9 C 4.2 g/m*3 8.9 C 0 km/h
1373 28-02-2010 00:31:03 8.6 C 4.04 g/m*3 8.6 C 0 km/h
1374 28-02-2010 00:43:03 8.5 C 4.44 g/m*3 8.5 C 0 km/h
1375 28-02-2010 00:55:03 7.3 C 4.98 g/m*3 7.3 C 0 km/h
Sensor: Nr:Datum:Temp:Abs-Feuchte:Windchill:Wind:
Aussen-T/F 1376 28-02-2010 01:07:03 6.9 C 5.54 g/m*3 6.9 C 0 km/h
1377 28-02-2010 01:19:03 6.6 C 5.59 g/m*3 6.6 C 0 km/h
1378 28-02-2010 01:31:03 6.4 C 5.74 g/m*3 6.4 C 0 km/h
1379 28-02-2010 01:43:03 6.4 C 5.89 g/m*3 6.4 C 0 km/h
1380 28-02-2010 01:55:03 6.2 C 5.88 g/m*3 6.2 C 0 km/h
1381 28-02-2010 02:07:03 6.2 C 6.03 g/m*3 6.2 C 0 km/h
1382 28-02-2010 02:19:03 6.2 C 6.1 g/m*3 6.2 C 0 km/h
1383 28-02-2010 02:31:03 5.9 C 6.06 g/m*3 5.9 C 0 km/h
1384 28-02-2010 02:43:03 5.9 C 6.13 g/m*3 5.9 C 0 km/h
1385 28-02-2010 02:55:03 5.8 C 6.09 g/m*3 5.8 C 0 km/h
1386 28-02-2010 03:07:03 5.8 C 6.16 g/m*3 5.8 C 0 km/h
1387 28-02-2010 03:19:03 5.7 C 6.12 g/m*3 5.7 C 0 km/h
1388 28-02-2010 03:31:03 5.7 C 6.12 g/m*3 5.7 C 0 km/h
1389 28-02-2010 03:43:03 5.7 C 6.12 g/m*3 5.7 C 0 km/h
1390 28-02-2010 03:55:04 5.8 C 6.09 g/m*3 5.8 C 0 km/h
1391 28-02-2010 04:07:04 5.9 C 6.13 g/m*3 5.9 C 0 km/h
1392 28-02-2010 04:19:04 6 C 6.17 g/m*3 6 C 0 km/h
1393 28-02-2010 04:31:04 6.3 C 6.29 g/m*3 6.3 C 0 km/h
1394 28-02-2010 04:43:04 6.3 C 6.37 g/m*3 6.3 C 0 km/h
1395 28-02-2010 04:55:04 6.1 C 6.28 g/m*3 6.1 C 0 km/h
1396 28-02-2010 05:07:04 6.1 C 6.36 g/m*3 6.1 C 0 km/h
1397 28-02-2010 05:19:04 6.3 C 6.44 g/m*3 6.3 C 0 km/h
1398 28-02-2010 05:31:04 6.3 C 6.44 g/m*3 6.3 C 0 km/h
1399 28-02-2010 05:43:04 6.3 C 6.44 g/m*3 6.3 C 0 km/h
1400 28-02-2010 05:55:04 6.3 C 6.44 g/m*3 6.3 C 0 km/h
Sensor: Nr:Datum:Temp:Abs-Feuchte:Windchill:Wind:
Aussen-T/F 1401 28-02-2010 06:07:04 6.1 C 6.43 g/m*3 6.1 C 0 km/h
1402 28-02-2010 06:19:04 6.3 C 6.51 g/m*3 6.3 C 0 km/h
1403 28-02-2010 06:31:04 6.2 C 6.47 g/m*3 6.2 C 0 km/h
1404 28-02-2010 06:43:04 6.1 C 6.5 g/m*3 6.1 C 0 km/h
1405 28-02-2010 06:55:04 6.1 C 6.5 g/m*3 6.1 C 0 km/h
1406 28-02-2010 07:07:04 6.3 C 6.66 g/m*3 6.3 C 0 km/h
1407 28-02-2010 07:19:04 6.3 C 6.66 g/m*3 6.3 C 0 km/h
1408 28-02-2010 07:31:04 6.2 C 6.69 g/m*3 6.2 C 0 km/h
1409 28-02-2010 07:43:04 6.3 C 6.74 g/m*3 6.3 C 0 km/h
1410 28-02-2010 07:55:04 6.4 C 6.85 g/m*3 6.4 C 0 km/h
1411 28-02-2010 08:07:01 6.5 C 6.9 g/m*3 6.5 C 0 km/h
1412 28-02-2010 08:19:02 6.7 C 7.07 g/m*3 6.7 C 0 km/h
1413 28-02-2010 08:31:02 6.9 C 7.16 g/m*3 6.9 C 0 km/h
1414 28-02-2010 08:43:02 7 C 7.13 g/m*3 7 C 0 km/h
1415 28-02-2010 08:55:01 7.3 C 7.35 g/m*3 7.3 C 0 km/h
1416 28-02-2010 09:07:02 7.9 C 7.47 g/m*3 7.9 C 0 km/h
1417 28-02-2010 09:19:02 8.2 C 7.2 g/m*3 8.2 C 0 km/h
1418 28-02-2010 09:31:01 8.5 C 7.09 g/m*3 8.5 C 0 km/h
1419 28-02-2010 09:43:01 8.8 C 6.96 g/m*3 8.8 C 0 km/h
1420 28-02-2010 09:55:01 8.8 C 6.88 g/m*3 8.8 C 0 km/h
1421 28-02-2010 10:07:02 8.9 C 6.75 g/m*3 8.9 C 0 km/h
1422 28-02-2010 10:19:02 9.3 C 6.65 g/m*3 9.3 C 0 km/h
1423 28-02-2010 10:31:01 9.6 C 6.69 g/m*3 9.6 C 0 km/h
1424 28-02-2010 10:43:01 9.8 C 6.87 g/m*3 9.8 C 0 km/h
1425 28-02-2010 10:55:01 10.2 C 6.66 g/m*3 10.2 C 0 km/h
Sensor: Nr:Datum:Temp:Abs-Feuchte:Windchill:Wind:
Aussen-T/F 1426 28-02-2010 11:07:02 10.7 C 6.78 g/m*3 10.7 C 0 km/h
1427 28-02-2010 11:19:02 12.3 C 5.97 g/m*3 12.3 C 0 km/h
1428 28-02-2010 11:31:01 13.2 C 5.28 g/m*3 13.2 C 0 km/h
1429 28-02-2010 11:43:01 13 C 5.22 g/m*3 13 C 0 km/h
1430 28-02-2010 11:55:01 13 C 4.65 g/m*3 13 C 0 km/h
1431 28-02-2010 12:07:01 13 C 4.65 g/m*3 13 C 0 km/h
1432 28-02-2010 12:19:02 12.7 C 4.56 g/m*3 12.7 C 0 km/h
1433 28-02-2010 12:31:01 13 C 4.31 g/m*3 13 C 0 km/h
1434 28-02-2010 12:43:01 12.6 C 4.54 g/m*3 12.6 C 0 km/h
1435 28-02-2010 12:55:02 12.5 C 4.29 g/m*3 12.5 C 0 km/h
1436 28-02-2010 13:07:01 12.5 C 4.18 g/m*3 12.5 C 0 km/h
1437 28-02-2010 13:19:02 12.2 C 4.1 g/m*3 12.2 C 0 km/h
1438 28-02-2010 13:31:01 11.9 C 3.92 g/m*3 11.9 C 0 km/h
1439 28-02-2010 13:43:01 11.8 C 3.89 g/m*3 11.8 C 0 km/h
1440 28-02-2010 13:55:02 11.8 C 3.79 g/m*3 11.8 C 0 km/h
1441 28-02-2010 14:07:42 11.6 C 3.64 g/m*3 11.6 C 0 km/h
1442 28-02-2010 14:19:02 11.4 C 3.59 g/m*3 11.4 C 0 km/h
1443 28-02-2010 14:31:02 11.1 C 3.63 g/m*3 11.1 C 0 km/h
1444 28-02-2010 14:43:02 10.7 C 3.83 g/m*3 10.7 C 0 km/h
1445 28-02-2010 14:55:02 10.5 C 3.88 g/m*3 10.5 C 0 km/h
1446 28-02-2010 15:07:01 10.6 C 3.9 g/m*3 10.6 C 0 km/h
1447 28-02-2010 15:19:02 10.5 C 3.88 g/m*3 10.5 C 0 km/h
1448 28-02-2010 15:31:01 9.7 C 4.52 g/m*3 9.7 C 0 km/h
1449 28-02-2010 15:43:01 10 C 4.51 g/m*3 10 C 0 km/h
1450 28-02-2010 15:55:03 10 C 4.32 g/m*3 10 C 0 km/h
Sensor: Nr:Datum:Temp:Abs-Feuchte:Windchill:Wind:
Aussen-T/F 1451 28-02-2010 16:07:02 10 C 4.42 g/m*3 10 C 0 km/h
1452 28-02-2010 16:19:02 9.8 C 4.45 g/m*3 9.8 C 0 km/h
1453 28-02-2010 16:31:02 9.6 C 4.49 g/m*3 9.6 C 0 km/h
1454 28-02-2010 16:43:02 9.5 C 4.64 g/m*3 9.5 C 0 km/h
1455 28-02-2010 16:55:02 9.2 C 4.64 g/m*3 9.2 C 0 km/h
1456 28-02-2010 17:07:02 9.2 C 4.64 g/m*3 9.2 C 0 km/h
1457 28-02-2010 17:19:02 9.2 C 4.64 g/m*3 9.2 C 0 km/h
1458 28-02-2010 17:31:02 9.1 C 4.53 g/m*3 9.1 C 0 km/h
1459 28-02-2010 17:43:02 8.9 C 4.56 g/m*3 8.9 C 0 km/h
1460 28-02-2010 17:55:02 8.7 C 4.76 g/m*3 8.7 C 0 km/h
1461 28-02-2010 18:07:01 8.2 C 5.02 g/m*3 8.2 C 0 km/h
1462 28-02-2010 18:19:02 8.1 C 4.99 g/m*3 8.1 C 0 km/h
1463 28-02-2010 18:31:01 8.2 C 5.02 g/m*3 8.2 C 0 km/h
1464 28-02-2010 18:43:01 8.2 C 4.94 g/m*3 8.2 C 0 km/h
1465 28-02-2010 18:55:03 8 C 5.13 g/m*3 8 C 0 km/h
1466 28-02-2010 19:07:02 7.9 C 5.09 g/m*3 7.9 C 0 km/h
1467 28-02-2010 19:19:03 8 C 4.88 g/m*3 8 C 0 km/h
1468 28-02-2010 19:31:03 8.1 C 4.74 g/m*3 8.1 C 0 km/h
1469 28-02-2010 19:43:03 8 C 4.71 g/m*3 8 C 0 km/h
1470 28-02-2010 19:55:02 8.1 C 4.74 g/m*3 8.1 C 0 km/h
1471 28-02-2010 20:07:03 8 C 4.71 g/m*3 8 C 0 km/h
1472 28-02-2010 20:19:02 7.8 C 4.9 g/m*3 7.8 C 0 km/h
1473 28-02-2010 20:31:01 7.8 C 4.98 g/m*3 7.8 C 0 km/h
1474 28-02-2010 20:43:01 7.7 C 4.95 g/m*3 7.7 C 0 km/h
1475 28-02-2010 20:55:01 7.8 C 4.73 g/m*3 7.8 C 0 km/h
Sensor: Nr:Datum:Temp:Abs-Feuchte:Windchill:Wind:
Aussen-T/F 1476 28-02-2010 21:07:02 7.8 C 4.57 g/m*3 7.8 C 0 km/h
1477 28-02-2010 21:19:02 7.6 C 4.51 g/m*3 7.6 C 0 km/h
1478 28-02-2010 21:31:02 7.5 C 4.56 g/m*3 7.5 C 0 km/h
1479 28-02-2010 21:43:02 7.6 C 4.51 g/m*3 7.6 C 0 km/h
1480 28-02-2010 21:55:02 7.7 C 4.54 g/m*3 7.7 C 0 km/h
1481 28-02-2010 22:08:03 7.6 C 4.51 g/m*3 7.6 C 0 km/h
1482 28-02-2010 22:20:03 7.5 C 4.48 g/m*3 7.5 C 0 km/h
1483 28-02-2010 22:32:03 7.4 C 4.53 g/m*3 7.4 C 0 km/h
1484 28-02-2010 22:44:03 7.1 C 4.68 g/m*3 7.1 C 0 km/h
1485 28-02-2010 22:56:03 7 C 4.65 g/m*3 7 C 0 km/h
1486 28-02-2010 23:08:03 7 C 4.8 g/m*3 7 C 0 km/h
1487 28-02-2010 23:20:03 7 C 4.8 g/m*3 7 C 0 km/h
1488 28-02-2010 23:32:03 6.9 C 4.93 g/m*3 6.9 C 0 km/h
1489 28-02-2010 23:44:03 6.7 C 4.94 g/m*3 6.7 C 0 km/h
1490 28-02-2010 23:56:03 6.6 C 4.98 g/m*3 6.6 C 0 km/h
1491 01-03-2010 00:08:03 6.3 C 4.89 g/m*3 6.3 C 0 km/h
1492 01-03-2010 00:20:04 6.1 C 4.89 g/m*3 6.1 C 0 km/h
1493 01-03-2010 00:32:04 6.2 C 4.85 g/m*3 6.2 C 0 km/h
1494 01-03-2010 00:44:04 6.1 C 4.75 g/m*3 6.1 C 0 km/h
1495 01-03-2010 00:56:04 6.1 C 4.6 g/m*3 6.1 C 0 km/h
1496 01-03-2010 01:08:04 5.9 C 4.76 g/m*3 5.9 C 0 km/h
1497 01-03-2010 01:20:04 5.7 C 4.7 g/m*3 5.7 C 0 km/h
1498 01-03-2010 01:32:04 5.8 C 4.37 g/m*3 5.8 C 0 km/h
1499 01-03-2010 01:44:04 5.7 C 4.34 g/m*3 5.7 C 0 km/h
1500 01-03-2010 01:56:04 5.8 C 4.23 g/m*3 5.8 C 0 km/h
Sensor: Nr:Datum:Temp:Abs-Feuchte:Windchill:Wind:
Aussen-T/F 1501 01-03-2010 02:08:04 5.8 C 4.23 g/m*3 5.8 C 0 km/h
1502 01-03-2010 02:20:04 5.7 C 3.99 g/m*3 5.7 C 0 km/h
1503 01-03-2010 02:32:04 5.6 C 3.96 g/m*3 5.6 C 0 km/h
1504 01-03-2010 02:44:05 5.5 C 3.93 g/m*3 5.5 C 0 km/h
1505 01-03-2010 02:56:05 5.4 C 4.05 g/m*3 5.4 C 0 km/h
1506 01-03-2010 03:08:05 5.3 C 4.09 g/m*3 5.3 C 0 km/h
1507 01-03-2010 03:20:05 5 C 4.14 g/m*3 5 C 0 km/h
1508 01-03-2010 03:32:05 5 C 4.14 g/m*3 5 C 0 km/h
1509 01-03-2010 03:44:05 4.9 C 4.12 g/m*3 4.9 C 0 km/h
1510 01-03-2010 03:56:05 4.8 C 4.09 g/m*3 4.8 C 0 km/h
1511 01-03-2010 04:08:05 4.7 C 4.13 g/m*3 4.7 C 0 km/h
1512 01-03-2010 04:20:05 4.6 C 4.17 g/m*3 4.6 C 0 km/h
1513 01-03-2010 04:32:05 4.6 C 4.23 g/m*3 4.6 C 0 km/h
1514 01-03-2010 04:44:05 4.7 C 4.33 g/m*3 4.7 C 0 km/h
1515 01-03-2010 04:56:05 4.8 C 4.36 g/m*3 4.8 C 0 km/h
1516 01-03-2010 05:08:05 4.4 C 4.7 g/m*3 4.4 C 0 km/h
1517 01-03-2010 05:20:05 4.1 C 4.99 g/m*3 4.1 C 0 km/h
1518 01-03-2010 05:32:05 3.8 C 5.08 g/m*3 3.8 C 0 km/h
1519 01-03-2010 05:44:05 3.5 C 5.04 g/m*3 3.5 C 0 km/h
1520 01-03-2010 05:56:05 3.5 C 5.04 g/m*3 3.5 C 0 km/h
1521 01-03-2010 06:08:05 3.4 C 5.01 g/m*3 3.4 C 0 km/h
1522 01-03-2010 06:20:05 3.4 C 5.01 g/m*3 3.4 C 0 km/h
1523 01-03-2010 06:32:05 3.6 C 4.89 g/m*3 3.6 C 0 km/h
1524 01-03-2010 06:44:05 3.8 C 4.77 g/m*3 3.8 C 0 km/h
1525 01-03-2010 06:56:05 4 C 4.64 g/m*3 4 C 0 km/h
Sensor: Nr:Datum:Temp:Abs-Feuchte:Windchill:Wind:
Aussen-T/F 1526 01-03-2010 07:08:05 4.1 C 4.48 g/m*3 4.1 C 0 km/h
1527 01-03-2010 07:20:03 4.2 C 4.38 g/m*3 4.2 C 0 km/h
1528 01-03-2010 07:32:03 4.2 C 4.12 g/m*3 4.2 C 0 km/h
1529 01-03-2010 07:44:03 4.4 C 3.92 g/m*3 4.4 C 0 km/h
1530 01-03-2010 07:56:02 4.6 C 3.77 g/m*3 4.6 C 0 km/h
1531 01-03-2010 08:08:02 4.6 C 3.71 g/m*3 4.6 C 0 km/h
1532 01-03-2010 08:20:02 4.8 C 3.69 g/m*3 4.8 C 0 km/h
1533 01-03-2010 08:32:02 4.9 C 3.71 g/m*3 4.9 C 0 km/h
1534 01-03-2010 08:44:02 5 C 3.67 g/m*3 5 C 0 km/h
1535 01-03-2010 08:56:01 5.1 C 3.69 g/m*3 5.1 C 0 km/h
1536 01-03-2010 09:08:02 5.2 C 3.86 g/m*3 5.2 C 0 km/h
1537 01-03-2010 09:20:01 5.3 C 4.02 g/m*3 5.3 C 0 km/h
1538 01-03-2010 09:32:02 5.4 C 3.91 g/m*3 5.4 C 0 km/h
1539 01-03-2010 09:44:02 5.6 C 3.96 g/m*3 5.6 C 0 km/h
1540 01-03-2010 09:56:01 5.8 C 4.01 g/m*3 5.8 C 0 km/h
1541 01-03-2010 10:08:02 6 C 3.7 g/m*3 6 C 0 km/h
1542 01-03-2010 10:20:01 6.2 C 3.6 g/m*3 6.2 C 0 km/h
1543 01-03-2010 10:32:02 6.4 C 3.65 g/m*3 6.4 C 0 km/h
1544 01-03-2010 10:44:02 6.3 C 3.48 g/m*3 6.3 C 0 km/h
1545 01-03-2010 10:56:01 6.4 C 3.5 g/m*3 6.4 C 0 km/h
1546 01-03-2010 11:08:02 6.7 C 3.5 g/m*3 6.7 C 0 km/h
1547 01-03-2010 11:20:02 6.6 C 3.47 g/m*3 6.6 C 0 km/h
1548 01-03-2010 11:32:02 6.3 C 3.41 g/m*3 6.3 C 0 km/h
1549 01-03-2010 11:44:02 6.6 C 3.47 g/m*3 6.6 C 0 km/h
1550 01-03-2010 11:56:01 7 C 3.33 g/m*3 7 C 0 km/h
Sensor: Nr:Datum:Temp:Abs-Feuchte:Windchill:Wind:
Aussen-T/F 1551 01-03-2010 12:08:02 7 C 3.33 g/m*3 7 C 0 km/h
1552 01-03-2010 12:20:02 7.2 C 3.3 g/m*3 7.2 C 0 km/h
1553 01-03-2010 12:32:01 7.5 C 3.2 g/m*3 7.5 C 0 km/h
1554 01-03-2010 12:44:01 7.9 C 3.2 g/m*3 7.9 C 0 km/h
1555 01-03-2010 12:56:02 7.8 C 3.18 g/m*3 7.8 C 0 km/h
1556 01-03-2010 13:08:01 7.7 C 3.16 g/m*3 7.7 C 0 km/h
1557 01-03-2010 13:20:02 8 C 3.14 g/m*3 8 C 0 km/h
1558 01-03-2010 13:32:01 8 C 3.06 g/m*3 8 C 0 km/h
1559 01-03-2010 13:44:01 7.8 C 3.02 g/m*3 7.8 C 0 km/h
1560 01-03-2010 13:56:01 7.7 C 3 g/m*3 7.7 C 0 km/h
1561 01-03-2010 14:08:01 7.3 C 3.16 g/m*3 7.3 C 0 km/h
1562 01-03-2010 14:20:01 7.1 C 3.2 g/m*3 7.1 C 0 km/h
1563 01-03-2010 14:32:02 7.6 C 3.22 g/m*3 7.6 C 0 km/h
1564 01-03-2010 14:44:02 7.5 C 3.2 g/m*3 7.5 C 0 km/h
1565 01-03-2010 14:56:02 7.4 C 3.18 g/m*3 7.4 C 0 km/h
1566 01-03-2010 15:08:02 7.3 C 3.24 g/m*3 7.3 C 0 km/h
1567 01-03-2010 15:20:02 7.6 C 3.3 g/m*3 7.6 C 0 km/h
1568 01-03-2010 15:32:02 7.5 C 3.28 g/m*3 7.5 C 0 km/h
1569 01-03-2010 15:44:02 7.4 C 3.1 g/m*3 7.4 C 0 km/h
1570 01-03-2010 15:56:02 7.3 C 3 g/m*3 7.3 C 0 km/h
1571 01-03-2010 16:08:01 7.3 C 3.08 g/m*3 7.3 C 0 km/h
1572 01-03-2010 16:20:02 7.3 C 3.08 g/m*3 7.3 C 0 km/h
1573 01-03-2010 16:32:02 7.3 C 3.08 g/m*3 7.3 C 0 km/h
1574 01-03-2010 16:44:02 7.3 C 3.08 g/m*3 7.3 C 0 km/h
1575 01-03-2010 16:56:02 7.2 C 3.06 g/m*3 7.2 C 0 km/h
Sensor: Nr:Datum:Temp:Abs-Feuchte:Windchill:Wind:
Aussen-T/F 1576 01-03-2010 17:08:03 7.1 C 3.12 g/m*3 7.1 C 0 km/h
1577 01-03-2010 17:20:02 6.9 C 3.08 g/m*3 6.9 C 0 km/h
1578 01-03-2010 17:32:02 6.8 C 3.06 g/m*3 6.8 C 0 km/h
1579 01-03-2010 17:44:02 6.8 C 3.14 g/m*3 6.8 C 0 km/h
1580 01-03-2010 17:56:01 6.7 C 3.12 g/m*3 6.7 C 0 km/h
1581 01-03-2010 18:08:02 6.5 C 3.22 g/m*3 6.5 C 0 km/h
1582 01-03-2010 18:20:01 6.4 C 3.5 g/m*3 6.4 C 0 km/h
1583 01-03-2010 18:32:01 6 C 3.56 g/m*3 6 C 0 km/h
1584 01-03-2010 18:44:01 5.8 C 3.72 g/m*3 5.8 C 0 km/h
1585 01-03-2010 18:56:01 5.7 C 3.77 g/m*3 5.7 C 0 km/h
1586 01-03-2010 19:08:02 5.6 C 3.68 g/m*3 5.6 C 0 km/h
1587 01-03-2010 19:20:01 5.6 C 3.53 g/m*3 5.6 C 0 km/h
1588 01-03-2010 19:32:02 5.4 C 3.56 g/m*3 5.4 C 0 km/h
1589 01-03-2010 19:44:02 5.3 C 3.53 g/m*3 5.3 C 0 km/h
1590 01-03-2010 19:56:02 5.1 C 3.42 g/m*3 5.1 C 0 km/h
1591 01-03-2010 20:08:03 5 C 3.4 g/m*3 5 C 0 km/h
1592 01-03-2010 20:20:02 5.1 C 3.42 g/m*3 5.1 C 0 km/h
1593 01-03-2010 20:32:02 4.6 C 3.44 g/m*3 4.6 C 0 km/h
1594 01-03-2010 20:44:02 4.4 C 3.46 g/m*3 4.4 C 0 km/h
1595 01-03-2010 20:56:02 4.4 C 3.4 g/m*3 4.4 C 0 km/h
1596 01-03-2010 21:08:02 3.8 C 3.51 g/m*3 3.8 C 0 km/h
1597 01-03-2010 21:20:02 3.4 C 3.54 g/m*3 3.4 C 0 km/h
1598 01-03-2010 21:32:01 3.4 C 3.6 g/m*3 3.4 C 0 km/h
1599 01-03-2010 21:44:01 3.3 C 3.64 g/m*3 3.3 C 0 km/h
1600 01-03-2010 21:56:02 3.1 C 3.71 g/m*3 3.1 C 0 km/h
Sensor: Nr:Datum:Temp:Abs-Feuchte:Windchill:Wind:
Aussen-T/F 1601 01-03-2010 22:08:02 2.8 C 3.64 g/m*3 2.8 C 0 km/h
1602 01-03-2010 22:21:03 2.6 C 3.82 g/m*3 2.6 C 0 km/h
1603 01-03-2010 22:33:03 2.4 C 3.83 g/m*3 2.4 C 0 km/h
1604 01-03-2010 22:45:03 2.1 C 3.86 g/m*3 2.1 C 0 km/h
1605 01-03-2010 22:57:03 2 C 3.89 g/m*3 2 C 0 km/h
1606 01-03-2010 23:09:03 1.8 C 3.95 g/m*3 1.8 C 0 km/h
1607 01-03-2010 23:21:03 1.5 C 3.92 g/m*3 1.5 C 0 km/h
1608 01-03-2010 23:33:03 1.2 C 3.89 g/m*3 1.2 C 0 km/h
1609 01-03-2010 23:45:03 1.1 C 3.92 g/m*3 1.1 C 0 km/h
1610 01-03-2010 23:57:03 1.1 C 3.97 g/m*3 1.1 C 0 km/h
1611 02-03-2010 00:09:03 0.9 C 3.97 g/m*3 0.9 C 0 km/h
1612 02-03-2010 00:21:03 0.7 C 3.97 g/m*3 0.7 C 0 km/h
1613 02-03-2010 00:33:03 0.5 C 3.96 g/m*3 0.5 C 0 km/h
1614 02-03-2010 00:45:03 0.2 C 3.88 g/m*3 0.2 C 0 km/h
1615 02-03-2010 00:57:03 0.2 C 3.88 g/m*3 0.2 C 0 km/h
1616 02-03-2010 01:09:03 0.1 C 3.9 g/m*3 0.1 C 0 km/h
1617 02-03-2010 01:21:03 0.2 C 3.98 g/m*3 0.2 C 0 km/h
1618 02-03-2010 01:33:03 0.3 C 4.01 g/m*3 0.3 C 0 km/h
1619 02-03-2010 01:45:03 0 C 3.92 g/m*3 0 C 0 km/h
1620 02-03-2010 01:57:03 0 C 3.97 g/m*3 0 C 0 km/h
1621 02-03-2010 02:09:03 0 C 3.97 g/m*3 0 C 0 km/h
1622 02-03-2010 02:21:04 -0.2 C 3.92 g/m*3 -0.2 C 0 km/h
1623 02-03-2010 02:33:04 -0.2 C 3.97 g/m*3 -0.2 C 0 km/h
1624 02-03-2010 02:45:04 -0.4 C 3.91 g/m*3 -0.4 C 0 km/h
1625 02-03-2010 02:57:04 -0.6 C 3.86 g/m*3 -0.6 C 0 km/h
Sensor: Nr:Datum:Temp:Abs-Feuchte:Windchill:Wind:
Aussen-T/F 1626 02-03-2010 03:09:04 -0.7 C 3.83 g/m*3 -0.7 C 0 km/h
1627 02-03-2010 03:21:04 -0.6 C 3.86 g/m*3 -0.6 C 0 km/h
1628 02-03-2010 03:33:04 -0.7 C 3.83 g/m*3 -0.7 C 0 km/h
1629 02-03-2010 03:45:04 -0.9 C 3.82 g/m*3 -0.9 C 0 km/h
1630 02-03-2010 03:57:04 -1 C 3.8 g/m*3 -1 C 0 km/h
1631 02-03-2010 04:09:04 -1.3 C 3.72 g/m*3 -1.3 C 0 km/h
1632 02-03-2010 04:21:04 -1.3 C 3.72 g/m*3 -1.3 C 0 km/h
1633 02-03-2010 04:33:04 -1.4 C 3.69 g/m*3 -1.4 C 0 km/h
1634 02-03-2010 04:45:04 -1.2 C 3.79 g/m*3 -1.2 C 0 km/h
1635 02-03-2010 04:57:04 -1.2 C 3.79 g/m*3 -1.2 C 0 km/h
1636 02-03-2010 05:09:04 -1.1 C 3.86 g/m*3 -1.1 C 0 km/h
1637 02-03-2010 05:21:04 -1.1 C 3.86 g/m*3 -1.1 C 0 km/h
1638 02-03-2010 05:33:04 -1.1 C 3.86 g/m*3 -1.1 C 0 km/h
1639 02-03-2010 05:45:04 -1.1 C 3.86 g/m*3 -1.1 C 0 km/h
1640 02-03-2010 05:57:04 -1.4 C 3.74 g/m*3 -1.4 C 0 km/h
1641 02-03-2010 06:09:04 -1.6 C 3.68 g/m*3 -1.6 C 0 km/h
1642 02-03-2010 06:21:04 -1.7 C 3.66 g/m*3 -1.7 C 0 km/h
1643 02-03-2010 06:33:05 -1.8 C 3.63 g/m*3 -1.8 C 0 km/h
1644 02-03-2010 06:45:05 -1.9 C 3.65 g/m*3 -1.9 C 0 km/h
1645 02-03-2010 06:57:05 -1.9 C 3.65 g/m*3 -1.9 C 0 km/h
1646 02-03-2010 07:09:02 -2 C 3.63 g/m*3 -2 C 0 km/h
1647 02-03-2010 07:21:03 -1.8 C 3.72 g/m*3 -1.8 C 0 km/h
1648 02-03-2010 07:33:02 -1.8 C 3.72 g/m*3 -1.8 C 0 km/h
1649 02-03-2010 07:45:02 -1.6 C 3.77 g/m*3 -1.6 C 0 km/h
1650 02-03-2010 07:57:02 -1.2 C 3.92 g/m*3 -1.2 C 0 km/h
Sensor: Nr:Datum:Temp:Abs-Feuchte:Windchill:Wind:
Aussen-T/F 1651 02-03-2010 08:09:02 -0.9 C 4.01 g/m*3 -0.9 C 0 km/h
1652 02-03-2010 08:21:02 -0.7 C 4.06 g/m*3 -0.7 C 0 km/h
1653 02-03-2010 08:33:03 -0.7 C 4.06 g/m*3 -0.7 C 0 km/h
1654 02-03-2010 08:45:02 -0.6 C 4.09 g/m*3 -0.6 C 0 km/h
1655 02-03-2010 08:57:03 -0.6 C 4.09 g/m*3 -0.6 C 0 km/h
1656 02-03-2010 09:09:01 -0.5 C 4.07 g/m*3 -0.5 C 0 km/h
1657 02-03-2010 09:21:02 0 C 4.26 g/m*3 0 C 0 km/h
1658 02-03-2010 09:33:02 0.1 C 4.24 g/m*3 0.1 C 0 km/h
1659 02-03-2010 09:45:02 -0.1 C 4.14 g/m*3 -0.1 C 0 km/h
1660 02-03-2010 09:57:02 -0.1 C 4.14 g/m*3 -0.1 C 0 km/h
1661 02-03-2010 10:09:03 0.3 C 4.25 g/m*3 0.3 C 0 km/h
1662 02-03-2010 10:21:02 0.7 C 4.32 g/m*3 0.7 C 0 km/h
1663 02-03-2010 10:33:02 1.2 C 4.42 g/m*3 1.2 C 0 km/h
1664 02-03-2010 10:45:01 1.6 C 4.49 g/m*3 1.6 C 0 km/h
1665 02-03-2010 10:57:01 2.1 C 4.48 g/m*3 2.1 C 0 km/h
1666 02-03-2010 11:09:02 2.6 C 4.57 g/m*3 2.6 C 0 km/h
1667 02-03-2010 11:21:01 3.1 C 4.61 g/m*3 3.1 C 0 km/h
1668 02-03-2010 11:33:02 4 C 4.7 g/m*3 4 C 0 km/h
1669 02-03-2010 11:45:02 4 C 4.51 g/m*3 4 C 0 km/h
1670 02-03-2010 11:57:02 4.2 C 4.25 g/m*3 4.2 C 0 km/h
1671 02-03-2010 12:09:02 5.1 C 3.63 g/m*3 5.1 C 0 km/h
1672 02-03-2010 12:21:01 6.1 C 3.29 g/m*3 6.1 C 0 km/h
1673 02-03-2010 12:33:02 6.3 C 3.26 g/m*3 6.3 C 0 km/h
1674 02-03-2010 12:45:02 7 C 3.02 g/m*3 7 C 0 km/h
1675 02-03-2010 12:57:02 7.4 C 2.86 g/m*3 7.4 C 0 km/h
Sensor: Nr:Datum:Temp:Abs-Feuchte:Windchill:Wind:
Aussen-T/F 1676 02-03-2010 13:09:02 8.1 C 2.91 g/m*3 8.1 C 0 km/h
1677 02-03-2010 13:21:01 9.1 C 2.75 g/m*3 9.1 C 0 km/h
1678 02-03-2010 13:33:02 8.5 C 2.65 g/m*3 8.5 C 0 km/h
1679 02-03-2010 13:45:01 9.5 C 2.73 g/m*3 9.5 C 0 km/h
1680 02-03-2010 13:57:01 10.3 C 2.49 g/m*3 10.3 C 0 km/h
1681 02-03-2010 14:09:02 10.2 C 2.38 g/m*3 10.2 C 0 km/h
1682 02-03-2010 14:21:02 10.1 C 2.65 g/m*3 10.1 C 0 km/h
1683 02-03-2010 14:33:02 9.5 C 2.28 g/m*3 9.5 C 0 km/h
1684 02-03-2010 14:45:02 9.5 C 2.46 g/m*3 9.5 C 0 km/h
1685 02-03-2010 14:57:02 9 C 2.29 g/m*3 9 C 0 km/h
1686 02-03-2010 15:09:02 8.7 C 2.42 g/m*3 8.7 C 0 km/h
1687 02-03-2010 15:21:02 9.5 C 2.55 g/m*3 9.5 C 0 km/h
1688 02-03-2010 15:33:01 10.3 C 2.49 g/m*3 10.3 C 0 km/h
1689 02-03-2010 15:45:02 11 C 2.4 g/m*3 11 C 0 km/h
1690 02-03-2010 15:57:02 10.7 C 1.96 g/m*3 10.7 C 0 km/h
1691 02-03-2010 16:09:01 9.7 C 1.84 g/m*3 9.7 C 0 km/h
1692 02-03-2010 16:21:02 9.5 C 1.82 g/m*3 9.5 C 0 km/h
1693 02-03-2010 16:33:01 8.7 C 2.51 g/m*3 8.7 C 0 km/h
1694 02-03-2010 16:45:02 8.4 C 2.63 g/m*3 8.4 C 0 km/h
1695 02-03-2010 16:57:03 8.7 C 2.77 g/m*3 8.7 C 0 km/h
1696 02-03-2010 17:09:02 8.7 C 2.77 g/m*3 8.7 C 0 km/h
1697 02-03-2010 17:21:02 9 C 2.73 g/m*3 9 C 0 km/h
1698 02-03-2010 17:33:02 8.4 C 2.71 g/m*3 8.4 C 0 km/h
1699 02-03-2010 17:45:02 8.2 C 2.93 g/m*3 8.2 C 0 km/h
1700 02-03-2010 17:57:03 7.9 C 2.96 g/m*3 7.9 C 0 km/h
Sensor: Nr:Datum:Temp:Abs-Feuchte:Windchill:Wind:
Aussen-T/F 1701 02-03-2010 18:09:01 7.5 C 3.04 g/m*3 7.5 C 0 km/h
1702 02-03-2010 18:21:02 7 C 3.1 g/m*3 7 C 0 km/h
1703 02-03-2010 18:33:02 6.5 C 3.3 g/m*3 6.5 C 0 km/h
1704 02-03-2010 18:45:02 6.2 C 3.38 g/m*3 6.2 C 0 km/h
1705 02-03-2010 18:57:02 5.9 C 3.53 g/m*3 5.9 C 0 km/h
1706 02-03-2010 19:09:01 5.9 C 3.53 g/m*3 5.9 C 0 km/h
1707 02-03-2010 19:21:02 5.9 C 3.39 g/m*3 5.9 C 0 km/h
1708 02-03-2010 19:33:02 5.8 C 3.3 g/m*3 5.8 C 0 km/h
1709 02-03-2010 19:45:01 5.8 C 3.3 g/m*3 5.8 C 0 km/h
1710 02-03-2010 19:57:01 5.8 C 3.3 g/m*3 5.8 C 0 km/h
1711 02-03-2010 20:09:02 6 C 3.19 g/m*3 6 C 0 km/h
1712 02-03-2010 20:21:01 5.8 C 3.22 g/m*3 5.8 C 0 km/h
1713 02-03-2010 20:33:01 5.5 C 3.3 g/m*3 5.5 C 0 km/h
1714 02-03-2010 20:45:01 5 C 3.47 g/m*3 5 C 0 km/h
1715 02-03-2010 20:57:02 4.4 C 3.66 g/m*3 4.4 C 0 km/h
1716 02-03-2010 21:09:01 4.3 C 3.83 g/m*3 4.3 C 0 km/h
1717 02-03-2010 21:21:02 3.8 C 4.02 g/m*3 3.8 C 0 km/h
1718 02-03-2010 21:33:02 3.2 C 4.34 g/m*3 3.2 C 0 km/h
1719 02-03-2010 21:45:02 2.9 C 4.43 g/m*3 2.9 C 0 km/h
1720 02-03-2010 21:57:02 2.7 C 4.43 g/m*3 2.7 C 0 km/h
1721 02-03-2010 22:10:02 2.5 C 4.37 g/m*3 2.5 C 0 km/h
1722 02-03-2010 22:22:02 2.5 C 4.43 g/m*3 2.5 C 0 km/h
1723 02-03-2010 22:34:02 2.4 C 4.34 g/m*3 2.4 C 0 km/h
1724 02-03-2010 22:46:02 2.2 C 4.34 g/m*3 2.2 C 0 km/h
1725 02-03-2010 22:58:02 2 C 4.28 g/m*3 2 C 0 km/h
Sensor: Nr:Datum:Temp:Abs-Feuchte:Windchill:Wind:
Aussen-T/F 1726 02-03-2010 23:10:02 1.8 C 4.28 g/m*3 1.8 C 0 km/h
1727 02-03-2010 23:22:02 1.7 C 4.3 g/m*3 1.7 C 0 km/h
1728 02-03-2010 23:34:02 1.5 C 4.24 g/m*3 1.5 C 0 km/h
1729 02-03-2010 23:46:02 1.3 C 4.19 g/m*3 1.3 C 0 km/h
1730 02-03-2010 23:58:02 1.3 C 4.13 g/m*3 1.3 C 0 km/h
1731 03-03-2010 00:10:03 1.1 C 4.08 g/m*3 1.1 C 0 km/h
1732 03-03-2010 00:22:03 1.2 C 4.05 g/m*3 1.2 C 0 km/h
1733 03-03-2010 00:34:03 1.1 C 3.92 g/m*3 1.1 C 0 km/h
1734 03-03-2010 00:46:03 0.9 C 3.87 g/m*3 0.9 C 0 km/h
1735 03-03-2010 00:58:03 0.9 C 3.81 g/m*3 0.9 C 0 km/h
1736 03-03-2010 01:10:03 0.8 C 3.79 g/m*3 0.8 C 0 km/h
1737 03-03-2010 01:22:03 0.5 C 3.71 g/m*3 0.5 C 0 km/h
1738 03-03-2010 01:34:03 0.3 C 3.66 g/m*3 0.3 C 0 km/h
1739 03-03-2010 01:46:03 0.1 C 3.66 g/m*3 0.1 C 0 km/h
1740 03-03-2010 01:58:03 -0.1 C 3.66 g/m*3 -0.1 C 0 km/h
1741 03-03-2010 02:10:03 0 C 3.78 g/m*3 0 C 0 km/h
1742 03-03-2010 02:22:03 -0.1 C 3.8 g/m*3 -0.1 C 0 km/h
1743 03-03-2010 02:34:03 -0.4 C 3.72 g/m*3 -0.4 C 0 km/h
1744 03-03-2010 02:46:03 -0.5 C 3.74 g/m*3 -0.5 C 0 km/h
1745 03-03-2010 02:58:03 -0.6 C 3.76 g/m*3 -0.6 C 0 km/h
1746 03-03-2010 03:10:03 -0.7 C 3.74 g/m*3 -0.7 C 0 km/h
1747 03-03-2010 03:22:03 -0.9 C 3.69 g/m*3 -0.9 C 0 km/h
1748 03-03-2010 03:34:03 -0.9 C 3.73 g/m*3 -0.9 C 0 km/h
1749 03-03-2010 03:46:03 -1 C 3.71 g/m*3 -1 C 0 km/h
1750 03-03-2010 03:58:04 -1.1 C 3.68 g/m*3 -1.1 C 0 km/h
Sensor: Nr:Datum:Temp:Abs-Feuchte:Windchill:Wind:
Aussen-T/F 1751 03-03-2010 04:10:04 -1.2 C 3.7 g/m*3 -1.2 C 0 km/h
1752 03-03-2010 04:22:04 -1.3 C 3.67 g/m*3 -1.3 C 0 km/h
1753 03-03-2010 04:34:04 -1.5 C 3.62 g/m*3 -1.5 C 0 km/h
1754 03-03-2010 04:46:04 -1.4 C 3.69 g/m*3 -1.4 C 0 km/h
1755 03-03-2010 04:58:04 -1.6 C 3.64 g/m*3 -1.6 C 0 km/h
1756 03-03-2010 05:10:04 -1.7 C 3.62 g/m*3 -1.7 C 0 km/h
1757 03-03-2010 05:22:04 -2 C 3.54 g/m*3 -2 C 0 km/h
1758 03-03-2010 05:34:04 -2 C 3.54 g/m*3 -2 C 0 km/h
1759 03-03-2010 05:46:04 -2.1 C 3.52 g/m*3 -2.1 C 0 km/h
1760 03-03-2010 05:58:04 -2.1 C 3.56 g/m*3 -2.1 C 0 km/h
1761 03-03-2010 06:10:04 -2.2 C 3.53 g/m*3 -2.2 C 0 km/h
1762 03-03-2010 06:22:04 -1.8 C 3.68 g/m*3 -1.8 C 0 km/h
1763 03-03-2010 06:34:04 -1.4 C 3.82 g/m*3 -1.4 C 0 km/h
1764 03-03-2010 06:46:04 -1.1 C 3.91 g/m*3 -1.1 C 0 km/h
1765 03-03-2010 06:58:04 -1.1 C 3.91 g/m*3 -1.1 C 0 km/h
1766 03-03-2010 07:10:02 -1.1 C 3.86 g/m*3 -1.1 C 0 km/h
1767 03-03-2010 07:22:02 -1.1 C 3.86 g/m*3 -1.1 C 0 km/h
1768 03-03-2010 07:34:02 -1.1 C 3.82 g/m*3 -1.1 C 0 km/h
1769 03-03-2010 07:46:02 -1.3 C 3.72 g/m*3 -1.3 C 0 km/h
1770 03-03-2010 07:58:02 -1.5 C 3.67 g/m*3 -1.5 C 0 km/h
1771 03-03-2010 08:10:02 -1.4 C 3.69 g/m*3 -1.4 C 0 km/h
1772 03-03-2010 08:22:02 -1.3 C 3.72 g/m*3 -1.3 C 0 km/h
1773 03-03-2010 08:34:02 -1.2 C 3.79 g/m*3 -1.2 C 0 km/h
1774 03-03-2010 08:46:02 -0.7 C 3.92 g/m*3 -0.7 C 0 km/h
1775 03-03-2010 08:58:02 0.1 C 4.2 g/m*3 0.1 C 0 km/h
Sensor: Nr:Datum:Temp:Abs-Feuchte:Windchill:Wind:
Aussen-T/F 1776 03-03-2010 09:10:01 0.6 C 4.29 g/m*3 0.6 C 0 km/h
1777 03-03-2010 09:22:02 0.8 C 4.15 g/m*3 0.8 C 0 km/h
1778 03-03-2010 09:34:02 1 C 3.84 g/m*3 1 C 0 km/h
1779 03-03-2010 09:46:02 1.2 C 3.68 g/m*3 1.2 C 0 km/h
1780 03-03-2010 09:58:02 1.5 C 3.54 g/m*3 1.5 C 0 km/h
1781 03-03-2010 10:10:03 1.4 C 3.41 g/m*3 1.4 C 0 km/h
1782 03-03-2010 10:22:02 1.1 C 3.4 g/m*3 1.1 C 0 km/h
1783 03-03-2010 10:34:02 1.2 C 3.47 g/m*3 1.2 C 0 km/h
1784 03-03-2010 10:46:01 1.3 C 3.5 g/m*3 1.3 C 0 km/h
1785 03-03-2010 10:58:01 1.7 C 3.54 g/m*3 1.7 C 0 km/h
1786 03-03-2010 11:10:02 2.2 C 3.49 g/m*3 2.2 C 0 km/h
1787 03-03-2010 11:22:01 2.5 C 3.45 g/m*3 2.5 C 0 km/h
1788 03-03-2010 11:34:01 2.8 C 3.46 g/m*3 2.8 C 0 km/h
1789 03-03-2010 11:46:01 3.1 C 3.35 g/m*3 3.1 C 0 km/h
1790 03-03-2010 11:58:01 3.7 C 3.24 g/m*3 3.7 C 0 km/h
1791 03-03-2010 12:10:02 4.3 C 3.24 g/m*3 4.3 C 0 km/h
1792 03-03-2010 12:22:01 4.8 C 3.22 g/m*3 4.8 C 0 km/h
1793 03-03-2010 12:34:02 5.1 C 3.15 g/m*3 5.1 C 0 km/h
1794 03-03-2010 12:46:01 5.8 C 3.15 g/m*3 5.8 C 0 km/h
1795 03-03-2010 12:58:01 6.5 C 3 g/m*3 6.5 C 0 km/h
1796 03-03-2010 13:10:02 7 C 2.94 g/m*3 7 C 0 km/h
1797 03-03-2010 13:22:01 7.8 C 2.86 g/m*3 7.8 C 0 km/h
1798 03-03-2010 13:34:02 8.5 C 2.48 g/m*3 8.5 C 0 km/h
1799 03-03-2010 13:46:01 8.9 C 2.19 g/m*3 8.9 C 0 km/h
1800 03-03-2010 13:58:01 9.1 C 1.77 g/m*3 9.1 C 0 km/h
Sensor: Nr:Datum:Temp:Abs-Feuchte:Windchill:Wind:
Aussen-T/F 1801 03-03-2010 14:10:02 9.4 C 1.81 g/m*3 9.4 C 0 km/h
1802 03-03-2010 14:22:02 9.8 C 1.86 g/m*3 9.8 C 0 km/h
1803 03-03-2010 14:34:01 10.3 C 1.92 g/m*3 10.3 C 0 km/h
1804 03-03-2010 14:46:02 10.5 C 1.94 g/m*3 10.5 C 0 km/h
1805 03-03-2010 14:58:02 10.2 C 1.9 g/m*3 10.2 C 0 km/h
1806 03-03-2010 15:10:01 10.7 C 1.96 g/m*3 10.7 C 0 km/h
1807 03-03-2010 15:22:02 11 C 2 g/m*3 11 C 0 km/h
1808 03-03-2010 15:34:01 11 C 2 g/m*3 11 C 0 km/h
1809 03-03-2010 15:46:03 10.5 C 1.94 g/m*3 10.5 C 0 km/h
1810 03-03-2010 15:58:03 11 C 2 g/m*3 11 C 0 km/h
1811 03-03-2010 16:10:02 11.2 C 2.03 g/m*3 11.2 C 0 km/h
1812 03-03-2010 16:22:02 11.5 C 2.07 g/m*3 11.5 C 0 km/h
1813 03-03-2010 16:34:02 11.1 C 2.01 g/m*3 11.1 C 0 km/h
1814 03-03-2010 16:46:02 10.3 C 1.92 g/m*3 10.3 C 0 km/h
1815 03-03-2010 16:58:02 10.3 C 1.92 g/m*3 10.3 C 0 km/h
1816 03-03-2010 17:10:01 9.3 C 1.8 g/m*3 9.3 C 0 km/h
1817 03-03-2010 17:22:02 8.5 C 1.71 g/m*3 8.5 C 0 km/h
1818 03-03-2010 17:34:02 7.8 C 1.63 g/m*3 7.8 C 0 km/h
1819 03-03-2010 17:46:02 7.2 C 1.96 g/m*3 7.2 C 0 km/h
1820 03-03-2010 17:58:03 6.6 C 1.89 g/m*3 6.6 C 0 km/h
1821 03-03-2010 18:10:02 6.2 C 2.21 g/m*3 6.2 C 0 km/h
1822 03-03-2010 18:22:02 5.7 C 2.13 g/m*3 5.7 C 0 km/h
1823 03-03-2010 18:34:03 5.4 C 2.02 g/m*3 5.4 C 0 km/h
1824 03-03-2010 18:46:02 5.1 C 2.05 g/m*3 5.1 C 0 km/h
1825 03-03-2010 18:58:02 4.8 C 2.15 g/m*3 4.8 C 0 km/h
Sensor: Nr:Datum:Temp:Abs-Feuchte:Windchill:Wind:
Aussen-T/F 1826 03-03-2010 19:10:02 4.6 C 2.12 g/m*3 4.6 C 0 km/h
1827 03-03-2010 19:22:02 4.4 C 2.15 g/m*3 4.4 C 0 km/h
1828 03-03-2010 19:34:02 4.2 C 2.19 g/m*3 4.2 C 0 km/h
1829 03-03-2010 19:46:02 4.1 C 2.24 g/m*3 4.1 C 0 km/h
1830 03-03-2010 19:58:02 3.9 C 2.46 g/m*3 3.9 C 0 km/h
1831 03-03-2010 20:10:02 3.7 C 2.49 g/m*3 3.7 C 0 km/h
1832 03-03-2010 20:22:02 3.7 C 2.49 g/m*3 3.7 C 0 km/h
1833 03-03-2010 20:34:02 3.6 C 2.54 g/m*3 3.6 C 0 km/h
1834 03-03-2010 20:46:01 3.4 C 2.57 g/m*3 3.4 C 0 km/h
1835 03-03-2010 20:58:01 3.3 C 2.55 g/m*3 3.3 C 0 km/h
1836 03-03-2010 21:10:02 3.2 C 2.59 g/m*3 3.2 C 0 km/h
1837 03-03-2010 21:22:01 3 C 2.62 g/m*3 3 C 0 km/h
1838 03-03-2010 21:34:02 3 C 2.68 g/m*3 3 C 0 km/h
1839 03-03-2010 21:46:02 2.9 C 2.72 g/m*3 2.9 C 0 km/h
1840 03-03-2010 21:58:02 2.8 C 2.76 g/m*3 2.8 C 0 km/h
1841 03-03-2010 22:11:02 2.7 C 2.8 g/m*3 2.7 C 0 km/h
1842 03-03-2010 22:23:02 2.6 C 2.84 g/m*3 2.6 C 0 km/h
1843 03-03-2010 22:35:02 2.5 C 2.82 g/m*3 2.5 C 0 km/h
1844 03-03-2010 22:47:03 2.4 C 2.8 g/m*3 2.4 C 0 km/h
1845 03-03-2010 22:59:03 2.2 C 2.82 g/m*3 2.2 C 0 km/h
1846 03-03-2010 23:11:03 1.9 C 2.87 g/m*3 1.9 C 0 km/h
1847 03-03-2010 23:23:03 1.7 C 2.89 g/m*3 1.7 C 0 km/h
1848 03-03-2010 23:35:03 1.6 C 2.92 g/m*3 1.6 C 0 km/h
1849 03-03-2010 23:47:03 1.5 C 2.95 g/m*3 1.5 C 0 km/h
1850 03-03-2010 23:59:03 1.4 C 2.93 g/m*3 1.4 C 0 km/h
Sensor: Nr:Datum:Temp:Abs-Feuchte:Windchill:Wind:
Aussen-T/F 1851 04-03-2010 00:11:03 1.3 C 2.97 g/m*3 1.3 C 0 km/h
1852 04-03-2010 00:23:03 1.2 C 2.89 g/m*3 1.2 C 0 km/h
1853 04-03-2010 00:35:03 1.2 C 2.89 g/m*3 1.2 C 0 km/h
1854 04-03-2010 00:47:03 1.2 C 2.89 g/m*3 1.2 C 0 km/h
1855 04-03-2010 00:59:03 1.3 C 2.91 g/m*3 1.3 C 0 km/h
1856 04-03-2010 01:11:03 1.3 C 2.91 g/m*3 1.3 C 0 km/h
1857 04-03-2010 01:23:03 1.2 C 2.89 g/m*3 1.2 C 0 km/h
1858 04-03-2010 01:35:03 1.1 C 2.87 g/m*3 1.1 C 0 km/h
1859 04-03-2010 01:47:03 1.2 C 2.89 g/m*3 1.2 C 0 km/h
1860 04-03-2010 01:59:03 1 C 2.85 g/m*3 1 C 0 km/h
1861 04-03-2010 02:11:03 0.8 C 2.92 g/m*3 0.8 C 0 km/h
1862 04-03-2010 02:23:03 0.5 C 2.96 g/m*3 0.5 C 0 km/h
1863 04-03-2010 02:35:03 0.2 C 2.95 g/m*3 0.2 C 0 km/h
1864 04-03-2010 02:47:03 0.1 C 2.98 g/m*3 0.1 C 0 km/h
1865 04-03-2010 02:59:04 0 C 2.96 g/m*3 0 C 0 km/h
1866 04-03-2010 03:11:04 -0.2 C 2.96 g/m*3 -0.2 C 0 km/h
1867 04-03-2010 03:23:04 -0.4 C 2.87 g/m*3 -0.4 C 0 km/h
1868 04-03-2010 03:35:04 -0.6 C 2.88 g/m*3 -0.6 C 0 km/h
1869 04-03-2010 03:47:04 -0.7 C 2.86 g/m*3 -0.7 C 0 km/h
1870 04-03-2010 03:59:04 -0.8 C 2.89 g/m*3 -0.8 C 0 km/h
1871 04-03-2010 04:11:04 -0.9 C 2.87 g/m*3 -0.9 C 0 km/h
1872 04-03-2010 04:23:04 -0.7 C 2.95 g/m*3 -0.7 C 0 km/h
1873 04-03-2010 04:35:04 -0.7 C 2.91 g/m*3 -0.7 C 0 km/h
1874 04-03-2010 04:47:04 -0.7 C 2.95 g/m*3 -0.7 C 0 km/h
1875 04-03-2010 04:59:04 -0.8 C 2.89 g/m*3 -0.8 C 0 km/h
Sensor: Nr:Datum:Temp:Abs-Feuchte:Windchill:Wind:
Aussen-T/F 1876 04-03-2010 05:11:04 -0.7 C 2.95 g/m*3 -0.7 C 0 km/h
1877 04-03-2010 05:23:04 -0.8 C 2.93 g/m*3 -0.8 C 0 km/h
1878 04-03-2010 05:35:04 -0.9 C 2.96 g/m*3 -0.9 C 0 km/h
1879 04-03-2010 05:47:04 -0.7 C 3 g/m*3 -0.7 C 0 km/h
1880 04-03-2010 05:59:04 -1 C 2.94 g/m*3 -1 C 0 km/h
1881 04-03-2010 06:11:04 -1 C 2.98 g/m*3 -1 C 0 km/h
1882 04-03-2010 06:23:04 -1.1 C 2.96 g/m*3 -1.1 C 0 km/h
1883 04-03-2010 06:35:04 -1.3 C 2.92 g/m*3 -1.3 C 0 km/h
1884 04-03-2010 06:47:04 -1.4 C 2.95 g/m*3 -1.4 C 0 km/h
1885 04-03-2010 06:59:04 -1.4 C 2.99 g/m*3 -1.4 C 0 km/h
1886 04-03-2010 07:11:01 -1.4 C 3.03 g/m*3 -1.4 C 0 km/h
1887 04-03-2010 07:23:02 -1.3 C 3.05 g/m*3 -1.3 C 0 km/h
1888 04-03-2010 07:35:02 -1.3 C 3.01 g/m*3 -1.3 C 0 km/h
1889 04-03-2010 07:47:01 -1.2 C 3.08 g/m*3 -1.2 C 0 km/h
1890 04-03-2010 07:59:01 -1.1 C 3.1 g/m*3 -1.1 C 0 km/h
1891 04-03-2010 08:11:02 -1.1 C 3.1 g/m*3 -1.1 C 0 km/h
1892 04-03-2010 08:23:01 -1 C 3.12 g/m*3 -1 C 0 km/h
1893 04-03-2010 08:35:01 -1.1 C 3.1 g/m*3 -1.1 C 0 km/h
1894 04-03-2010 08:47:02 -1.1 C 3.1 g/m*3 -1.1 C 0 km/h
1895 04-03-2010 08:59:02 -1 C 3.16 g/m*3 -1 C 0 km/h
1896 04-03-2010 09:11:02 -0.5 C 3.23 g/m*3 -0.5 C 0 km/h
1897 04-03-2010 09:23:02 0 C 3.29 g/m*3 0 C 0 km/h
1898 04-03-2010 09:35:01 0.2 C 3.24 g/m*3 0.2 C 0 km/h
1899 04-03-2010 09:47:02 0.5 C 3.26 g/m*3 0.5 C 0 km/h
1900 04-03-2010 09:59:02 1.3 C 3.34 g/m*3 1.3 C 0 km/h
Sensor: Nr:Datum:Temp:Abs-Feuchte:Windchill:Wind:
Aussen-T/F 1901 04-03-2010 10:11:01 2 C 3.28 g/m*3 2 C 0 km/h
1902 04-03-2010 10:23:02 3 C 3.21 g/m*3 3 C 0 km/h
1903 04-03-2010 10:35:02 3.6 C 2.85 g/m*3 3.6 C 0 km/h
1904 04-03-2010 10:47:02 3.4 C 2.63 g/m*3 3.4 C 0 km/h
1905 04-03-2010 10:59:03 3.9 C 2.59 g/m*3 3.9 C 0 km/h
1906 04-03-2010 11:11:01 3.8 C 2.45 g/m*3 3.8 C 0 km/h
1907 04-03-2010 11:23:02 4.1 C 2.24 g/m*3 4.1 C 0 km/h
1908 04-03-2010 11:35:02 4.4 C 2.35 g/m*3 4.4 C 0 km/h
1909 04-03-2010 11:47:01 4.6 C 2.32 g/m*3 4.6 C 0 km/h
1910 04-03-2010 11:59:01 4.3 C 2.08 g/m*3 4.3 C 0 km/h
1911 04-03-2010 12:11:02 4.2 C 2.19 g/m*3 4.2 C 0 km/h
1912 04-03-2010 12:23:01 4.5 C 2.3 g/m*3 4.5 C 0 km/h
1913 04-03-2010 12:35:01 4.8 C 2.28 g/m*3 4.8 C 0 km/h
1914 04-03-2010 12:47:02 4.8 C 2.08 g/m*3 4.8 C 0 km/h
1915 04-03-2010 12:59:02 5.8 C 2.08 g/m*3 5.8 C 0 km/h
1916 04-03-2010 13:11:02 6.3 C 1.92 g/m*3 6.3 C 0 km/h
1917 04-03-2010 13:23:01 6.8 C 1.53 g/m*3 6.8 C 0 km/h
1918 04-03-2010 13:35:02 7.1 C 1.56 g/m*3 7.1 C 0 km/h
1919 04-03-2010 13:47:02 6.9 C 1.54 g/m*3 6.9 C 0 km/h
1920 04-03-2010 13:59:02 7.1 C 1.56 g/m*3 7.1 C 0 km/h
1921 04-03-2010 14:11:02 7.9 C 1.64 g/m*3 7.9 C 0 km/h
1922 04-03-2010 14:23:01 8.2 C 1.67 g/m*3 8.2 C 0 km/h
1923 04-03-2010 14:35:02 9 C 1.76 g/m*3 9 C 0 km/h
1924 04-03-2010 14:47:02 8.9 C 1.75 g/m*3 8.9 C 0 km/h
1925 04-03-2010 14:59:02 9.2 C 1.79 g/m*3 9.2 C 0 km/h
Sensor: Nr:Datum:Temp:Abs-Feuchte:Windchill:Wind:
Aussen-T/F 1926 04-03-2010 15:11:02 9.2 C 1.79 g/m*3 9.2 C 0 km/h
1927 04-03-2010 15:23:01 9.3 C 1.8 g/m*3 9.3 C 0 km/h
1928 04-03-2010 15:35:02 8.2 C 1.67 g/m*3 8.2 C 0 km/h
1929 04-03-2010 15:47:02 8.9 C 1.75 g/m*3 8.9 C 0 km/h
1930 04-03-2010 15:59:02 9.2 C 1.79 g/m*3 9.2 C 0 km/h
1931 04-03-2010 16:11:02 9.4 C 1.81 g/m*3 9.4 C 0 km/h
1932 04-03-2010 16:23:01 9.3 C 1.8 g/m*3 9.3 C 0 km/h
1933 04-03-2010 16:35:02 9.1 C 1.77 g/m*3 9.1 C 0 km/h
1934 04-03-2010 16:47:01 9 C 1.76 g/m*3 9 C 0 km/h
1935 04-03-2010 16:59:01 8.5 C 1.71 g/m*3 8.5 C 0 km/h
1936 04-03-2010 17:11:02 8.3 C 1.69 g/m*3 8.3 C 0 km/h
1937 04-03-2010 17:23:02 7.7 C 1.62 g/m*3 7.7 C 0 km/h
1938 04-03-2010 17:35:01 7.3 C 1.58 g/m*3 7.3 C 0 km/h
1939 04-03-2010 17:47:02 6.9 C 1.54 g/m*3 6.9 C 0 km/h
1940 04-03-2010 17:59:02 5.7 C 1.42 g/m*3 5.7 C 0 km/h
1941 04-03-2010 18:11:01 4.9 C 1.42 g/m*3 4.9 C 0 km/h
1942 04-03-2010 18:23:02 4.3 C 1.62 g/m*3 4.3 C 0 km/h
1943 04-03-2010 18:35:01 4 C 1.78 g/m*3 4 C 0 km/h
1944 04-03-2010 18:47:02 3.5 C 1.91 g/m*3 3.5 C 0 km/h
1945 04-03-2010 18:59:02 3.2 C 1.93 g/m*3 3.2 C 0 km/h
1946 04-03-2010 19:11:02 3 C 2.08 g/m*3 3 C 0 km/h
1947 04-03-2010 19:23:02 2.6 C 2.14 g/m*3 2.6 C 0 km/h
1948 04-03-2010 19:35:02 2.2 C 2.25 g/m*3 2.2 C 0 km/h
1949 04-03-2010 19:47:01 1.9 C 2.32 g/m*3 1.9 C 0 km/h
1950 04-03-2010 19:59:01 1.6 C 2.33 g/m*3 1.6 C 0 km/h
Sensor: Nr:Datum:Temp:Abs-Feuchte:Windchill:Wind:
Aussen-T/F 1951 04-03-2010 20:11:02 1.5 C 2.36 g/m*3 1.5 C 0 km/h
1952 04-03-2010 20:23:02 1.4 C 2.35 g/m*3 1.4 C 0 km/h
1953 04-03-2010 20:35:01 1.3 C 2.38 g/m*3 1.3 C 0 km/h
1954 04-03-2010 20:47:02 1.1 C 2.35 g/m*3 1.1 C 0 km/h
1955 04-03-2010 20:59:02 1.1 C 2.51 g/m*3 1.1 C 0 km/h
1956 04-03-2010 21:11:02 1.1 C 2.51 g/m*3 1.1 C 0 km/h
1957 04-03-2010 21:23:01 1.1 C 2.51 g/m*3 1.1 C 0 km/h
1958 04-03-2010 21:35:02 0.8 C 2.56 g/m*3 0.8 C 0 km/h
1959 04-03-2010 21:47:02 0.6 C 2.58 g/m*3 0.6 C 0 km/h
1960 04-03-2010 21:59:02 0.7 C 2.59 g/m*3 0.7 C 0 km/h
1961 04-03-2010 22:11:02 0.9 C 2.68 g/m*3 0.9 C 0 km/h
1962 04-03-2010 22:24:03 0.7 C 2.64 g/m*3 0.7 C 0 km/h
1963 04-03-2010 22:36:03 0.3 C 2.57 g/m*3 0.3 C 0 km/h
1964 04-03-2010 22:48:03 0.1 C 2.63 g/m*3 0.1 C 0 km/h
1965 04-03-2010 23:00:03 0 C 2.62 g/m*3 0 C 0 km/h
1966 04-03-2010 23:12:03 -0.1 C 2.6 g/m*3 -0.1 C 0 km/h
1967 04-03-2010 23:24:03 -0.2 C 2.53 g/m*3 -0.2 C 0 km/h
1968 04-03-2010 23:36:03 -0.2 C 2.53 g/m*3 -0.2 C 0 km/h
1969 04-03-2010 23:48:03 -0.3 C 2.56 g/m*3 -0.3 C 0 km/h
1970 05-03-2010 00:00:03 -0.4 C 2.5 g/m*3 -0.4 C 0 km/h
1971 05-03-2010 00:12:03 -0.5 C 2.53 g/m*3 -0.5 C 0 km/h
1972 05-03-2010 00:24:03 -0.7 C 2.49 g/m*3 -0.7 C 0 km/h
1973 05-03-2010 00:36:03 -1 C 2.49 g/m*3 -1 C 0 km/h
1974 05-03-2010 00:48:03 -1.1 C 2.47 g/m*3 -1.1 C 0 km/h
1975 05-03-2010 01:00:03 -1.3 C 2.43 g/m*3 -1.3 C 0 km/h
Sensor: Nr:Datum:Temp:Abs-Feuchte:Windchill:Wind:
Aussen-T/F 1976 05-03-2010 01:12:03 -1.4 C 2.46 g/m*3 -1.4 C 0 km/h
1977 05-03-2010 01:24:03 -1.6 C 2.43 g/m*3 -1.6 C 0 km/h
1978 05-03-2010 01:36:04 -1.5 C 2.44 g/m*3 -1.5 C 0 km/h
1979 05-03-2010 01:48:04 -1.5 C 2.4 g/m*3 -1.5 C 0 km/h
1980 05-03-2010 02:00:04 -1.6 C 2.38 g/m*3 -1.6 C 0 km/h
1981 05-03-2010 02:12:04 -1.4 C 2.37 g/m*3 -1.4 C 0 km/h
1982 05-03-2010 02:24:04 -1.3 C 2.26 g/m*3 -1.3 C 0 km/h
1983 05-03-2010 02:36:04 -1.5 C 2.18 g/m*3 -1.5 C 0 km/h
1984 05-03-2010 02:48:04 -1.7 C 2.15 g/m*3 -1.7 C 0 km/h
1985 05-03-2010 03:00:04 -1.7 C 2.11 g/m*3 -1.7 C 0 km/h
1986 05-03-2010 03:12:04 -1.9 C 2.04 g/m*3 -1.9 C 0 km/h
1987 05-03-2010 03:24:04 -2 C 2.11 g/m*3 -2 C 0 km/h
1988 05-03-2010 03:36:04 -1.9 C 2.16 g/m*3 -1.9 C 0 km/h
1989 05-03-2010 03:48:04 -1.9 C 2.16 g/m*3 -1.9 C 0 km/h
1990 05-03-2010 04:00:04 -1.9 C 2.21 g/m*3 -1.9 C 0 km/h
1991 05-03-2010 04:12:04 -2.1 C 2.18 g/m*3 -2.1 C 0 km/h
1992 05-03-2010 04:24:04 -2.3 C 2.19 g/m*3 -2.3 C 0 km/h
1993 05-03-2010 04:36:04 -2.4 C 2.21 g/m*3 -2.4 C 0 km/h
1994 05-03-2010 04:48:04 -2.4 C 2.25 g/m*3 -2.4 C 0 km/h
1995 05-03-2010 05:00:04 -2.5 C 2.28 g/m*3 -2.5 C 0 km/h
1996 05-03-2010 05:12:04 -2.6 C 2.3 g/m*3 -2.6 C 0 km/h
1997 05-03-2010 05:24:04 -2.6 C 2.38 g/m*3 -2.6 C 0 km/h
1998 05-03-2010 05:36:04 -2.8 C 2.43 g/m*3 -2.8 C 0 km/h
1999 05-03-2010 05:48:05 -2.3 C 2.64 g/m*3 -2.3 C 0 km/h
2000 05-03-2010 06:00:05 -1.9 C 2.67 g/m*3 -1.9 C 0 km/h
Sensor: Nr:Datum:Temp:Abs-Feuchte:Windchill:Wind:
Aussen-T/F 2001 05-03-2010 06:12:05 -2 C 2.7 g/m*3 -2 C 0 km/h
2002 05-03-2010 06:24:05 -2.4 C 2.62 g/m*3 -2.4 C 0 km/h
2003 05-03-2010 06:36:05 -2.6 C 2.63 g/m*3 -2.6 C 0 km/h
2004 05-03-2010 06:48:05 -2.8 C 2.63 g/m*3 -2.8 C 0 km/h
2005 05-03-2010 07:00:05 -2.9 C 2.65 g/m*3 -2.9 C 0 km/h
2006 05-03-2010 07:12:02 -2.9 C 2.69 g/m*3 -2.9 C 0 km/h
2007 05-03-2010 07:24:03 -2.8 C 2.71 g/m*3 -2.8 C 0 km/h
2008 05-03-2010 07:36:02 -2.7 C 2.77 g/m*3 -2.7 C 0 km/h
2009 05-03-2010 07:48:02 -2.9 C 2.69 g/m*3 -2.9 C 0 km/h
2010 05-03-2010 08:00:02 -2.9 C 2.73 g/m*3 -2.9 C 0 km/h
2011 05-03-2010 08:12:02 -2.8 C 2.75 g/m*3 -2.8 C 0 km/h
2012 05-03-2010 08:24:03 -2.8 C 2.75 g/m*3 -2.8 C 0 km/h
2013 05-03-2010 08:36:02 -2.6 C 2.83 g/m*3 -2.6 C 0 km/h
2014 05-03-2010 08:48:01 -2.6 C 2.79 g/m*3 -2.6 C 0 km/h
2015 05-03-2010 09:00:01 -2.5 C 2.77 g/m*3 -2.5 C 0 km/h
2016 05-03-2010 09:12:02 -2.3 C 2.72 g/m*3 -2.3 C 0 km/h
2017 05-03-2010 09:24:01 -2 C 2.66 g/m*3 -2 C 0 km/h
2018 05-03-2010 09:36:02 -1.8 C 2.48 g/m*3 -1.8 C 0 km/h
2019 05-03-2010 09:48:02 -1.4 C 2.46 g/m*3 -1.4 C 0 km/h
2020 05-03-2010 10:00:02 -1 C 2.49 g/m*3 -1 C 0 km/h
2021 05-03-2010 10:12:02 -0.5 C 2.53 g/m*3 -0.5 C 0 km/h
2022 05-03-2010 10:24:02 0.4 C 2.54 g/m*3 0.4 C 0 km/h
2023 05-03-2010 10:36:02 0.9 C 2.06 g/m*3 0.9 C 0 km/h
2024 05-03-2010 10:48:02 1.4 C 1.92 g/m*3 1.4 C 0 km/h
2025 05-03-2010 11:00:02 1.8 C 1.97 g/m*3 1.8 C 0 km/h
Sensor: Nr:Datum:Temp:Abs-Feuchte:Windchill:Wind:
Aussen-T/F 2026 05-03-2010 11:12:02 2.1 C 2.01 g/m*3 2.1 C 0 km/h
2027 05-03-2010 11:24:02 2.1 C 1.96 g/m*3 2.1 C 0 km/h
2028 05-03-2010 11:36:02 2.2 C 1.52 g/m*3 2.2 C 0 km/h
2029 05-03-2010 11:48:01 2.5 C 1.21 g/m*3 2.5 C 0 km/h
2030 05-03-2010 12:00:01 3.5 C 1.54 g/m*3 3.5 C 0 km/h
2031 05-03-2010 12:12:02 2.5 C 1.21 g/m*3 2.5 C 0 km/h
2032 05-03-2010 12:24:01 2.7 C 1.34 g/m*3 2.7 C 0 km/h
2033 05-03-2010 12:36:01 3 C 1.19 g/m*3 3 C 0 km/h
2034 05-03-2010 12:48:01 3.6 C 1.24 g/m*3 3.6 C 0 km/h
2035 05-03-2010 13:00:01 3.5 C 1.23 g/m*3 3.5 C 0 km/h
2036 05-03-2010 13:12:02 3.3 C 1.21 g/m*3 3.3 C 0 km/h
2037 05-03-2010 13:24:01 3.5 C 1.23 g/m*3 3.5 C 0 km/h
2038 05-03-2010 13:36:01 3.2 C 1.21 g/m*3 3.2 C 0 km/h
2039 05-03-2010 13:48:01 3.2 C 1.51 g/m*3 3.2 C 0 km/h
2040 05-03-2010 14:00:01 3.1 C 1.26 g/m*3 3.1 C 0 km/h
2041 05-03-2010 14:12:02 3.6 C 1.3 g/m*3 3.6 C 0 km/h
2042 05-03-2010 14:24:02 4 C 1.27 g/m*3 4 C 0 km/h
2043 05-03-2010 14:36:01 3.7 C 1.25 g/m*3 3.7 C 0 km/h
2044 05-03-2010 14:48:01 4 C 1.34 g/m*3 4 C 0 km/h
2045 05-03-2010 15:00:01 4.5 C 1.38 g/m*3 4.5 C 0 km/h
2046 05-03-2010 15:12:02 5.2 C 1.58 g/m*3 5.2 C 0 km/h
2047 05-03-2010 15:24:02 4.8 C 1.41 g/m*3 4.8 C 0 km/h
2048 05-03-2010 15:36:01 5.5 C 1.47 g/m*3 5.5 C 0 km/h
2049 05-03-2010 15:48:01 6 C 1.45 g/m*3 6 C 0 km/h
2050 05-03-2010 16:00:01 5.4 C 1.4 g/m*3 5.4 C 0 km/h
Sensor: Nr:Datum:Temp:Abs-Feuchte:Windchill:Wind:
Aussen-T/F 2051 05-03-2010 16:12:01 4.9 C 1.35 g/m*3 4.9 C 0 km/h
2052 05-03-2010 16:24:02 4.8 C 1.34 g/m*3 4.8 C 0 km/h
2053 05-03-2010 16:36:01 4.5 C 1.38 g/m*3 4.5 C 0 km/h
2054 05-03-2010 16:48:02 4.4 C 1.63 g/m*3 4.4 C 0 km/h
2055 05-03-2010 17:00:02 4.4 C 1.7 g/m*3 4.4 C 0 km/h
2056 05-03-2010 17:12:01 4.3 C 1.49 g/m*3 4.3 C 0 km/h
2057 05-03-2010 17:24:02 4.2 C 1.48 g/m*3 4.2 C 0 km/h
2058 05-03-2010 17:36:01 4 C 1.46 g/m*3 4 C 0 km/h
2059 05-03-2010 17:48:03 3.8 C 1.44 g/m*3 3.8 C 0 km/h
2060 05-03-2010 18:00:03 3.8 C 1.57 g/m*3 3.8 C 0 km/h
2061 05-03-2010 18:12:02 3.5 C 1.66 g/m*3 3.5 C 0 km/h
2062 05-03-2010 18:24:02 3.3 C 1.82 g/m*3 3.3 C 0 km/h
2063 05-03-2010 18:36:02 3.2 C 1.99 g/m*3 3.2 C 0 km/h
2064 05-03-2010 18:48:02 3.1 C 2.21 g/m*3 3.1 C 0 km/h
2065 05-03-2010 19:00:02 3 C 2.32 g/m*3 3 C 0 km/h
2066 05-03-2010 19:12:02 2.9 C 2.42 g/m*3 2.9 C 0 km/h
2067 05-03-2010 19:24:02 2.8 C 2.46 g/m*3 2.8 C 0 km/h
2068 05-03-2010 19:36:02 2.7 C 2.56 g/m*3 2.7 C 0 km/h
2069 05-03-2010 19:48:02 2.6 C 2.66 g/m*3 2.6 C 0 km/h
2070 05-03-2010 20:00:02 2.5 C 2.7 g/m*3 2.5 C 0 km/h
2071 05-03-2010 20:12:01 2.5 C 2.76 g/m*3 2.5 C 0 km/h
2072 05-03-2010 20:24:02 2.4 C 2.8 g/m*3 2.4 C 0 km/h
2073 05-03-2010 20:36:01 2.5 C 2.82 g/m*3 2.5 C 0 km/h
2074 05-03-2010 20:48:02 2.5 C 2.82 g/m*3 2.5 C 0 km/h
2075 05-03-2010 21:00:02 2.5 C 2.82 g/m*3 2.5 C 0 km/h
Sensor: Nr:Datum:Temp:Abs-Feuchte:Windchill:Wind:
Aussen-T/F 2076 05-03-2010 21:12:01 2.4 C 2.91 g/m*3 2.4 C 0 km/h
2077 05-03-2010 21:24:01 2.1 C 3.13 g/m*3 2.1 C 0 km/h
2078 05-03-2010 21:36:02 1.8 C 3.4 g/m*3 1.8 C 0 km/h
2079 05-03-2010 21:48:02 1.5 C 3.54 g/m*3 1.5 C 0 km/h
2080 05-03-2010 22:00:03 1.3 C 3.71 g/m*3 1.3 C 0 km/h
2081 05-03-2010 22:12:02 1 C 3.84 g/m*3 1 C 0 km/h
2082 05-03-2010 22:24:02 0.9 C 3.97 g/m*3 0.9 C 0 km/h
2083 05-03-2010 22:36:02 0.8 C 4.04 g/m*3 0.8 C 0 km/h
2084 05-03-2010 22:48:02 0.8 C 4.1 g/m*3 0.8 C 0 km/h
2085 05-03-2010 23:00:02 0.7 C 4.12 g/m*3 0.7 C 0 km/h
2086 05-03-2010 23:12:01 0.5 C 4.16 g/m*3 0.5 C 0 km/h
2087 05-03-2010 23:24:02 0.6 C 4.24 g/m*3 0.6 C 0 km/h
2088 05-03-2010 23:36:02 0.7 C 4.27 g/m*3 0.7 C 0 km/h
2089 05-03-2010 23:48:02 0.7 C 4.27 g/m*3 0.7 C 0 km/h
2090 06-03-2010 00:00:03 0.9 C 4.28 g/m*3 0.9 C 0 km/h
2091 06-03-2010 00:12:02 0.7 C 4.17 g/m*3 0.7 C 0 km/h
2092 06-03-2010 00:25:05 0.6 C 4.24 g/m*3 0.6 C 0 km/h
2093 06-03-2010 00:37:05 0.7 C 4.27 g/m*3 0.7 C 0 km/h
2094 06-03-2010 00:49:05 0.6 C 4.29 g/m*3 0.6 C 0 km/h
2095 06-03-2010 01:01:05 0.6 C 4.34 g/m*3 0.6 C 0 km/h
2096 06-03-2010 01:13:05 0.5 C 4.36 g/m*3 0.5 C 0 km/h
2097 06-03-2010 01:25:05 0.5 C 4.41 g/m*3 0.5 C 0 km/h
2098 06-03-2010 01:37:06 0.4 C 4.43 g/m*3 0.4 C 0 km/h
2099 06-03-2010 01:49:06 0.5 C 4.46 g/m*3 0.5 C 0 km/h
2100 06-03-2010 02:01:06 0.6 C 4.54 g/m*3 0.6 C 0 km/h
Sensor: Nr:Datum:Temp:Abs-Feuchte:Windchill:Wind:
Aussen-T/F 2101 06-03-2010 02:13:06 0.6 C 4.6 g/m*3 0.6 C 0 km/h
2102 06-03-2010 02:25:06 0.6 C 4.6 g/m*3 0.6 C 0 km/h
2103 06-03-2010 02:37:06 0.6 C 4.6 g/m*3 0.6 C 0 km/h
2104 06-03-2010 02:49:06 0.5 C 4.61 g/m*3 0.5 C 0 km/h
2105 06-03-2010 03:01:06 0.4 C 4.58 g/m*3 0.4 C 0 km/h
2106 06-03-2010 03:13:06 0.3 C 4.55 g/m*3 0.3 C 0 km/h
2107 06-03-2010 03:25:06 0.2 C 4.57 g/m*3 0.2 C 0 km/h
2108 06-03-2010 03:37:06 0.1 C 4.54 g/m*3 0.1 C 0 km/h
2109 06-03-2010 03:49:06 0 C 4.51 g/m*3 0 C 0 km/h
2110 06-03-2010 04:01:06 0 C 4.51 g/m*3 0 C 0 km/h
2111 06-03-2010 04:13:06 0 C 4.51 g/m*3 0 C 0 km/h
2112 06-03-2010 04:25:06 0 C 4.51 g/m*3 0 C 0 km/h
2113 06-03-2010 04:37:06 0 C 4.55 g/m*3 0 C 0 km/h
2114 06-03-2010 04:49:06 0 C 4.55 g/m*3 0 C 0 km/h
2115 06-03-2010 05:01:06 0 C 4.55 g/m*3 0 C 0 km/h
2116 06-03-2010 05:13:06 -0.1 C 4.47 g/m*3 -0.1 C 0 km/h
2117 06-03-2010 05:25:06 0 C 4.51 g/m*3 0 C 0 km/h
2118 06-03-2010 05:37:06 0 C 4.51 g/m*3 0 C 0 km/h
2119 06-03-2010 05:49:07 0 C 4.51 g/m*3 0 C 0 km/h
2120 06-03-2010 06:01:07 -0.1 C 4.43 g/m*3 -0.1 C 0 km/h
2121 06-03-2010 06:13:07 -0.2 C 4.4 g/m*3 -0.2 C 0 km/h
2122 06-03-2010 06:25:07 -0.2 C 4.3 g/m*3 -0.2 C 0 km/h
2123 06-03-2010 06:37:07 -0.2 C 4.21 g/m*3 -0.2 C 0 km/h
2124 06-03-2010 06:49:07 -0.1 C 4.14 g/m*3 -0.1 C 0 km/h
2125 06-03-2010 07:01:07 -0.1 C 4.09 g/m*3 -0.1 C 0 km/h
Sensor: Nr:Datum:Temp:Abs-Feuchte:Windchill:Wind:
Aussen-T/F 2126 06-03-2010 07:13:07 0 C 4.12 g/m*3 0 C 0 km/h
2127 06-03-2010 07:25:07 0 C 4.17 g/m*3 0 C 0 km/h
2128 06-03-2010 07:37:07 0 C 4.17 g/m*3 0 C 0 km/h
2129 06-03-2010 07:49:01 0 C 4.12 g/m*3 0 C 0 km/h
2130 06-03-2010 08:01:02 0.1 C 4.2 g/m*3 0.1 C 0 km/h
2131 06-03-2010 08:13:02 0.1 C 4.2 g/m*3 0.1 C 0 km/h
2132 06-03-2010 08:25:01 0.2 C 4.22 g/m*3 0.2 C 0 km/h
2133 06-03-2010 08:37:02 0.4 C 4.23 g/m*3 0.4 C 0 km/h
2134 06-03-2010 08:49:01 0.4 C 4.13 g/m*3 0.4 C 0 km/h
2135 06-03-2010 09:01:02 0.4 C 4.03 g/m*3 0.4 C 0 km/h
2136 06-03-2010 09:13:02 0.4 C 4.03 g/m*3 0.4 C 0 km/h
2137 06-03-2010 09:25:02 0.4 C 4.08 g/m*3 0.4 C 0 km/h
2138 06-03-2010 09:37:02 0.3 C 4.06 g/m*3 0.3 C 0 km/h
2139 06-03-2010 09:49:02 0.4 C 4.03 g/m*3 0.4 C 0 km/h
2140 06-03-2010 10:01:02 0.4 C 3.88 g/m*3 0.4 C 0 km/h
2141 06-03-2010 10:13:02 0.5 C 3.71 g/m*3 0.5 C 0 km/h
2142 06-03-2010 10:25:02 0.5 C 3.71 g/m*3 0.5 C 0 km/h
2143 06-03-2010 10:37:02 0.5 C 3.71 g/m*3 0.5 C 0 km/h
2144 06-03-2010 10:49:01 0.4 C 3.59 g/m*3 0.4 C 0 km/h
2145 06-03-2010 11:01:02 0.5 C 3.66 g/m*3 0.5 C 0 km/h
2146 06-03-2010 11:13:02 0.4 C 3.59 g/m*3 0.4 C 0 km/h
2147 06-03-2010 11:25:01 0.5 C 3.56 g/m*3 0.5 C 0 km/h
2148 06-03-2010 11:37:01 0.4 C 3.39 g/m*3 0.4 C 0 km/h
2149 06-03-2010 11:49:01 0.3 C 3.26 g/m*3 0.3 C 0 km/h
2150 06-03-2010 12:01:02 0.4 C 3.34 g/m*3 0.4 C 0 km/h
Sensor: Nr:Datum:Temp:Abs-Feuchte:Windchill:Wind:
Aussen-T/F 2151 06-03-2010 12:13:02 0.5 C 3.26 g/m*3 0.5 C 0 km/h
2152 06-03-2010 12:25:01 0.4 C 3.19 g/m*3 0.4 C 0 km/h
2153 06-03-2010 12:37:02 0.6 C 3.23 g/m*3 0.6 C 0 km/h
2154 06-03-2010 12:49:02 0.7 C 3.36 g/m*3 0.7 C 0 km/h
2155 06-03-2010 13:01:02 0.8 C 3.28 g/m*3 0.8 C 0 km/h
2156 06-03-2010 13:13:02 1.1 C 3.29 g/m*3 1.1 C 0 km/h
2157 06-03-2010 13:25:01 0.9 C 2.94 g/m*3 0.9 C 0 km/h
2158 06-03-2010 13:37:02 0.5 C 3.11 g/m*3 0.5 C 0 km/h
2159 06-03-2010 13:49:02 0.4 C 3.34 g/m*3 0.4 C 0 km/h
2160 06-03-2010 14:01:02 0.2 C 3.19 g/m*3 0.2 C 0 km/h
2161 06-03-2010 14:13:02 0.5 C 3.36 g/m*3 0.5 C 0 km/h
2162 06-03-2010 14:25:02 1 C 3.32 g/m*3 1 C 0 km/h
2163 06-03-2010 14:37:02 1.7 C 3.27 g/m*3 1.7 C 0 km/h
2164 06-03-2010 14:49:02 1.4 C 3.04 g/m*3 1.4 C 0 km/h
2165 06-03-2010 15:01:02 1.3 C 3.02 g/m*3 1.3 C 0 km/h
2166 06-03-2010 15:13:02 1.3 C 2.97 g/m*3 1.3 C 0 km/h
2167 06-03-2010 15:25:02 1.5 C 2.79 g/m*3 1.5 C 0 km/h
2168 06-03-2010 15:37:02 1.3 C 2.7 g/m*3 1.3 C 0 km/h
2169 06-03-2010 15:49:02 1.4 C 2.67 g/m*3 1.4 C 0 km/h
2170 06-03-2010 16:01:02 1.4 C 2.72 g/m*3 1.4 C 0 km/h
2171 06-03-2010 16:13:02 0.9 C 2.63 g/m*3 0.9 C 0 km/h
2172 06-03-2010 16:25:02 1 C 2.6 g/m*3 1 C 0 km/h
2173 06-03-2010 16:37:02 0.8 C 2.66 g/m*3 0.8 C 0 km/h
2174 06-03-2010 16:49:02 0.5 C 2.71 g/m*3 0.5 C 0 km/h
2175 06-03-2010 17:01:02 0.2 C 2.55 g/m*3 0.2 C 0 km/h
Sensor: Nr:Datum:Temp:Abs-Feuchte:Windchill:Wind:
Aussen-T/F 2176 06-03-2010 17:13:02 -0.2 C 2.25 g/m*3 -0.2 C 0 km/h
2177 06-03-2010 17:25:02 -0.5 C 2.15 g/m*3 -0.5 C 0 km/h
2178 06-03-2010 17:37:02 -0.6 C 2.14 g/m*3 -0.6 C 0 km/h
2179 06-03-2010 17:49:01 -1 C 2.08 g/m*3 -1 C 0 km/h
2180 06-03-2010 18:01:02 -1.4 C 2.02 g/m*3 -1.4 C 0 km/h
2181 06-03-2010 18:13:02 -1.6 C 2.08 g/m*3 -1.6 C 0 km/h
2182 06-03-2010 18:25:02 -1.8 C 2.05 g/m*3 -1.8 C 0 km/h
2183 06-03-2010 18:37:02 -1.9 C 2.08 g/m*3 -1.9 C 0 km/h
2184 06-03-2010 18:49:02 -1.8 C 2.05 g/m*3 -1.8 C 0 km/h
2185 06-03-2010 19:01:02 -2 C 2.11 g/m*3 -2 C 0 km/h
2186 06-03-2010 19:13:02 -2.3 C 2.1 g/m*3 -2.3 C 0 km/h
2187 06-03-2010 19:25:02 -2.5 C 2.2 g/m*3 -2.5 C 0 km/h
2188 06-03-2010 19:37:01 -2.6 C 2.22 g/m*3 -2.6 C 0 km/h
2189 06-03-2010 19:49:02 -2.7 C 2.21 g/m*3 -2.7 C 0 km/h
2190 06-03-2010 20:01:01 -2.7 C 2.21 g/m*3 -2.7 C 0 km/h
2191 06-03-2010 20:13:01 -2.8 C 2.15 g/m*3 -2.8 C 0 km/h
2192 06-03-2010 20:25:02 -3.1 C 2.15 g/m*3 -3.1 C 0 km/h
2193 06-03-2010 20:37:01 -3.4 C 2.25 g/m*3 -3.4 C 0 km/h
2194 06-03-2010 20:49:02 -3.6 C 2.3 g/m*3 -3.6 C 0 km/h
2195 06-03-2010 21:01:01 -3.8 C 2.3 g/m*3 -3.8 C 0 km/h
2196 06-03-2010 21:13:01 -4 C 2.34 g/m*3 -4 C 0 km/h
2197 06-03-2010 21:25:02 -4 C 2.38 g/m*3 -4 C 0 km/h
2198 06-03-2010 21:37:01 -4.2 C 2.38 g/m*3 -4.2 C 0 km/h
2199 06-03-2010 21:50:03 -4.2 C 2.42 g/m*3 -4.2 C 0 km/h
2200 06-03-2010 22:02:03 -4.3 C 2.43 g/m*3 -4.3 C 0 km/h
Sensor: Nr:Datum:Temp:Abs-Feuchte:Windchill:Wind:
Aussen-T/F 2201 06-03-2010 22:14:03 -4.2 C 2.49 g/m*3 -4.2 C 0 km/h
2202 06-03-2010 22:26:03 -4 C 2.52 g/m*3 -4 C 0 km/h
2203 06-03-2010 22:38:03 -3.7 C 2.58 g/m*3 -3.7 C 0 km/h
2204 06-03-2010 22:50:03 -3.4 C 2.6 g/m*3 -3.4 C 0 km/h
2205 06-03-2010 23:02:03 -3.4 C 2.6 g/m*3 -3.4 C 0 km/h
2206 06-03-2010 23:14:03 -3.3 C 2.58 g/m*3 -3.3 C 0 km/h
2207 06-03-2010 23:26:03 -3.3 C 2.58 g/m*3 -3.3 C 0 km/h
2208 06-03-2010 23:38:03 -3.5 C 2.5 g/m*3 -3.5 C 0 km/h
2209 06-03-2010 23:50:03 -3.8 C 2.45 g/m*3 -3.8 C 0 km/h
2210 07-03-2010 00:02:03 -4.2 C 2.42 g/m*3 -4.2 C 0 km/h
2211 07-03-2010 00:14:03 -4.4 C 2.42 g/m*3 -4.4 C 0 km/h
2212 07-03-2010 00:26:04 -4.5 C 2.4 g/m*3 -4.5 C 0 km/h
2213 07-03-2010 00:38:04 -4.7 C 2.4 g/m*3 -4.7 C 0 km/h
2214 07-03-2010 00:50:04 -4.6 C 2.42 g/m*3 -4.6 C 0 km/h
2215 07-03-2010 01:02:04 -4.4 C 2.49 g/m*3 -4.4 C 0 km/h
2216 07-03-2010 01:14:04 -4.3 C 2.47 g/m*3 -4.3 C 0 km/h
2217 07-03-2010 01:26:04 -4.4 C 2.45 g/m*3 -4.4 C 0 km/h
2218 07-03-2010 01:38:04 -4.5 C 2.44 g/m*3 -4.5 C 0 km/h
2219 07-03-2010 01:50:04 -4.4 C 2.45 g/m*3 -4.4 C 0 km/h
2220 07-03-2010 02:02:04 -4.4 C 2.49 g/m*3 -4.4 C 0 km/h
2221 07-03-2010 02:14:04 -4.4 C 2.49 g/m*3 -4.4 C 0 km/h
2222 07-03-2010 02:26:04 -4.6 C 2.45 g/m*3 -4.6 C 0 km/h
2223 07-03-2010 02:38:04 -4.4 C 2.52 g/m*3 -4.4 C 0 km/h
2224 07-03-2010 02:50:04 -4.5 C 2.51 g/m*3 -4.5 C 0 km/h
2225 07-03-2010 03:02:04 -4.6 C 2.49 g/m*3 -4.6 C 0 km/h
Sensor: Nr:Datum:Temp:Abs-Feuchte:Windchill:Wind:
Aussen-T/F 2226 07-03-2010 03:14:04 -4.8 C 2.45 g/m*3 -4.8 C 0 km/h
2227 07-03-2010 03:26:04 -5 C 2.45 g/m*3 -5 C 0 km/h
2228 07-03-2010 03:38:04 -5.1 C 2.43 g/m*3 -5.1 C 0 km/h
2229 07-03-2010 03:50:04 -5.2 C 2.45 g/m*3 -5.2 C 0 km/h
2230 07-03-2010 04:02:04 -5.3 C 2.43 g/m*3 -5.3 C 0 km/h
2231 07-03-2010 04:14:04 -5.1 C 2.5 g/m*3 -5.1 C 0 km/h
2232 07-03-2010 04:26:05 -4.9 C 2.54 g/m*3 -4.9 C 0 km/h
2233 07-03-2010 04:38:05 -4.6 C 2.63 g/m*3 -4.6 C 0 km/h
2234 07-03-2010 04:50:05 -4.6 C 2.63 g/m*3 -4.6 C 0 km/h
2235 07-03-2010 05:02:05 -4.8 C 2.56 g/m*3 -4.8 C 0 km/h
2236 07-03-2010 05:14:05 -5 C 2.52 g/m*3 -5 C 0 km/h
2237 07-03-2010 05:26:05 -5.2 C 2.48 g/m*3 -5.2 C 0 km/h
2238 07-03-2010 05:38:05 -5.3 C 2.47 g/m*3 -5.3 C 0 km/h
2239 07-03-2010 05:50:05 -5.3 C 2.47 g/m*3 -5.3 C 0 km/h
2240 07-03-2010 06:02:05 -5.6 C 2.41 g/m*3 -5.6 C 0 km/h
2241 07-03-2010 06:14:05 -5.8 C 2.38 g/m*3 -5.8 C 0 km/h
2242 07-03-2010 06:26:05 -5.8 C 2.41 g/m*3 -5.8 C 0 km/h
2243 07-03-2010 06:38:05 -5.9 C 2.42 g/m*3 -5.9 C 0 km/h
2244 07-03-2010 06:50:05 -6 C 2.41 g/m*3 -6 C 0 km/h
2245 07-03-2010 07:02:05 -6 C 2.44 g/m*3 -6 C 0 km/h
2246 07-03-2010 07:14:05 -6.1 C 2.42 g/m*3 -6.1 C 0 km/h
2247 07-03-2010 07:26:05 -6.1 C 2.42 g/m*3 -6.1 C 0 km/h
2248 07-03-2010 07:38:05 -6.4 C 2.34 g/m*3 -6.4 C 0 km/h
2249 07-03-2010 07:50:05 -6.5 C 2.32 g/m*3 -6.5 C 0 km/h
2250 07-03-2010 08:02:05 -6.5 C 2.32 g/m*3 -6.5 C 0 km/h
Sensor: Nr:Datum:Temp:Abs-Feuchte:Windchill:Wind:
Aussen-T/F 2251 07-03-2010 08:14:05 -6.4 C 2.34 g/m*3 -6.4 C 0 km/h
2252 07-03-2010 08:26:02 -6.2 C 2.4 g/m*3 -6.2 C 0 km/h
2253 07-03-2010 08:38:03 -5.7 C 2.49 g/m*3 -5.7 C 0 km/h
2254 07-03-2010 08:50:02 -5.3 C 2.57 g/m*3 -5.3 C 0 km/h
2255 07-03-2010 09:02:02 -5 C 2.59 g/m*3 -5 C 0 km/h
2256 07-03-2010 09:14:02 -4.6 C 2.63 g/m*3 -4.6 C 0 km/h
2257 07-03-2010 09:26:02 -4.1 C 2.65 g/m*3 -4.1 C 0 km/h
2258 07-03-2010 09:38:02 -3.5 C 2.65 g/m*3 -3.5 C 0 km/h
2259 07-03-2010 09:50:02 -3 C 2.59 g/m*3 -3 C 0 km/h
2260 07-03-2010 10:02:01 -2 C 2.66 g/m*3 -2 C 0 km/h
2261 07-03-2010 10:14:01 -1.4 C 2.51 g/m*3 -1.4 C 0 km/h
2262 07-03-2010 10:26:02 -1 C 2.4 g/m*3 -1 C 0 km/h
2263 07-03-2010 10:38:02 -1 C 2.35 g/m*3 -1 C 0 km/h
2264 07-03-2010 10:50:02 -1 C 2.31 g/m*3 -1 C 0 km/h
2265 07-03-2010 11:02:03 -0.7 C 2.35 g/m*3 -0.7 C 0 km/h
2266 07-03-2010 11:14:03 -0.5 C 2.29 g/m*3 -0.5 C 0 km/h
2267 07-03-2010 11:26:02 -0.5 C 2.2 g/m*3 -0.5 C 0 km/h
2268 07-03-2010 11:38:02 -0.4 C 2.22 g/m*3 -0.4 C 0 km/h
2269 07-03-2010 11:50:02 -0.1 C 2.26 g/m*3 -0.1 C 0 km/h
2270 07-03-2010 12:02:02 -0.2 C 2.15 g/m*3 -0.2 C 0 km/h
2271 07-03-2010 12:14:02 0 C 2.23 g/m*3 0 C 0 km/h
2272 07-03-2010 12:26:01 0.4 C 2.29 g/m*3 0.4 C 0 km/h
2273 07-03-2010 12:38:02 0.9 C 2.32 g/m*3 0.9 C 0 km/h
2274 07-03-2010 12:50:02 1.5 C 2.31 g/m*3 1.5 C 0 km/h
2275 07-03-2010 13:02:02 1.6 C 2.16 g/m*3 1.6 C 0 km/h
Sensor: Nr:Datum:Temp:Abs-Feuchte:Windchill:Wind:
Aussen-T/F 2276 07-03-2010 13:14:02 1.8 C 2.14 g/m*3 1.8 C 0 km/h
2277 07-03-2010 13:26:02 2.2 C 2.14 g/m*3 2.2 C 0 km/h
2278 07-03-2010 13:38:02 2.5 C 2.07 g/m*3 2.5 C 0 km/h
2279 07-03-2010 13:50:02 2.9 C 2.07 g/m*3 2.9 C 0 km/h
2280 07-03-2010 14:02:03 3 C 1.96 g/m*3 3 C 0 km/h
2281 07-03-2010 14:14:03 3.3 C 2.06 g/m*3 3.3 C 0 km/h
2282 07-03-2010 14:26:02 3.7 C 1.99 g/m*3 3.7 C 0 km/h
2283 07-03-2010 14:38:02 3.7 C 1.74 g/m*3 3.7 C 0 km/h
2284 07-03-2010 14:50:01 3.9 C 1.77 g/m*3 3.9 C 0 km/h
2285 07-03-2010 15:02:02 4.2 C 1.68 g/m*3 4.2 C 0 km/h
2286 07-03-2010 15:14:02 4.5 C 1.31 g/m*3 4.5 C 0 km/h
2287 07-03-2010 15:26:01 4.6 C 1.32 g/m*3 4.6 C 0 km/h
2288 07-03-2010 15:38:02 4.7 C 1.33 g/m*3 4.7 C 0 km/h
2289 07-03-2010 15:50:02 5 C 1.36 g/m*3 5 C 0 km/h
2290 07-03-2010 16:02:02 5.1 C 1.37 g/m*3 5.1 C 0 km/h
2291 07-03-2010 16:14:02 5.3 C 1.39 g/m*3 5.3 C 0 km/h
2292 07-03-2010 16:26:01 5.8 C 1.43 g/m*3 5.8 C 0 km/h
2293 07-03-2010 16:38:02 5.9 C 1.44 g/m*3 5.9 C 0 km/h
2294 07-03-2010 16:50:02 5.7 C 1.42 g/m*3 5.7 C 0 km/h
2295 07-03-2010 17:02:02 5.8 C 1.43 g/m*3 5.8 C 0 km/h
2296 07-03-2010 17:14:02 5.1 C 1.37 g/m*3 5.1 C 0 km/h
2297 07-03-2010 17:26:02 4.9 C 1.35 g/m*3 4.9 C 0 km/h
2298 07-03-2010 17:38:02 4.7 C 1.33 g/m*3 4.7 C 0 km/h
2299 07-03-2010 17:50:02 4.1 C 1.28 g/m*3 4.1 C 0 km/h
2300 07-03-2010 18:02:02 3.2 C 1.21 g/m*3 3.2 C 0 km/h
Sensor: Nr:Datum:Temp:Abs-Feuchte:Windchill:Wind:
Aussen-T/F 2301 07-03-2010 18:14:03 2.2 C 1.63 g/m*3 2.2 C 0 km/h
2302 07-03-2010 18:26:02 1.4 C 1.71 g/m*3 1.4 C 0 km/h
2303 07-03-2010 18:38:02 0.6 C 1.77 g/m*3 0.6 C 0 km/h
2304 07-03-2010 18:50:02 0.1 C 1.76 g/m*3 0.1 C 0 km/h
2305 07-03-2010 19:02:02 -0.2 C 1.77 g/m*3 -0.2 C 0 km/h
2306 07-03-2010 19:14:02 -0.4 C 1.74 g/m*3 -0.4 C 0 km/h
2307 07-03-2010 19:26:02 -0.6 C 1.81 g/m*3 -0.6 C 0 km/h
2308 07-03-2010 19:38:02 -0.7 C 1.85 g/m*3 -0.7 C 0 km/h
2309 07-03-2010 19:50:01 -1.2 C 1.87 g/m*3 -1.2 C 0 km/h
2310 07-03-2010 20:02:01 -1.4 C 1.89 g/m*3 -1.4 C 0 km/h
2311 07-03-2010 20:14:02 -1.5 C 1.83 g/m*3 -1.5 C 0 km/h
2312 07-03-2010 20:26:01 -1.7 C 1.89 g/m*3 -1.7 C 0 km/h
2313 07-03-2010 20:38:01 -1.9 C 1.95 g/m*3 -1.9 C 0 km/h
2314 07-03-2010 20:50:01 -2 C 2.02 g/m*3 -2 C 0 km/h
2315 07-03-2010 21:02:01 -2.3 C 2.02 g/m*3 -2.3 C 0 km/h
2316 07-03-2010 21:14:01 -2.4 C 2.01 g/m*3 -2.4 C 0 km/h
2317 07-03-2010 21:26:01 -2.5 C 1.95 g/m*3 -2.5 C 0 km/h
2318 07-03-2010 21:38:01 -2.5 C 1.83 g/m*3 -2.5 C 0 km/h
2319 07-03-2010 21:51:03 -2.5 C 1.87 g/m*3 -2.5 C 0 km/h
2320 07-03-2010 22:03:03 -2.6 C 1.82 g/m*3 -2.6 C 0 km/h
2321 07-03-2010 22:15:03 -2.8 C 1.79 g/m*3 -2.8 C 0 km/h
2322 07-03-2010 22:27:03 -2.8 C 1.83 g/m*3 -2.8 C 0 km/h
2323 07-03-2010 22:39:03 -3 C 1.85 g/m*3 -3 C 0 km/h
2324 07-03-2010 22:51:03 -3.2 C 1.9 g/m*3 -3.2 C 0 km/h
2325 07-03-2010 23:03:04 -3.3 C 1.96 g/m*3 -3.3 C 0 km/h
Sensor: Nr:Datum:Temp:Abs-Feuchte:Windchill:Wind:
Aussen-T/F 2326 07-03-2010 23:15:04 -3.4 C 1.95 g/m*3 -3.4 C 0 km/h
2327 07-03-2010 23:27:04 -3.4 C 1.91 g/m*3 -3.4 C 0 km/h
2328 07-03-2010 23:39:04 -3.4 C 1.83 g/m*3 -3.4 C 0 km/h
2329 07-03-2010 23:51:04 -3.7 C 1.76 g/m*3 -3.7 C 0 km/h
2330 08-03-2010 00:03:04 -3.9 C 1.81 g/m*3 -3.9 C 0 km/h
2331 08-03-2010 00:15:04 -4 C 1.83 g/m*3 -4 C 0 km/h
2332 08-03-2010 00:27:04 -4.2 C 1.77 g/m*3 -4.2 C 0 km/h
2333 08-03-2010 00:39:04 -4.3 C 1.79 g/m*3 -4.3 C 0 km/h
2334 08-03-2010 00:51:04 -4.5 C 1.8 g/m*3 -4.5 C 0 km/h
2335 08-03-2010 01:03:04 -4.5 C 1.76 g/m*3 -4.5 C 0 km/h
2336 08-03-2010 01:15:04 -4.6 C 1.75 g/m*3 -4.6 C 0 km/h
2337 08-03-2010 01:27:04 -4.6 C 1.75 g/m*3 -4.6 C 0 km/h
2338 08-03-2010 01:39:04 -4.7 C 1.7 g/m*3 -4.7 C 0 km/h
2339 08-03-2010 01:51:04 -4.8 C 1.73 g/m*3 -4.8 C 0 km/h
2340 08-03-2010 02:03:04 -5 C 1.7 g/m*3 -5 C 0 km/h
2341 08-03-2010 02:15:04 -4.9 C 1.68 g/m*3 -4.9 C 0 km/h
2342 08-03-2010 02:27:04 -5 C 1.6 g/m*3 -5 C 0 km/h
2343 08-03-2010 02:39:04 -4.7 C 1.53 g/m*3 -4.7 C 0 km/h
2344 08-03-2010 02:51:04 -5 C 1.63 g/m*3 -5 C 0 km/h
2345 08-03-2010 03:03:04 -5.3 C 1.7 g/m*3 -5.3 C 0 km/h
2346 08-03-2010 03:15:05 -5.8 C 1.67 g/m*3 -5.8 C 0 km/h
2347 08-03-2010 03:27:05 -5.9 C 1.72 g/m*3 -5.9 C 0 km/h
2348 08-03-2010 03:39:05 -5.8 C 1.74 g/m*3 -5.8 C 0 km/h
2349 08-03-2010 03:51:05 -6 C 1.71 g/m*3 -6 C 0 km/h
2350 08-03-2010 04:03:05 -6.1 C 1.73 g/m*3 -6.1 C 0 km/h
Sensor: Nr:Datum:Temp:Abs-Feuchte:Windchill:Wind:
Aussen-T/F 2351 08-03-2010 04:15:05 -6.1 C 1.73 g/m*3 -6.1 C 0 km/h
2352 08-03-2010 04:27:05 -6.4 C 1.72 g/m*3 -6.4 C 0 km/h
2353 08-03-2010 04:39:05 -6.4 C 1.75 g/m*3 -6.4 C 0 km/h
2354 08-03-2010 04:51:05 -6.6 C 1.73 g/m*3 -6.6 C 0 km/h
2355 08-03-2010 05:03:05 -6.6 C 1.73 g/m*3 -6.6 C 0 km/h
2356 08-03-2010 05:15:05 -6.8 C 1.73 g/m*3 -6.8 C 0 km/h
2357 08-03-2010 05:27:05 -6.9 C 1.75 g/m*3 -6.9 C 0 km/h
2358 08-03-2010 05:39:05 -7.1 C 1.72 g/m*3 -7.1 C 0 km/h
2359 08-03-2010 05:51:05 -7.2 C 1.74 g/m*3 -7.2 C 0 km/h
2360 08-03-2010 06:03:05 -7.3 C 1.76 g/m*3 -7.3 C 0 km/h
2361 08-03-2010 06:15:05 -7.3 C 1.76 g/m*3 -7.3 C 0 km/h
2362 08-03-2010 06:27:05 -7.3 C 1.76 g/m*3 -7.3 C 0 km/h
2363 08-03-2010 06:39:05 -7.2 C 1.83 g/m*3 -7.2 C 0 km/h
2364 08-03-2010 06:51:05 -7.4 C 1.83 g/m*3 -7.4 C 0 km/h
2365 08-03-2010 07:03:02 -7.4 C 1.83 g/m*3 -7.4 C 0 km/h
2366 08-03-2010 07:15:03 -7.5 C 1.82 g/m*3 -7.5 C 0 km/h
2367 08-03-2010 07:27:03 -7.3 C 1.9 g/m*3 -7.3 C 0 km/h
2368 08-03-2010 07:39:03 -7 C 1.97 g/m*3 -7 C 0 km/h
2369 08-03-2010 07:51:01 -6.5 C 2.05 g/m*3 -6.5 C 0 km/h
2370 08-03-2010 08:03:01 -6.1 C 2.11 g/m*3 -6.1 C 0 km/h
2371 08-03-2010 08:15:01 -5.8 C 2.09 g/m*3 -5.8 C 0 km/h
2372 08-03-2010 08:27:01 -5.3 C 2.1 g/m*3 -5.3 C 0 km/h
2373 08-03-2010 08:39:02 -5 C 2.08 g/m*3 -5 C 0 km/h
2374 08-03-2010 08:51:02 -4.5 C 2.12 g/m*3 -4.5 C 0 km/h
2375 08-03-2010 09:03:02 -4.2 C 2.02 g/m*3 -4.2 C 0 km/h
Sensor: Nr:Datum:Temp:Abs-Feuchte:Windchill:Wind:
Aussen-T/F 2376 08-03-2010 09:15:02 -3.7 C 2.06 g/m*3 -3.7 C 0 km/h
2377 08-03-2010 09:27:02 -3.1 C 2.15 g/m*3 -3.1 C 0 km/h
2378 08-03-2010 09:39:02 -2.5 C 2.12 g/m*3 -2.5 C 0 km/h
2379 08-03-2010 09:51:02 -2.1 C 2.01 g/m*3 -2.1 C 0 km/h
2380 08-03-2010 10:03:01 -1.7 C 2.02 g/m*3 -1.7 C 0 km/h
2381 08-03-2010 10:15:01 -1.3 C 1.99 g/m*3 -1.3 C 0 km/h
2382 08-03-2010 10:27:01 -0.6 C 1.95 g/m*3 -0.6 C 0 km/h
2383 08-03-2010 10:39:02 0 C 1.94 g/m*3 0 C 0 km/h
2384 08-03-2010 10:51:02 0.4 C 1.74 g/m*3 0.4 C 0 km/h
2385 08-03-2010 11:03:01 0.7 C 1.78 g/m*3 0.7 C 0 km/h
2386 08-03-2010 11:15:02 1.1 C 1.83 g/m*3 1.1 C 0 km/h
2387 08-03-2010 11:27:02 1.3 C 1.7 g/m*3 1.3 C 0 km/h
2388 08-03-2010 11:39:02 1.7 C 1.85 g/m*3 1.7 C 0 km/h
2389 08-03-2010 11:51:01 2.4 C 1.77 g/m*3 2.4 C 0 km/h
2390 08-03-2010 12:03:02 2.6 C 1.62 g/m*3 2.6 C 0 km/h
2391 08-03-2010 12:15:01 3.1 C 1.68 g/m*3 3.1 C 0 km/h
2392 08-03-2010 12:27:01 3.2 C 1.63 g/m*3 3.2 C 0 km/h
2393 08-03-2010 12:39:02 3.4 C 1.53 g/m*3 3.4 C 0 km/h
2394 08-03-2010 12:51:02 3.2 C 1.39 g/m*3 3.2 C 0 km/h
2395 08-03-2010 13:03:02 3.2 C 1.51 g/m*3 3.2 C 0 km/h
2396 08-03-2010 13:15:02 3.6 C 1.61 g/m*3 3.6 C 0 km/h
2397 08-03-2010 13:27:02 4.5 C 1.31 g/m*3 4.5 C 0 km/h
2398 08-03-2010 13:39:02 4.9 C 1.35 g/m*3 4.9 C 0 km/h
2399 08-03-2010 13:51:02 4.9 C 1.35 g/m*3 4.9 C 0 km/h
2400 08-03-2010 14:03:02 4.8 C 1.34 g/m*3 4.8 C 0 km/h
Sensor: Nr:Datum:Temp:Abs-Feuchte:Windchill:Wind:
Aussen-T/F 2401 08-03-2010 14:15:02 3.9 C 1.26 g/m*3 3.9 C 0 km/h
2402 08-03-2010 14:27:02 3.5 C 1.41 g/m*3 3.5 C 0 km/h
2403 08-03-2010 14:39:02 3.8 C 1.44 g/m*3 3.8 C 0 km/h
2404 08-03-2010 14:51:02 4.6 C 1.32 g/m*3 4.6 C 0 km/h
2405 08-03-2010 15:03:01 4.3 C 1.3 g/m*3 4.3 C 0 km/h
2406 08-03-2010 15:15:02 4.9 C 1.35 g/m*3 4.9 C 0 km/h
2407 08-03-2010 15:27:02 5.1 C 1.37 g/m*3 5.1 C 0 km/h
2408 08-03-2010 15:39:01 6.4 C 1.49 g/m*3 6.4 C 0 km/h
2409 08-03-2010 15:51:02 6.7 C 1.52 g/m*3 6.7 C 0 km/h
2410 08-03-2010 16:03:01 6.5 C 1.5 g/m*3 6.5 C 0 km/h
2411 08-03-2010 16:15:02 6.6 C 1.51 g/m*3 6.6 C 0 km/h
2412 08-03-2010 16:27:02 6.9 C 1.54 g/m*3 6.9 C 0 km/h
2413 08-03-2010 16:39:01 6.7 C 1.52 g/m*3 6.7 C 0 km/h
2414 08-03-2010 16:51:02 6.4 C 1.49 g/m*3 6.4 C 0 km/h
2415 08-03-2010 17:03:02 6.2 C 1.47 g/m*3 6.2 C 0 km/h
2416 08-03-2010 17:15:02 6.3 C 1.48 g/m*3 6.3 C 0 km/h
2417 08-03-2010 17:27:02 5.8 C 1.43 g/m*3 5.8 C 0 km/h
2418 08-03-2010 17:39:02 4.6 C 1.32 g/m*3 4.6 C 0 km/h
2419 08-03-2010 17:51:02 4.2 C 1.29 g/m*3 4.2 C 0 km/h
2420 08-03-2010 18:03:02 3.7 C 1.56 g/m*3 3.7 C 0 km/h
2421 08-03-2010 18:15:01 2.9 C 1.71 g/m*3 2.9 C 0 km/h
2422 08-03-2010 18:27:01 1.8 C 1.75 g/m*3 1.8 C 0 km/h
2423 08-03-2010 18:39:02 1.4 C 1.87 g/m*3 1.4 C 0 km/h
2424 08-03-2010 18:51:02 0.7 C 2.03 g/m*3 0.7 C 0 km/h
2425 08-03-2010 19:03:02 0.4 C 2.04 g/m*3 0.4 C 0 km/h
Sensor: Nr:Datum:Temp:Abs-Feuchte:Windchill:Wind:
Aussen-T/F 2426 08-03-2010 19:15:02 0.1 C 2.1 g/m*3 0.1 C 0 km/h
2427 08-03-2010 19:27:02 -0.2 C 2.15 g/m*3 -0.2 C 0 km/h
2428 08-03-2010 19:39:02 -0.3 C 2.04 g/m*3 -0.3 C 0 km/h
2429 08-03-2010 19:51:01 -0.3 C 1.99 g/m*3 -0.3 C 0 km/h
2430 08-03-2010 20:03:02 -0.6 C 2 g/m*3 -0.6 C 0 km/h
2431 08-03-2010 20:15:01 -0.7 C 2.08 g/m*3 -0.7 C 0 km/h
2432 08-03-2010 20:27:01 -1.1 C 2.11 g/m*3 -1.1 C 0 km/h
2433 08-03-2010 20:39:01 -1.2 C 2.1 g/m*3 -1.2 C 0 km/h
2434 08-03-2010 20:51:01 -1.4 C 2.15 g/m*3 -1.4 C 0 km/h
2435 08-03-2010 21:03:02 -1.4 C 2.15 g/m*3 -1.4 C 0 km/h
2436 08-03-2010 21:15:01 -1.5 C 2.18 g/m*3 -1.5 C 0 km/h
2437 08-03-2010 21:27:01 -1.3 C 2.26 g/m*3 -1.3 C 0 km/h
2438 08-03-2010 21:40:03 -1.3 C 2.26 g/m*3 -1.3 C 0 km/h
2439 08-03-2010 21:52:03 -1.2 C 2.32 g/m*3 -1.2 C 0 km/h
2440 08-03-2010 22:04:03 -1.2 C 2.36 g/m*3 -1.2 C 0 km/h
2441 08-03-2010 22:16:03 -1.2 C 2.32 g/m*3 -1.2 C 0 km/h
2442 08-03-2010 22:28:03 -1.1 C 2.24 g/m*3 -1.1 C 0 km/h
2443 08-03-2010 22:40:03 -0.9 C 2.09 g/m*3 -0.9 C 0 km/h
2444 08-03-2010 22:52:03 -1 C 2.08 g/m*3 -1 C 0 km/h
2445 08-03-2010 23:04:03 -1.4 C 2.07 g/m*3 -1.4 C 0 km/h
2446 08-03-2010 23:16:04 -1.8 C 2.05 g/m*3 -1.8 C 0 km/h
2447 08-03-2010 23:28:04 -1.9 C 2.04 g/m*3 -1.9 C 0 km/h
2448 08-03-2010 23:40:04 -1.9 C 2.08 g/m*3 -1.9 C 0 km/h
2449 08-03-2010 23:52:04 -2 C 2.11 g/m*3 -2 C 0 km/h
2450 09-03-2010 00:04:04 -2.1 C 2.13 g/m*3 -2.1 C 0 km/h
Sensor: Nr:Datum:Temp:Abs-Feuchte:Windchill:Wind:
Aussen-T/F 2451 09-03-2010 00:16:04 -2.2 C 2.12 g/m*3 -2.2 C 0 km/h
2452 09-03-2010 00:28:04 -2.4 C 2.09 g/m*3 -2.4 C 0 km/h
2453 09-03-2010 00:40:04 -2.4 C 2.09 g/m*3 -2.4 C 0 km/h
2454 09-03-2010 00:52:04 -2.6 C 2.14 g/m*3 -2.6 C 0 km/h
2455 09-03-2010 01:04:04 -2.8 C 2.15 g/m*3 -2.8 C 0 km/h
2456 09-03-2010 01:16:04 -3 C 2.2 g/m*3 -3 C 0 km/h
2457 09-03-2010 01:28:04 -3.1 C 2.22 g/m*3 -3.1 C 0 km/h
2458 09-03-2010 01:40:04 -3.2 C 2.21 g/m*3 -3.2 C 0 km/h
2459 09-03-2010 01:52:04 -3.3 C 2.19 g/m*3 -3.3 C 0 km/h
2460 09-03-2010 02:04:04 -3.4 C 2.18 g/m*3 -3.4 C 0 km/h
2461 09-03-2010 02:16:05 -3.4 C 2.21 g/m*3 -3.4 C 0 km/h
2462 09-03-2010 02:28:05 -3.3 C 2.23 g/m*3 -3.3 C 0 km/h
2463 09-03-2010 02:40:05 -3.3 C 2.23 g/m*3 -3.3 C 0 km/h
2464 09-03-2010 02:52:05 -3.5 C 2.24 g/m*3 -3.5 C 0 km/h
2465 09-03-2010 03:04:05 -3.7 C 2.24 g/m*3 -3.7 C 0 km/h
2466 09-03-2010 03:16:05 -3.8 C 2.23 g/m*3 -3.8 C 0 km/h
2467 09-03-2010 03:28:05 -3.9 C 2.25 g/m*3 -3.9 C 0 km/h
2468 09-03-2010 03:40:05 -4 C 2.27 g/m*3 -4 C 0 km/h
2469 09-03-2010 03:52:05 -4.1 C 2.29 g/m*3 -4.1 C 0 km/h
2470 09-03-2010 04:04:05 -4.2 C 2.27 g/m*3 -4.2 C 0 km/h
2471 09-03-2010 04:16:05 -4.3 C 2.29 g/m*3 -4.3 C 0 km/h
2472 09-03-2010 04:28:05 -4.5 C 2.22 g/m*3 -4.5 C 0 km/h
2473 09-03-2010 04:40:05 -4.5 C 2.19 g/m*3 -4.5 C 0 km/h
2474 09-03-2010 04:52:05 -4.5 C 2.19 g/m*3 -4.5 C 0 km/h
2475 09-03-2010 05:04:05 -4.6 C 2.17 g/m*3 -4.6 C 0 km/h
Sensor: Nr:Datum:Temp:Abs-Feuchte:Windchill:Wind:
Aussen-T/F 2476 09-03-2010 05:16:05 -4.7 C 2.16 g/m*3 -4.7 C 0 km/h
2477 09-03-2010 05:28:05 -4.8 C 2.14 g/m*3 -4.8 C 0 km/h
2478 09-03-2010 05:40:05 -4.9 C 2.16 g/m*3 -4.9 C 0 km/h
2479 09-03-2010 05:52:05 -4.9 C 2.16 g/m*3 -4.9 C 0 km/h
2480 09-03-2010 06:04:05 -4.8 C 2.14 g/m*3 -4.8 C 0 km/h
2481 09-03-2010 06:16:05 -4.8 C 2.14 g/m*3 -4.8 C 0 km/h
2482 09-03-2010 06:28:05 -4.9 C 2.13 g/m*3 -4.9 C 0 km/h
2483 09-03-2010 06:40:06 -5.2 C 2.08 g/m*3 -5.2 C 0 km/h
2484 09-03-2010 06:52:06 -5.3 C 2.07 g/m*3 -5.3 C 0 km/h
2485 09-03-2010 07:04:03 -5.6 C 2.05 g/m*3 -5.6 C 0 km/h
2486 09-03-2010 07:16:03 -5.6 C 2.09 g/m*3 -5.6 C 0 km/h
2487 09-03-2010 07:28:03 -5.4 C 2.15 g/m*3 -5.4 C 0 km/h
2488 09-03-2010 07:40:03 -5.3 C 2.17 g/m*3 -5.3 C 0 km/h
2489 09-03-2010 07:52:02 -5.3 C 2.17 g/m*3 -5.3 C 0 km/h
2490 09-03-2010 08:04:02 -5.2 C 2.18 g/m*3 -5.2 C 0 km/h
2491 09-03-2010 08:16:02 -5 C 2.18 g/m*3 -5 C 0 km/h
2492 09-03-2010 08:28:02 -4.9 C 2.16 g/m*3 -4.9 C 0 km/h
2493 09-03-2010 08:40:02 -4.8 C 2.14 g/m*3 -4.8 C 0 km/h
2494 09-03-2010 08:52:02 -4.7 C 2.16 g/m*3 -4.7 C 0 km/h
2495 09-03-2010 09:04:01 -4.5 C 2.19 g/m*3 -4.5 C 0 km/h
2496 09-03-2010 09:16:02 -4.2 C 2.16 g/m*3 -4.2 C 0 km/h
2497 09-03-2010 09:28:02 -3.9 C 2.17 g/m*3 -3.9 C 0 km/h
2498 09-03-2010 09:40:01 -3.4 C 2.18 g/m*3 -3.4 C 0 km/h
2499 09-03-2010 09:52:02 -2.7 C 2.13 g/m*3 -2.7 C 0 km/h
2500 09-03-2010 10:04:01 -2.4 C 2.09 g/m*3 -2.4 C 0 km/h
Sensor: Nr:Datum:Temp:Abs-Feuchte:Windchill:Wind:
Aussen-T/F 2501 09-03-2010 10:16:01 -1.9 C 2.08 g/m*3 -1.9 C 0 km/h
2502 09-03-2010 10:28:01 -1.2 C 2.05 g/m*3 -1.2 C 0 km/h
2503 09-03-2010 10:40:02 -0.7 C 1.94 g/m*3 -0.7 C 0 km/h
2504 09-03-2010 10:52:02 -0.4 C 1.84 g/m*3 -0.4 C 0 km/h
2505 09-03-2010 11:04:01 -0.1 C 1.73 g/m*3 -0.1 C 0 km/h
2506 09-03-2010 11:16:02 0.3 C 1.63 g/m*3 0.3 C 0 km/h
2507 09-03-2010 11:28:02 0.5 C 1.5 g/m*3 0.5 C 0 km/h
2508 09-03-2010 11:40:02 0.5 C 1.3 g/m*3 0.5 C 0 km/h
2509 09-03-2010 11:52:01 0.8 C 1.28 g/m*3 0.8 C 0 km/h
2510 09-03-2010 12:04:02 1 C 1.09 g/m*3 1 C 0 km/h
2511 09-03-2010 12:16:01 1.3 C 1.06 g/m*3 1.3 C 0 km/h
2512 09-03-2010 12:28:01 1.6 C 1.14 g/m*3 1.6 C 0 km/h
2513 09-03-2010 12:40:02 1.8 C 1.1 g/m*3 1.8 C 0 km/h
2514 09-03-2010 12:52:02 2.2 C 1.13 g/m*3 2.2 C 0 km/h
2515 09-03-2010 13:04:02 2.2 C 1.13 g/m*3 2.2 C 0 km/h
2516 09-03-2010 13:16:01 2.9 C 1.18 g/m*3 2.9 C 0 km/h
2517 09-03-2010 13:28:01 3.2 C 1.21 g/m*3 3.2 C 0 km/h
2518 09-03-2010 13:40:02 3.5 C 1.23 g/m*3 3.5 C 0 km/h
2519 09-03-2010 13:52:02 3.7 C 1.25 g/m*3 3.7 C 0 km/h
2520 09-03-2010 14:04:02 3.9 C 1.26 g/m*3 3.9 C 0 km/h
2521 09-03-2010 14:16:02 4.5 C 1.31 g/m*3 4.5 C 0 km/h
2522 09-03-2010 14:28:02 4.9 C 1.35 g/m*3 4.9 C 0 km/h
2523 09-03-2010 14:40:02 5.3 C 1.39 g/m*3 5.3 C 0 km/h
2524 09-03-2010 14:52:02 5.7 C 1.42 g/m*3 5.7 C 0 km/h
2525 09-03-2010 15:04:02 5.7 C 1.42 g/m*3 5.7 C 0 km/h
Sensor: Nr:Datum:Temp:Abs-Feuchte:Windchill:Wind:
Aussen-T/F 2526 09-03-2010 15:16:02 5.7 C 1.42 g/m*3 5.7 C 0 km/h
2527 09-03-2010 15:28:02 5.7 C 1.42 g/m*3 5.7 C 0 km/h
2528 09-03-2010 15:40:02 6.2 C 1.47 g/m*3 6.2 C 0 km/h
2529 09-03-2010 15:52:02 6 C 1.45 g/m*3 6 C 0 km/h
2530 09-03-2010 16:04:02 5.9 C 1.44 g/m*3 5.9 C 0 km/h
2531 09-03-2010 16:16:02 5.8 C 1.43 g/m*3 5.8 C 0 km/h
2532 09-03-2010 16:28:02 6.3 C 1.48 g/m*3 6.3 C 0 km/h
2533 09-03-2010 16:40:02 6.3 C 1.48 g/m*3 6.3 C 0 km/h
2534 09-03-2010 16:52:02 6.2 C 1.47 g/m*3 6.2 C 0 km/h
2535 09-03-2010 17:04:02 5.5 C 1.4 g/m*3 5.5 C 0 km/h
2536 09-03-2010 17:16:03 5.2 C 1.38 g/m*3 5.2 C 0 km/h
2537 09-03-2010 17:28:03 4.8 C 1.34 g/m*3 4.8 C 0 km/h
2538 09-03-2010 17:40:02 4.4 C 1.31 g/m*3 4.4 C 0 km/h
2539 09-03-2010 17:52:02 4 C 1.27 g/m*3 4 C 0 km/h
2540 09-03-2010 18:04:02 3.2 C 1.21 g/m*3 3.2 C 0 km/h
2541 09-03-2010 18:16:02 2.4 C 1.14 g/m*3 2.4 C 0 km/h
2542 09-03-2010 18:28:02 1.5 C 1.07 g/m*3 1.5 C 0 km/h
2543 09-03-2010 18:40:02 1.1 C 1.05 g/m*3 1.1 C 0 km/h
2544 09-03-2010 18:52:02 0.7 C 1.02 g/m*3 0.7 C 0 km/h
2545 09-03-2010 19:04:02 0.5 C 1 g/m*3 0.5 C 0 km/h
2546 09-03-2010 19:16:02 0.2 C 0.98 g/m*3 0.2 C 0 km/h
2547 09-03-2010 19:28:02 -0.1 C 0.96 g/m*3 -0.1 C 0 km/h
2548 09-03-2010 19:40:02 -0.3 C 0.95 g/m*3 -0.3 C 0 km/h
2549 09-03-2010 19:52:02 -0.6 C 0.93 g/m*3 -0.6 C 0 km/h
2550 09-03-2010 20:04:01 -0.6 C 0.93 g/m*3 -0.6 C 0 km/h
Sensor: Nr:Datum:Temp:Abs-Feuchte:Windchill:Wind:
Aussen-T/F 2551 09-03-2010 20:16:02 -0.8 C 0.92 g/m*3 -0.8 C 0 km/h
2552 09-03-2010 20:28:03 -1.2 C 0.89 g/m*3 -1.2 C 0 km/h
2553 09-03-2010 20:40:01 -1.4 C 0.88 g/m*3 -1.4 C 0 km/h
2554 09-03-2010 20:52:02 -1.5 C 0.92 g/m*3 -1.5 C 0 km/h
2555 09-03-2010 21:04:01 -1.7 C 0.9 g/m*3 -1.7 C 0 km/h
2556 09-03-2010 21:16:02 -1.7 C 0.86 g/m*3 -1.7 C 0 km/h
2557 09-03-2010 21:28:02 -1.9 C 0.85 g/m*3 -1.9 C 0 km/h
2558 09-03-2010 21:40:02 -1.8 C 0.85 g/m*3 -1.8 C 0 km/h
2559 09-03-2010 21:52:02 -1.9 C 0.85 g/m*3 -1.9 C 0 km/h
2560 09-03-2010 22:04:02 -1.8 C 0.85 g/m*3 -1.8 C 0 km/h
2561 09-03-2010 22:16:02 -1.7 C 0.86 g/m*3 -1.7 C 0 km/h
2562 09-03-2010 22:28:02 -1.7 C 0.86 g/m*3 -1.7 C 0 km/h
2563 09-03-2010 22:40:02 -1.8 C 0.85 g/m*3 -1.8 C 0 km/h
2564 09-03-2010 22:52:02 -1.8 C 0.9 g/m*3 -1.8 C 0 km/h
2565 09-03-2010 23:05:02 -2 C 1.1 g/m*3 -2 C 0 km/h
2566 09-03-2010 23:17:02 -2.3 C 1.24 g/m*3 -2.3 C 0 km/h
2567 09-03-2010 23:29:02 -2.4 C 1.27 g/m*3 -2.4 C 0 km/h
2568 09-03-2010 23:41:02 -2.5 C 1.34 g/m*3 -2.5 C 0 km/h
2569 09-03-2010 23:53:02 -2.6 C 1.41 g/m*3 -2.6 C 0 km/h
2570 10-03-2010 00:05:02 -2.7 C 1.48 g/m*3 -2.7 C 0 km/h
2571 10-03-2010 00:17:02 -2.8 C 1.55 g/m*3 -2.8 C 0 km/h
2572 10-03-2010 00:29:02 -2.7 C 1.56 g/m*3 -2.7 C 0 km/h
2573 10-03-2010 00:41:02 -2.6 C 1.58 g/m*3 -2.6 C 0 km/h
2574 10-03-2010 00:53:02 -2.7 C 1.6 g/m*3 -2.7 C 0 km/h
2575 10-03-2010 01:05:03 -3 C 1.65 g/m*3 -3 C 0 km/h
Sensor: Nr:Datum:Temp:Abs-Feuchte:Windchill:Wind:
Aussen-T/F 2576 10-03-2010 01:17:03 -3.1 C 1.68 g/m*3 -3.1 C 0 km/h
2577 10-03-2010 01:29:03 -3.2 C 1.7 g/m*3 -3.2 C 0 km/h
2578 10-03-2010 01:41:03 -3 C 1.73 g/m*3 -3 C 0 km/h
2579 10-03-2010 01:53:03 -3.4 C 1.72 g/m*3 -3.4 C 0 km/h
2580 10-03-2010 02:05:03 -3.4 C 1.76 g/m*3 -3.4 C 0 km/h
2581 10-03-2010 02:17:03 -3.5 C 1.74 g/m*3 -3.5 C 0 km/h
2582 10-03-2010 02:29:03 -3.6 C 1.77 g/m*3 -3.6 C 0 km/h
2583 10-03-2010 02:41:03 -3.8 C 1.78 g/m*3 -3.8 C 0 km/h
2584 10-03-2010 02:53:03 -3.8 C 1.78 g/m*3 -3.8 C 0 km/h
2585 10-03-2010 03:05:03 -3.8 C 1.78 g/m*3 -3.8 C 0 km/h
2586 10-03-2010 03:17:03 -3.8 C 1.82 g/m*3 -3.8 C 0 km/h
2587 10-03-2010 03:29:03 -3.9 C 1.81 g/m*3 -3.9 C 0 km/h
2588 10-03-2010 03:41:03 -3.9 C 1.77 g/m*3 -3.9 C 0 km/h
2589 10-03-2010 03:53:03 -3.9 C 1.77 g/m*3 -3.9 C 0 km/h
2590 10-03-2010 04:05:03 -3.6 C 1.81 g/m*3 -3.6 C 0 km/h
2591 10-03-2010 04:17:03 -3.5 C 1.78 g/m*3 -3.5 C 0 km/h
2592 10-03-2010 04:29:03 -3.5 C 1.74 g/m*3 -3.5 C 0 km/h
2593 10-03-2010 04:41:03 -3.5 C 1.74 g/m*3 -3.5 C 0 km/h
2594 10-03-2010 04:53:03 -3.5 C 1.71 g/m*3 -3.5 C 0 km/h
2595 10-03-2010 05:05:03 -3.6 C 1.69 g/m*3 -3.6 C 0 km/h
2596 10-03-2010 05:17:03 -3.5 C 1.71 g/m*3 -3.5 C 0 km/h
2597 10-03-2010 05:29:04 -3.5 C 1.71 g/m*3 -3.5 C 0 km/h
2598 10-03-2010 05:41:04 -3.5 C 1.71 g/m*3 -3.5 C 0 km/h
2599 10-03-2010 05:53:04 -3.4 C 1.68 g/m*3 -3.4 C 0 km/h
2600 10-03-2010 06:05:04 -3.6 C 1.66 g/m*3 -3.6 C 0 km/h
Sensor: Nr:Datum:Temp:Abs-Feuchte:Windchill:Wind:
Aussen-T/F 2601 10-03-2010 06:17:04 -3.6 C 1.69 g/m*3 -3.6 C 0 km/h
2602 10-03-2010 06:29:04 -3.9 C 1.69 g/m*3 -3.9 C 0 km/h
2603 10-03-2010 06:41:04 -3.8 C 1.67 g/m*3 -3.8 C 0 km/h
2604 10-03-2010 06:53:04 -3.7 C 1.68 g/m*3 -3.7 C 0 km/h
2605 10-03-2010 07:05:02 -3.7 C 1.68 g/m*3 -3.7 C 0 km/h
2606 10-03-2010 07:17:02 -3.6 C 1.69 g/m*3 -3.6 C 0 km/h
2607 10-03-2010 07:29:02 -3.6 C 1.69 g/m*3 -3.6 C 0 km/h
2608 10-03-2010 07:41:02 -3.4 C 1.72 g/m*3 -3.4 C 0 km/h
2609 10-03-2010 07:53:02 -3 C 1.69 g/m*3 -3 C 0 km/h
2610 10-03-2010 08:05:02 -2.7 C 1.69 g/m*3 -2.7 C 0 km/h
2611 10-03-2010 08:17:02 -2.5 C 1.67 g/m*3 -2.5 C 0 km/h
2612 10-03-2010 08:29:02 -2.1 C 1.67 g/m*3 -2.1 C 0 km/h
2613 10-03-2010 08:41:02 -1.8 C 1.62 g/m*3 -1.8 C 0 km/h
2614 10-03-2010 08:53:02 -1.3 C 1.51 g/m*3 -1.3 C 0 km/h
2615 10-03-2010 09:05:02 -1 C 1.4 g/m*3 -1 C 0 km/h
2616 10-03-2010 09:17:02 -0.8 C 1.38 g/m*3 -0.8 C 0 km/h
2617 10-03-2010 09:29:02 -0.4 C 1.23 g/m*3 -0.4 C 0 km/h
2618 10-03-2010 09:41:01 -0.1 C 1.2 g/m*3 -0.1 C 0 km/h
2619 10-03-2010 09:53:01 0.5 C 1 g/m*3 0.5 C 0 km/h
2620 10-03-2010 10:05:01 1.1 C 1.05 g/m*3 1.1 C 0 km/h
2621 10-03-2010 10:17:02 1.4 C 1.07 g/m*3 1.4 C 0 km/h
2622 10-03-2010 10:29:02 1.8 C 1.1 g/m*3 1.8 C 0 km/h
2623 10-03-2010 10:41:01 2.3 C 1.13 g/m*3 2.3 C 0 km/h
2624 10-03-2010 10:53:02 2.8 C 1.17 g/m*3 2.8 C 0 km/h
2625 10-03-2010 11:05:01 3.3 C 1.21 g/m*3 3.3 C 0 km/h
Sensor: Nr:Datum:Temp:Abs-Feuchte:Windchill:Wind:
Aussen-T/F 2626 10-03-2010 11:17:02 3.6 C 1.24 g/m*3 3.6 C 0 km/h
2627 10-03-2010 11:29:02 3.9 C 1.26 g/m*3 3.9 C 0 km/h
2628 10-03-2010 11:41:01 4.1 C 1.28 g/m*3 4.1 C 0 km/h
2629 10-03-2010 11:53:02 4.3 C 1.62 g/m*3 4.3 C 0 km/h
2630 10-03-2010 12:05:02 4.6 C 1.52 g/m*3 4.6 C 0 km/h
2631 10-03-2010 12:17:02 5.1 C 1.57 g/m*3 5.1 C 0 km/h
2632 10-03-2010 12:29:02 5.7 C 1.49 g/m*3 5.7 C 0 km/h
2633 10-03-2010 12:41:01 6.1 C 1.46 g/m*3 6.1 C 0 km/h
2634 10-03-2010 12:53:02 6.5 C 1.5 g/m*3 6.5 C 0 km/h
2635 10-03-2010 13:05:01 6.6 C 1.51 g/m*3 6.6 C 0 km/h
2636 10-03-2010 13:17:01 7 C 1.55 g/m*3 7 C 0 km/h
2637 10-03-2010 13:29:01 7.4 C 1.59 g/m*3 7.4 C 0 km/h
2638 10-03-2010 13:41:02 7.6 C 1.61 g/m*3 7.6 C 0 km/h
2639 10-03-2010 13:53:02 8 C 1.65 g/m*3 8 C 0 km/h
2640 10-03-2010 14:05:02 8.2 C 1.67 g/m*3 8.2 C 0 km/h
2641 10-03-2010 14:17:02 8.2 C 1.67 g/m*3 8.2 C 0 km/h
2642 10-03-2010 14:29:02 8.3 C 1.69 g/m*3 8.3 C 0 km/h
2643 10-03-2010 14:41:02 8.5 C 1.71 g/m*3 8.5 C 0 km/h
2644 10-03-2010 14:53:02 8.2 C 1.67 g/m*3 8.2 C 0 km/h
2645 10-03-2010 15:05:03 8.7 C 1.73 g/m*3 8.7 C 0 km/h
2646 10-03-2010 15:17:02 9.3 C 1.8 g/m*3 9.3 C 0 km/h
2647 10-03-2010 15:29:02 8.7 C 1.73 g/m*3 8.7 C 0 km/h
2648 10-03-2010 15:41:02 8.4 C 1.7 g/m*3 8.4 C 0 km/h
2649 10-03-2010 15:53:01 8.8 C 1.74 g/m*3 8.8 C 0 km/h
2650 10-03-2010 16:05:02 8.7 C 1.73 g/m*3 8.7 C 0 km/h
Sensor: Nr:Datum:Temp:Abs-Feuchte:Windchill:Wind:
Aussen-T/F 2651 10-03-2010 16:17:01 8.3 C 1.69 g/m*3 8.3 C 0 km/h
2652 10-03-2010 16:29:01 7.8 C 1.63 g/m*3 7.8 C 0 km/h
2653 10-03-2010 16:41:01 7.4 C 1.59 g/m*3 7.4 C 0 km/h
2654 10-03-2010 16:53:01 7.1 C 1.56 g/m*3 7.1 C 0 km/h
2655 10-03-2010 17:05:02 6.8 C 1.53 g/m*3 6.8 C 0 km/h
2656 10-03-2010 17:17:02 6.5 C 1.5 g/m*3 6.5 C 0 km/h
2657 10-03-2010 17:29:02 6.2 C 1.47 g/m*3 6.2 C 0 km/h
2658 10-03-2010 17:41:01 6.1 C 1.46 g/m*3 6.1 C 0 km/h
2659 10-03-2010 17:53:01 5.7 C 1.42 g/m*3 5.7 C 0 km/h
2660 10-03-2010 18:05:01 5.4 C 1.4 g/m*3 5.4 C 0 km/h
2661 10-03-2010 18:17:02 5 C 1.36 g/m*3 5 C 0 km/h
2662 10-03-2010 18:29:02 4.4 C 1.5 g/m*3 4.4 C 0 km/h
2663 10-03-2010 18:41:01 4 C 1.78 g/m*3 4 C 0 km/h
2664 10-03-2010 18:53:02 3.7 C 1.93 g/m*3 3.7 C 0 km/h
2665 10-03-2010 19:05:01 3.7 C 1.81 g/m*3 3.7 C 0 km/h
2666 10-03-2010 19:17:02 3.5 C 1.72 g/m*3 3.5 C 0 km/h
2667 10-03-2010 19:29:02 3.3 C 1.7 g/m*3 3.3 C 0 km/h
2668 10-03-2010 19:41:01 2.9 C 1.89 g/m*3 2.9 C 0 km/h
2669 10-03-2010 19:53:03 2.7 C 1.81 g/m*3 2.7 C 0 km/h
2670 10-03-2010 20:05:02 2.7 C 1.81 g/m*3 2.7 C 0 km/h
2671 10-03-2010 20:17:02 2.5 C 1.78 g/m*3 2.5 C 0 km/h
2672 10-03-2010 20:29:02 2.4 C 1.83 g/m*3 2.4 C 0 km/h
2673 10-03-2010 20:41:02 2.3 C 1.76 g/m*3 2.3 C 0 km/h
2674 10-03-2010 20:53:02 2.2 C 1.8 g/m*3 2.2 C 0 km/h
2675 10-03-2010 21:05:01 2.2 C 1.75 g/m*3 2.2 C 0 km/h
Sensor: Nr:Datum:Temp:Abs-Feuchte:Windchill:Wind:
Aussen-T/F 2676 10-03-2010 21:18:02 2.1 C 1.73 g/m*3 2.1 C 0 km/h
2677 10-03-2010 21:30:02 1.9 C 1.93 g/m*3 1.9 C 0 km/h
2678 10-03-2010 21:42:02 1.8 C 1.92 g/m*3 1.8 C 0 km/h
2679 10-03-2010 21:54:02 1.7 C 1.96 g/m*3 1.7 C 0 km/h
2680 10-03-2010 22:06:02 1.5 C 1.99 g/m*3 1.5 C 0 km/h
2681 10-03-2010 22:18:02 1.5 C 1.99 g/m*3 1.5 C 0 km/h
2682 10-03-2010 22:30:02 1.4 C 2.03 g/m*3 1.4 C 0 km/h
2683 10-03-2010 22:42:02 1.4 C 2.03 g/m*3 1.4 C 0 km/h
2684 10-03-2010 22:54:02 1.4 C 2.08 g/m*3 1.4 C 0 km/h
2685 10-03-2010 23:06:02 1.1 C 2.09 g/m*3 1.1 C 0 km/h
2686 10-03-2010 23:18:02 0.8 C 2.15 g/m*3 0.8 C 0 km/h
2687 10-03-2010 23:30:02 0.6 C 2.22 g/m*3 0.6 C 0 km/h
2688 10-03-2010 23:42:02 0.4 C 2.24 g/m*3 0.4 C 0 km/h
2689 10-03-2010 23:54:02 0.2 C 2.26 g/m*3 0.2 C 0 km/h
2690 11-03-2010 00:06:02 0 C 2.33 g/m*3 0 C 0 km/h
2691 11-03-2010 00:18:02 0 C 2.33 g/m*3 0 C 0 km/h
2692 11-03-2010 00:30:02 -0.2 C 2.29 g/m*3 -0.2 C 0 km/h
2693 11-03-2010 00:42:02 -0.2 C 2.29 g/m*3 -0.2 C 0 km/h
2694 11-03-2010 00:54:02 -0.2 C 2.29 g/m*3 -0.2 C 0 km/h
2695 11-03-2010 01:06:02 -0.3 C 2.28 g/m*3 -0.3 C 0 km/h
2696 11-03-2010 01:18:03 -0.5 C 2.25 g/m*3 -0.5 C 0 km/h
2697 11-03-2010 01:30:03 -0.9 C 2.28 g/m*3 -0.9 C 0 km/h
2698 11-03-2010 01:42:03 -0.9 C 2.37 g/m*3 -0.9 C 0 km/h
2699 11-03-2010 01:54:03 -1.1 C 2.29 g/m*3 -1.1 C 0 km/h
2700 11-03-2010 02:06:03 -1 C 2.31 g/m*3 -1 C 0 km/h
Sensor: Nr:Datum:Temp:Abs-Feuchte:Windchill:Wind:
Aussen-T/F 2701 11-03-2010 02:18:03 -1.1 C 2.29 g/m*3 -1.1 C 0 km/h
2702 11-03-2010 02:30:03 -1.3 C 2.3 g/m*3 -1.3 C 0 km/h
2703 11-03-2010 02:42:03 -1.3 C 2.3 g/m*3 -1.3 C 0 km/h
2704 11-03-2010 02:54:03 -1.4 C 2.33 g/m*3 -1.4 C 0 km/h
2705 11-03-2010 03:06:03 -1.5 C 2.31 g/m*3 -1.5 C 0 km/h
2706 11-03-2010 03:18:03 -1.5 C 2.36 g/m*3 -1.5 C 0 km/h
2707 11-03-2010 03:30:03 -1.7 C 2.32 g/m*3 -1.7 C 0 km/h
2708 11-03-2010 03:42:03 -1.8 C 2.31 g/m*3 -1.8 C 0 km/h
2709 11-03-2010 03:54:03 -1.9 C 2.29 g/m*3 -1.9 C 0 km/h
2710 11-03-2010 04:06:03 -2 C 2.32 g/m*3 -2 C 0 km/h
2711 11-03-2010 04:18:03 -2 C 2.32 g/m*3 -2 C 0 km/h
2712 11-03-2010 04:30:03 -2.1 C 2.3 g/m*3 -2.1 C 0 km/h
2713 11-03-2010 04:42:03 -2.2 C 2.29 g/m*3 -2.2 C 0 km/h
2714 11-03-2010 04:54:03 -2.3 C 2.31 g/m*3 -2.3 C 0 km/h
2715 11-03-2010 05:06:03 -2.6 C 2.26 g/m*3 -2.6 C 0 km/h
2716 11-03-2010 05:18:03 -3 C 2.2 g/m*3 -3 C 0 km/h
2717 11-03-2010 05:30:04 -3 C 2.32 g/m*3 -3 C 0 km/h
2718 11-03-2010 05:42:04 -3 C 2.4 g/m*3 -3 C 0 km/h
2719 11-03-2010 05:54:04 -2.8 C 2.39 g/m*3 -2.8 C 0 km/h
2720 11-03-2010 06:06:04 -2.7 C 2.37 g/m*3 -2.7 C 0 km/h
2721 11-03-2010 06:18:04 -2.8 C 2.35 g/m*3 -2.8 C 0 km/h
2722 11-03-2010 06:30:04 -2.8 C 2.39 g/m*3 -2.8 C 0 km/h
2723 11-03-2010 06:42:04 -2.8 C 2.39 g/m*3 -2.8 C 0 km/h
2724 11-03-2010 06:54:04 -2.8 C 2.43 g/m*3 -2.8 C 0 km/h
2725 11-03-2010 07:06:02 -2.9 C 2.45 g/m*3 -2.9 C 0 km/h
Sensor: Nr:Datum:Temp:Abs-Feuchte:Windchill:Wind:
Aussen-T/F 2726 11-03-2010 07:18:01 -3 C 2.44 g/m*3 -3 C 0 km/h
2727 11-03-2010 07:30:01 -3 C 2.47 g/m*3 -3 C 0 km/h
2728 11-03-2010 07:42:02 -2.9 C 2.49 g/m*3 -2.9 C 0 km/h
2729 11-03-2010 07:54:01 -2.7 C 2.53 g/m*3 -2.7 C 0 km/h
2730 11-03-2010 08:06:02 -2.4 C 2.58 g/m*3 -2.4 C 0 km/h
2731 11-03-2010 08:18:02 -2.1 C 2.55 g/m*3 -2.1 C 0 km/h
2732 11-03-2010 08:30:02 -1.8 C 2.52 g/m*3 -1.8 C 0 km/h
2733 11-03-2010 08:42:01 -1.3 C 2.52 g/m*3 -1.3 C 0 km/h
2734 11-03-2010 08:54:02 -0.9 C 2.55 g/m*3 -0.9 C 0 km/h
2735 11-03-2010 09:06:01 -0.7 C 2.54 g/m*3 -0.7 C 0 km/h
2736 11-03-2010 09:18:02 -0.4 C 2.45 g/m*3 -0.4 C 0 km/h
2737 11-03-2010 09:30:03 -0.3 C 2.42 g/m*3 -0.3 C 0 km/h
2738 11-03-2010 09:42:01 -0.2 C 2.39 g/m*3 -0.2 C 0 km/h
2739 11-03-2010 09:54:02 -0.2 C 2.29 g/m*3 -0.2 C 0 km/h
2740 11-03-2010 10:06:02 0.1 C 2.34 g/m*3 0.1 C 0 km/h
2741 11-03-2010 10:18:02 0.2 C 2.36 g/m*3 0.2 C 0 km/h
2742 11-03-2010 10:30:02 0.2 C 2.31 g/m*3 0.2 C 0 km/h
2743 11-03-2010 10:42:03 0.4 C 2.39 g/m*3 0.4 C 0 km/h
2744 11-03-2010 10:54:02 0.9 C 2.42 g/m*3 0.9 C 0 km/h
2745 11-03-2010 11:06:01 1.1 C 2.35 g/m*3 1.1 C 0 km/h
2746 11-03-2010 11:18:02 1.4 C 2.35 g/m*3 1.4 C 0 km/h
2747 11-03-2010 11:30:02 1.6 C 2.27 g/m*3 1.6 C 0 km/h
2748 11-03-2010 11:42:02 1.9 C 2.26 g/m*3 1.9 C 0 km/h
2749 11-03-2010 11:54:02 2 C 2.17 g/m*3 2 C 0 km/h
2750 11-03-2010 12:06:03 2.2 C 2.2 g/m*3 2.2 C 0 km/h
Sensor: Nr:Datum:Temp:Abs-Feuchte:Windchill:Wind:
Aussen-T/F 2751 11-03-2010 12:18:02 2.7 C 2.21 g/m*3 2.7 C 0 km/h
2752 11-03-2010 12:30:02 3.1 C 2.04 g/m*3 3.1 C 0 km/h
2753 11-03-2010 12:42:02 3.6 C 1.98 g/m*3 3.6 C 0 km/h
2754 11-03-2010 12:54:02 4 C 1.91 g/m*3 4 C 0 km/h
2755 11-03-2010 13:06:02 4.5 C 1.84 g/m*3 4.5 C 0 km/h
2756 11-03-2010 13:18:01 4.8 C 1.68 g/m*3 4.8 C 0 km/h
2757 11-03-2010 13:30:01 5.1 C 1.78 g/m*3 5.1 C 0 km/h
2758 11-03-2010 13:42:02 5.9 C 1.87 g/m*3 5.9 C 0 km/h
2759 11-03-2010 13:54:02 5.6 C 1.84 g/m*3 5.6 C 0 km/h
2760 11-03-2010 14:06:02 6.1 C 1.9 g/m*3 6.1 C 0 km/h
2761 11-03-2010 14:18:01 6.5 C 1.95 g/m*3 6.5 C 0 km/h
2762 11-03-2010 14:30:01 6.2 C 2.13 g/m*3 6.2 C 0 km/h
2763 11-03-2010 14:42:02 6.6 C 2.04 g/m*3 6.6 C 0 km/h
2764 11-03-2010 14:54:02 6.3 C 2.07 g/m*3 6.3 C 0 km/h
2765 11-03-2010 15:06:02 5.7 C 2.35 g/m*3 5.7 C 0 km/h
2766 11-03-2010 15:18:01 5.9 C 2.45 g/m*3 5.9 C 0 km/h
2767 11-03-2010 15:30:01 4.9 C 2.57 g/m*3 4.9 C 0 km/h
2768 11-03-2010 15:42:02 4.6 C 2.65 g/m*3 4.6 C 0 km/h
2769 11-03-2010 15:54:02 4.8 C 2.68 g/m*3 4.8 C 0 km/h
2770 11-03-2010 16:06:02 4.7 C 2.66 g/m*3 4.7 C 0 km/h
2771 11-03-2010 16:18:02 4.8 C 2.68 g/m*3 4.8 C 0 km/h
2772 11-03-2010 16:30:02 4.3 C 2.66 g/m*3 4.3 C 0 km/h
2773 11-03-2010 16:42:02 4.2 C 2.71 g/m*3 4.2 C 0 km/h
2774 11-03-2010 16:54:02 4 C 2.67 g/m*3 4 C 0 km/h
2775 11-03-2010 17:06:02 3.9 C 2.78 g/m*3 3.9 C 0 km/h
Sensor: Nr:Datum:Temp:Abs-Feuchte:Windchill:Wind:
Aussen-T/F 2776 11-03-2010 17:18:02 3.6 C 2.79 g/m*3 3.6 C 0 km/h
2777 11-03-2010 17:30:02 3.1 C 2.75 g/m*3 3.1 C 0 km/h
2778 11-03-2010 17:42:04 2.8 C 2.82 g/m*3 2.8 C 0 km/h
2779 11-03-2010 17:54:02 2.2 C 2.76 g/m*3 2.2 C 0 km/h
2780 11-03-2010 18:06:01 2 C 2.78 g/m*3 2 C 0 km/h
2781 11-03-2010 18:18:02 1.6 C 2.87 g/m*3 1.6 C 0 km/h
2782 11-03-2010 18:30:02 1.2 C 2.84 g/m*3 1.2 C 0 km/h
2783 11-03-2010 18:42:02 0.9 C 2.89 g/m*3 0.9 C 0 km/h
2784 11-03-2010 18:54:02 0.7 C 2.9 g/m*3 0.7 C 0 km/h
2785 11-03-2010 19:06:02 0.4 C 2.89 g/m*3 0.4 C 0 km/h
2786 11-03-2010 19:18:02 0.3 C 2.92 g/m*3 0.3 C 0 km/h
2787 11-03-2010 19:30:02 0.3 C 2.97 g/m*3 0.3 C 0 km/h
2788 11-03-2010 19:42:02 0.1 C 2.93 g/m*3 0.1 C 0 km/h
2789 11-03-2010 19:54:02 0 C 2.91 g/m*3 0 C 0 km/h
2790 11-03-2010 20:06:02 -0.1 C 2.89 g/m*3 -0.1 C 0 km/h
2791 11-03-2010 20:18:02 -0.2 C 2.91 g/m*3 -0.2 C 0 km/h
2792 11-03-2010 20:30:02 -0.4 C 2.92 g/m*3 -0.4 C 0 km/h
2793 11-03-2010 20:42:02 -0.4 C 2.97 g/m*3 -0.4 C 0 km/h
2794 11-03-2010 20:54:01 -0.6 C 2.97 g/m*3 -0.6 C 0 km/h
2795 11-03-2010 21:07:04 -0.8 C 2.93 g/m*3 -0.8 C 0 km/h
2796 11-03-2010 21:19:04 -0.8 C 2.98 g/m*3 -0.8 C 0 km/h
2797 11-03-2010 21:31:04 -0.9 C 2.96 g/m*3 -0.9 C 0 km/h
2798 11-03-2010 21:43:05 -1.1 C 2.96 g/m*3 -1.1 C 0 km/h
2799 11-03-2010 21:55:05 -1.1 C 2.96 g/m*3 -1.1 C 0 km/h
2800 11-03-2010 22:07:05 -1.2 C 3.03 g/m*3 -1.2 C 0 km/h
Sensor: Nr:Datum:Temp:Abs-Feuchte:Windchill:Wind:
Aussen-T/F 2801 11-03-2010 22:19:05 -1.3 C 3.01 g/m*3 -1.3 C 0 km/h
2802 11-03-2010 22:31:05 -1.2 C 3.08 g/m*3 -1.2 C 0 km/h
2803 11-03-2010 22:43:05 -1.4 C 3.03 g/m*3 -1.4 C 0 km/h
2804 11-03-2010 22:55:05 -1.5 C 3.06 g/m*3 -1.5 C 0 km/h
2805 11-03-2010 23:07:05 -1.7 C 3.01 g/m*3 -1.7 C 0 km/h
2806 11-03-2010 23:19:05 -1.9 C 2.97 g/m*3 -1.9 C 0 km/h
2807 11-03-2010 23:31:05 -2 C 2.99 g/m*3 -2 C 0 km/h
2808 11-03-2010 23:43:05 -2.2 C 2.95 g/m*3 -2.2 C 0 km/h
2809 11-03-2010 23:55:05 -2.5 C 2.89 g/m*3 -2.5 C 0 km/h
2810 12-03-2010 00:07:05 -2.6 C 2.87 g/m*3 -2.6 C 0 km/h
2811 12-03-2010 00:19:05 -2.6 C 2.87 g/m*3 -2.6 C 0 km/h
2812 12-03-2010 00:31:05 -2.7 C 2.89 g/m*3 -2.7 C 0 km/h
2813 12-03-2010 00:43:05 -2.7 C 2.89 g/m*3 -2.7 C 0 km/h
2814 12-03-2010 00:55:05 -2.3 C 2.97 g/m*3 -2.3 C 0 km/h
2815 12-03-2010 01:07:05 -1.9 C 3.06 g/m*3 -1.9 C 0 km/h
2816 12-03-2010 01:19:05 -1.6 C 3.08 g/m*3 -1.6 C 0 km/h
2817 12-03-2010 01:31:05 -1.5 C 3.06 g/m*3 -1.5 C 0 km/h
2818 12-03-2010 01:43:05 -1.3 C 3.1 g/m*3 -1.3 C 0 km/h
2819 12-03-2010 01:55:06 -1.4 C 3.03 g/m*3 -1.4 C 0 km/h
2820 12-03-2010 02:07:06 -1.4 C 3.03 g/m*3 -1.4 C 0 km/h
2821 12-03-2010 02:19:06 -1.3 C 3.1 g/m*3 -1.3 C 0 km/h
2822 12-03-2010 02:31:06 -1.3 C 3.1 g/m*3 -1.3 C 0 km/h
2823 12-03-2010 02:43:06 -1.3 C 3.1 g/m*3 -1.3 C 0 km/h
2824 12-03-2010 02:55:06 -1.3 C 3.1 g/m*3 -1.3 C 0 km/h
2825 12-03-2010 03:07:06 -1.2 C 3.12 g/m*3 -1.2 C 0 km/h
Sensor: Nr:Datum:Temp:Abs-Feuchte:Windchill:Wind:
Aussen-T/F 2826 12-03-2010 03:19:06 -1.3 C 3.1 g/m*3 -1.3 C 0 km/h
2827 12-03-2010 03:31:06 -1.3 C 3.1 g/m*3 -1.3 C 0 km/h
2828 12-03-2010 03:43:06 -1.3 C 3.14 g/m*3 -1.3 C 0 km/h
2829 12-03-2010 03:55:06 -1.2 C 3.17 g/m*3 -1.2 C 0 km/h
2830 12-03-2010 04:07:06 -1.3 C 3.14 g/m*3 -1.3 C 0 km/h
2831 12-03-2010 04:19:06 -1.3 C 3.14 g/m*3 -1.3 C 0 km/h
2832 12-03-2010 04:31:06 -1.3 C 3.14 g/m*3 -1.3 C 0 km/h
2833 12-03-2010 04:43:06 -1.3 C 3.14 g/m*3 -1.3 C 0 km/h
2834 12-03-2010 04:55:06 -1.3 C 3.14 g/m*3 -1.3 C 0 km/h
2835 12-03-2010 05:07:06 -1.2 C 3.17 g/m*3 -1.2 C 0 km/h
2836 12-03-2010 05:19:06 -1.2 C 3.21 g/m*3 -1.2 C 0 km/h
2837 12-03-2010 05:31:06 -1.2 C 3.21 g/m*3 -1.2 C 0 km/h
2838 12-03-2010 05:43:06 -1.1 C 3.23 g/m*3 -1.1 C 0 km/h
2839 12-03-2010 05:55:06 -1.1 C 3.23 g/m*3 -1.1 C 0 km/h
2840 12-03-2010 06:07:07 -1.1 C 3.28 g/m*3 -1.1 C 0 km/h
2841 12-03-2010 06:19:07 -1.1 C 3.28 g/m*3 -1.1 C 0 km/h
2842 12-03-2010 06:31:07 -0.9 C 3.32 g/m*3 -0.9 C 0 km/h
2843 12-03-2010 06:43:07 -0.9 C 3.32 g/m*3 -0.9 C 0 km/h
2844 12-03-2010 06:55:07 -0.9 C 3.37 g/m*3 -0.9 C 0 km/h
2845 12-03-2010 07:07:03 -0.9 C 3.41 g/m*3 -0.9 C 0 km/h
2846 12-03-2010 07:19:04 -0.9 C 3.46 g/m*3 -0.9 C 0 km/h
2847 12-03-2010 07:31:03 -0.9 C 3.51 g/m*3 -0.9 C 0 km/h
2848 12-03-2010 07:43:03 -0.9 C 3.55 g/m*3 -0.9 C 0 km/h
2849 12-03-2010 07:55:01 -0.9 C 3.6 g/m*3 -0.9 C 0 km/h
2850 12-03-2010 08:07:02 -0.7 C 3.69 g/m*3 -0.7 C 0 km/h
Sensor: Nr:Datum:Temp:Abs-Feuchte:Windchill:Wind:
Aussen-T/F 2851 12-03-2010 08:19:02 -0.7 C 3.69 g/m*3 -0.7 C 0 km/h
2852 12-03-2010 08:31:01 -0.5 C 3.74 g/m*3 -0.5 C 0 km/h
2853 12-03-2010 08:43:01 -0.4 C 3.77 g/m*3 -0.4 C 0 km/h
2854 12-03-2010 08:55:03 -0.4 C 3.82 g/m*3 -0.4 C 0 km/h
2855 12-03-2010 09:07:02 -0.3 C 3.89 g/m*3 -0.3 C 0 km/h
2856 12-03-2010 09:19:02 -0.2 C 3.92 g/m*3 -0.2 C 0 km/h
2857 12-03-2010 09:31:03 0 C 4.02 g/m*3 0 C 0 km/h
2858 12-03-2010 09:43:03 0.1 C 4.05 g/m*3 0.1 C 0 km/h
2859 12-03-2010 09:55:02 0.3 C 4.06 g/m*3 0.3 C 0 km/h
2860 12-03-2010 10:07:01 0.4 C 4.08 g/m*3 0.4 C 0 km/h
2861 12-03-2010 10:19:02 0.7 C 4.12 g/m*3 0.7 C 0 km/h
2862 12-03-2010 10:31:02 0.9 C 4.12 g/m*3 0.9 C 0 km/h
2863 12-03-2010 10:43:02 1.3 C 4.13 g/m*3 1.3 C 0 km/h
2864 12-03-2010 10:55:02 1.5 C 4.14 g/m*3 1.5 C 0 km/h
2865 12-03-2010 11:07:03 1.8 C 4.11 g/m*3 1.8 C 0 km/h
2866 12-03-2010 11:19:02 2.1 C 4.08 g/m*3 2.1 C 0 km/h
2867 12-03-2010 11:31:02 2.2 C 4.06 g/m*3 2.2 C 0 km/h
2868 12-03-2010 11:43:03 2.6 C 4.17 g/m*3 2.6 C 0 km/h
2869 12-03-2010 11:55:01 2.7 C 4.2 g/m*3 2.7 C 0 km/h
2870 12-03-2010 12:07:02 2.8 C 4.16 g/m*3 2.8 C 0 km/h
2871 12-03-2010 12:19:01 3.1 C 4.19 g/m*3 3.1 C 0 km/h
2872 12-03-2010 12:31:01 3.4 C 4.28 g/m*3 3.4 C 0 km/h
2873 12-03-2010 12:43:01 3.8 C 4.27 g/m*3 3.8 C 0 km/h
2874 12-03-2010 12:55:01 3.9 C 4.29 g/m*3 3.9 C 0 km/h
2875 12-03-2010 13:07:02 4.4 C 4.31 g/m*3 4.4 C 0 km/h
Sensor: Nr:Datum:Temp:Abs-Feuchte:Windchill:Wind:
Aussen-T/F 2876 12-03-2010 13:19:01 4.4 C 4.24 g/m*3 4.4 C 0 km/h
2877 12-03-2010 13:31:02 4.6 C 4.3 g/m*3 4.6 C 0 km/h
2878 12-03-2010 13:43:02 5 C 4.14 g/m*3 5 C 0 km/h
2879 12-03-2010 13:55:01 5.2 C 4.27 g/m*3 5.2 C 0 km/h
2880 12-03-2010 14:07:02 4.8 C 4.16 g/m*3 4.8 C 0 km/h
2881 12-03-2010 14:19:02 5 C 4.08 g/m*3 5 C 0 km/h
2882 12-03-2010 14:31:01 5.1 C 4.1 g/m*3 5.1 C 0 km/h
2883 12-03-2010 14:43:01 5.4 C 4.12 g/m*3 5.4 C 0 km/h
2884 12-03-2010 14:55:01 6.1 C 4.09 g/m*3 6.1 C 0 km/h
2885 12-03-2010 15:07:02 7.1 C 4.29 g/m*3 7.1 C 0 km/h
2886 12-03-2010 15:19:02 6.9 C 3.85 g/m*3 6.9 C 0 km/h
2887 12-03-2010 15:31:01 7.4 C 4.06 g/m*3 7.4 C 0 km/h
2888 12-03-2010 15:43:01 7.3 C 3.95 g/m*3 7.3 C 0 km/h
2889 12-03-2010 15:55:01 6.1 C 3.8 g/m*3 6.1 C 0 km/h
2890 12-03-2010 16:07:01 5.3 C 4.09 g/m*3 5.3 C 0 km/h
2891 12-03-2010 16:19:02 4.9 C 4.25 g/m*3 4.9 C 0 km/h
2892 12-03-2010 16:31:01 5.1 C 4.38 g/m*3 5.1 C 0 km/h
2893 12-03-2010 16:43:01 5.2 C 4.41 g/m*3 5.2 C 0 km/h
2894 12-03-2010 16:55:02 5.1 C 4.31 g/m*3 5.1 C 0 km/h
2895 12-03-2010 17:07:01 4.9 C 4.32 g/m*3 4.9 C 0 km/h
2896 12-03-2010 17:19:01 4.9 C 4.32 g/m*3 4.9 C 0 km/h
2897 12-03-2010 17:31:01 4.8 C 4.29 g/m*3 4.8 C 0 km/h
2898 12-03-2010 17:43:01 4.4 C 4.24 g/m*3 4.4 C 0 km/h
2899 12-03-2010 17:55:02 4.1 C 4.29 g/m*3 4.1 C 0 km/h
2900 12-03-2010 18:07:02 3.9 C 4.36 g/m*3 3.9 C 0 km/h
Sensor: Nr:Datum:Temp:Abs-Feuchte:Windchill:Wind:
Aussen-T/F 2901 12-03-2010 18:19:02 3.7 C 4.36 g/m*3 3.7 C 0 km/h
2902 12-03-2010 18:31:01 3.5 C 4.37 g/m*3 3.5 C 0 km/h
2903 12-03-2010 18:43:01 3.2 C 4.28 g/m*3 3.2 C 0 km/h
2904 12-03-2010 18:55:02 3 C 4.28 g/m*3 3 C 0 km/h
2905 12-03-2010 19:07:01 2.8 C 4.34 g/m*3 2.8 C 0 km/h
2906 12-03-2010 19:19:02 2.8 C 4.34 g/m*3 2.8 C 0 km/h
2907 12-03-2010 19:31:01 2.8 C 4.4 g/m*3 2.8 C 0 km/h
2908 12-03-2010 19:43:01 2.9 C 4.43 g/m*3 2.9 C 0 km/h
2909 12-03-2010 19:55:02 3.1 C 4.43 g/m*3 3.1 C 0 km/h
2910 12-03-2010 20:07:02 3.1 C 4.43 g/m*3 3.1 C 0 km/h
2911 12-03-2010 20:19:02 3.1 C 4.43 g/m*3 3.1 C 0 km/h
2912 12-03-2010 20:31:03 3.2 C 4.46 g/m*3 3.2 C 0 km/h
2913 12-03-2010 20:43:03 3.1 C 4.37 g/m*3 3.1 C 0 km/h
2914 12-03-2010 20:55:02 2.9 C 4.43 g/m*3 2.9 C 0 km/h
2915 12-03-2010 21:07:01 2.8 C 4.4 g/m*3 2.8 C 0 km/h
2916 12-03-2010 21:19:02 2.8 C 4.46 g/m*3 2.8 C 0 km/h
2917 12-03-2010 21:31:02 2.7 C 4.43 g/m*3 2.7 C 0 km/h
2918 12-03-2010 21:43:02 2.7 C 4.43 g/m*3 2.7 C 0 km/h
2919 12-03-2010 21:55:03 2.6 C 4.4 g/m*3 2.6 C 0 km/h
2920 12-03-2010 22:07:03 2.6 C 4.4 g/m*3 2.6 C 0 km/h
2921 12-03-2010 22:20:03 2.6 C 4.46 g/m*3 2.6 C 0 km/h
2922 12-03-2010 22:32:03 2.4 C 4.4 g/m*3 2.4 C 0 km/h
2923 12-03-2010 22:44:03 2.4 C 4.45 g/m*3 2.4 C 0 km/h
2924 12-03-2010 22:56:03 2.4 C 4.45 g/m*3 2.4 C 0 km/h
2925 12-03-2010 23:08:03 2.4 C 4.45 g/m*3 2.4 C 0 km/h
Sensor: Nr:Datum:Temp:Abs-Feuchte:Windchill:Wind:
Aussen-T/F 2926 12-03-2010 23:20:03 2.4 C 4.45 g/m*3 2.4 C 0 km/h
2927 12-03-2010 23:32:03 2.3 C 4.42 g/m*3 2.3 C 0 km/h
2928 12-03-2010 23:44:03 2.2 C 4.45 g/m*3 2.2 C 0 km/h
2929 12-03-2010 23:56:03 2.3 C 4.48 g/m*3 2.3 C 0 km/h
2930 13-03-2010 00:08:03 2.3 C 4.48 g/m*3 2.3 C 0 km/h
2931 13-03-2010 00:20:03 2.2 C 4.45 g/m*3 2.2 C 0 km/h
2932 13-03-2010 00:32:03 2.3 C 4.48 g/m*3 2.3 C 0 km/h
2933 13-03-2010 00:44:03 2.3 C 4.48 g/m*3 2.3 C 0 km/h
2934 13-03-2010 00:56:03 2.3 C 4.48 g/m*3 2.3 C 0 km/h
2935 13-03-2010 01:08:03 2.2 C 4.45 g/m*3 2.2 C 0 km/h
2936 13-03-2010 01:20:03 2.2 C 4.39 g/m*3 2.2 C 0 km/h
2937 13-03-2010 01:32:03 2.3 C 4.42 g/m*3 2.3 C 0 km/h
2938 13-03-2010 01:44:03 2.2 C 4.39 g/m*3 2.2 C 0 km/h
2939 13-03-2010 01:56:03 2.2 C 4.39 g/m*3 2.2 C 0 km/h
2940 13-03-2010 02:08:03 2.2 C 4.39 g/m*3 2.2 C 0 km/h
2941 13-03-2010 02:20:03 2.1 C 4.31 g/m*3 2.1 C 0 km/h
2942 13-03-2010 02:32:03 2.2 C 4.34 g/m*3 2.2 C 0 km/h
2943 13-03-2010 02:44:04 2.1 C 4.25 g/m*3 2.1 C 0 km/h
2944 13-03-2010 02:56:04 2.2 C 4.28 g/m*3 2.2 C 0 km/h
2945 13-03-2010 03:08:04 2.2 C 4.22 g/m*3 2.2 C 0 km/h
2946 13-03-2010 03:20:04 2.2 C 4.22 g/m*3 2.2 C 0 km/h
2947 13-03-2010 03:32:04 2.2 C 4.22 g/m*3 2.2 C 0 km/h
2948 13-03-2010 03:44:04 2 C 4.17 g/m*3 2 C 0 km/h
2949 13-03-2010 03:56:04 1.8 C 4.22 g/m*3 1.8 C 0 km/h
2950 13-03-2010 04:08:04 1.9 C 4.19 g/m*3 1.9 C 0 km/h
Sensor: Nr:Datum:Temp:Abs-Feuchte:Windchill:Wind:
Aussen-T/F 2951 13-03-2010 04:20:04 2 C 4.17 g/m*3 2 C 0 km/h
2952 13-03-2010 04:32:04 2 C 4.17 g/m*3 2 C 0 km/h
2953 13-03-2010 04:44:04 2 C 4.17 g/m*3 2 C 0 km/h
2954 13-03-2010 04:56:04 2 C 4.17 g/m*3 2 C 0 km/h
2955 13-03-2010 05:08:04 2 C 4.17 g/m*3 2 C 0 km/h
2956 13-03-2010 05:20:04 1.8 C 4.17 g/m*3 1.8 C 0 km/h
2957 13-03-2010 05:32:04 1.9 C 4.19 g/m*3 1.9 C 0 km/h
2958 13-03-2010 05:44:04 2 C 4.11 g/m*3 2 C 0 km/h
2959 13-03-2010 05:56:04 2 C 4.11 g/m*3 2 C 0 km/h
2960 13-03-2010 06:08:04 2 C 4.11 g/m*3 2 C 0 km/h
2961 13-03-2010 06:20:04 2.1 C 4.08 g/m*3 2.1 C 0 km/h
2962 13-03-2010 06:32:04 2.2 C 4.11 g/m*3 2.2 C 0 km/h
2963 13-03-2010 06:44:04 2.1 C 4.08 g/m*3 2.1 C 0 km/h
2964 13-03-2010 06:56:02 2.3 C 4.2 g/m*3 2.3 C 0 km/h
2965 13-03-2010 07:08:02 2.3 C 4.25 g/m*3 2.3 C 0 km/h
2966 13-03-2010 07:20:02 2.3 C 4.31 g/m*3 2.3 C 0 km/h
2967 13-03-2010 07:32:02 2.3 C 4.31 g/m*3 2.3 C 0 km/h
2968 13-03-2010 07:44:02 2.4 C 4.45 g/m*3 2.4 C 0 km/h
2969 13-03-2010 07:56:02 2.6 C 4.63 g/m*3 2.6 C 0 km/h
2970 13-03-2010 08:08:02 2.7 C 4.66 g/m*3 2.7 C 0 km/h
2971 13-03-2010 08:20:02 2.8 C 4.69 g/m*3 2.8 C 0 km/h
2972 13-03-2010 08:32:02 2.9 C 4.72 g/m*3 2.9 C 0 km/h
2973 13-03-2010 08:44:02 3.1 C 4.73 g/m*3 3.1 C 0 km/h
2974 13-03-2010 08:56:02 3.3 C 4.73 g/m*3 3.3 C 0 km/h
2975 13-03-2010 09:08:01 3.4 C 4.7 g/m*3 3.4 C 0 km/h
Sensor: Nr:Datum:Temp:Abs-Feuchte:Windchill:Wind:
Aussen-T/F 2976 13-03-2010 09:20:02 3.4 C 4.64 g/m*3 3.4 C 0 km/h
2977 13-03-2010 09:32:01 3.6 C 4.7 g/m*3 3.6 C 0 km/h
2978 13-03-2010 09:44:01 3.6 C 4.7 g/m*3 3.6 C 0 km/h
2979 13-03-2010 09:56:02 3.7 C 4.74 g/m*3 3.7 C 0 km/h
2980 13-03-2010 10:08:01 4 C 4.7 g/m*3 4 C 0 km/h
2981 13-03-2010 10:20:02 4.4 C 4.7 g/m*3 4.4 C 0 km/h
2982 13-03-2010 10:32:02 4.8 C 4.69 g/m*3 4.8 C 0 km/h
2983 13-03-2010 10:44:02 4.8 C 4.49 g/m*3 4.8 C 0 km/h
2984 13-03-2010 10:56:02 5 C 4.42 g/m*3 5 C 0 km/h
2985 13-03-2010 11:08:02 4.8 C 4.22 g/m*3 4.8 C 0 km/h
2986 13-03-2010 11:20:02 4.7 C 4.26 g/m*3 4.7 C 0 km/h
2987 13-03-2010 11:32:02 5.2 C 4.34 g/m*3 5.2 C 0 km/h
2988 13-03-2010 11:44:02 5.3 C 4.23 g/m*3 5.3 C 0 km/h
2989 13-03-2010 11:56:02 6 C 4.06 g/m*3 6 C 0 km/h
2990 13-03-2010 12:08:02 6.5 C 4.05 g/m*3 6.5 C 0 km/h
2991 13-03-2010 12:20:01 6.2 C 3.75 g/m*3 6.2 C 0 km/h
2992 13-03-2010 12:32:02 5.8 C 3.72 g/m*3 5.8 C 0 km/h
2993 13-03-2010 12:44:02 6.3 C 3.78 g/m*3 6.3 C 0 km/h
2994 13-03-2010 12:56:02 6.7 C 3.72 g/m*3 6.7 C 0 km/h
2995 13-03-2010 13:08:02 6.3 C 3.7 g/m*3 6.3 C 0 km/h
2996 13-03-2010 13:20:02 6 C 3.7 g/m*3 6 C 0 km/h
2997 13-03-2010 13:32:02 5.8 C 3.94 g/m*3 5.8 C 0 km/h
2998 13-03-2010 13:44:02 5.8 C 4.01 g/m*3 5.8 C 0 km/h
2999 13-03-2010 13:56:02 6.1 C 4.16 g/m*3 6.1 C 0 km/h
3000 13-03-2010 14:08:02 6.3 C 4.07 g/m*3 6.3 C 0 km/h
Sensor: Nr:Datum:Temp:Abs-Feuchte:Windchill:Wind:
Aussen-T/F 3001 13-03-2010 14:20:02 6.3 C 4.07 g/m*3 6.3 C 0 km/h
3002 13-03-2010 14:32:02 6.1 C 4.02 g/m*3 6.1 C 0 km/h
3003 13-03-2010 14:44:02 6.2 C 3.97 g/m*3 6.2 C 0 km/h
3004 13-03-2010 14:56:02 6.3 C 4 g/m*3 6.3 C 0 km/h
3005 13-03-2010 15:08:02 6.5 C 4.05 g/m*3 6.5 C 0 km/h
3006 13-03-2010 15:20:02 6.5 C 3.9 g/m*3 6.5 C 0 km/h
3007 13-03-2010 15:32:02 6.5 C 3.9 g/m*3 6.5 C 0 km/h
3008 13-03-2010 15:44:02 6.7 C 4.03 g/m*3 6.7 C 0 km/h
3009 13-03-2010 15:56:02 6.6 C 3.93 g/m*3 6.6 C 0 km/h
3010 13-03-2010 16:08:02 6.6 C 3.93 g/m*3 6.6 C 0 km/h
3011 13-03-2010 16:20:03 6.5 C 3.9 g/m*3 6.5 C 0 km/h
3012 13-03-2010 16:32:02 6.5 C 3.9 g/m*3 6.5 C 0 km/h
3013 13-03-2010 16:44:02 6.4 C 3.87 g/m*3 6.4 C 0 km/h
3014 13-03-2010 16:56:02 6.4 C 3.95 g/m*3 6.4 C 0 km/h
3015 13-03-2010 17:08:02 6.4 C 3.95 g/m*3 6.4 C 0 km/h
3016 13-03-2010 17:20:02 6.3 C 3.92 g/m*3 6.3 C 0 km/h
3017 13-03-2010 17:32:02 6.3 C 4 g/m*3 6.3 C 0 km/h
3018 13-03-2010 17:44:02 6.2 C 3.97 g/m*3 6.2 C 0 km/h
3019 13-03-2010 17:56:02 6.2 C 3.97 g/m*3 6.2 C 0 km/h
3020 13-03-2010 18:08:02 6.2 C 3.97 g/m*3 6.2 C 0 km/h
3021 13-03-2010 18:20:02 6.1 C 3.95 g/m*3 6.1 C 0 km/h
3022 13-03-2010 18:32:01 6.1 C 3.95 g/m*3 6.1 C 0 km/h
3023 13-03-2010 18:44:01 6 C 3.92 g/m*3 6 C 0 km/h
3024 13-03-2010 18:56:02 6.1 C 3.95 g/m*3 6.1 C 0 km/h
3025 13-03-2010 19:08:01 6 C 3.92 g/m*3 6 C 0 km/h
Sensor: Nr:Datum:Temp:Abs-Feuchte:Windchill:Wind:
Aussen-T/F 3026 13-03-2010 19:20:02 6 C 3.99 g/m*3 6 C 0 km/h
3027 13-03-2010 19:32:02 6 C 3.99 g/m*3 6 C 0 km/h
3028 13-03-2010 19:44:02 6 C 3.99 g/m*3 6 C 0 km/h
3029 13-03-2010 19:56:02 6 C 3.99 g/m*3 6 C 0 km/h
3030 13-03-2010 20:08:01 5.8 C 4.08 g/m*3 5.8 C 0 km/h
3031 13-03-2010 20:20:01 5.8 C 4.23 g/m*3 5.8 C 0 km/h
3032 13-03-2010 20:32:02 5.5 C 4.28 g/m*3 5.5 C 0 km/h
3033 13-03-2010 20:44:02 5.5 C 4.42 g/m*3 5.5 C 0 km/h
3034 13-03-2010 20:56:02 5.6 C 4.45 g/m*3 5.6 C 0 km/h
3035 13-03-2010 21:08:02 5.6 C 4.45 g/m*3 5.6 C 0 km/h
3036 13-03-2010 21:20:02 5.5 C 4.35 g/m*3 5.5 C 0 km/h
3037 13-03-2010 21:32:02 5.6 C 4.17 g/m*3 5.6 C 0 km/h
3038 13-03-2010 21:44:02 5.5 C 4.07 g/m*3 5.5 C 0 km/h
3039 13-03-2010 21:56:01 5.4 C 4.05 g/m*3 5.4 C 0 km/h
3040 13-03-2010 22:08:02 5.3 C 4.02 g/m*3 5.3 C 0 km/h
3041 13-03-2010 22:21:03 5.2 C 4.13 g/m*3 5.2 C 0 km/h
3042 13-03-2010 22:33:04 5 C 4.21 g/m*3 5 C 0 km/h
3043 13-03-2010 22:45:04 5 C 4.08 g/m*3 5 C 0 km/h
3044 13-03-2010 22:57:04 5.2 C 3.79 g/m*3 5.2 C 0 km/h
3045 13-03-2010 23:09:04 5.1 C 3.63 g/m*3 5.1 C 0 km/h
3046 13-03-2010 23:21:04 5.1 C 3.63 g/m*3 5.1 C 0 km/h
3047 13-03-2010 23:33:04 5.1 C 3.63 g/m*3 5.1 C 0 km/h
3048 13-03-2010 23:45:04 5 C 3.67 g/m*3 5 C 0 km/h
3049 13-03-2010 23:57:04 4.9 C 3.71 g/m*3 4.9 C 0 km/h
3050 14-03-2010 00:09:04 4.8 C 3.62 g/m*3 4.8 C 0 km/h
Sensor: Nr:Datum:Temp:Abs-Feuchte:Windchill:Wind:
Aussen-T/F 3051 14-03-2010 00:21:04 4.7 C 3.6 g/m*3 4.7 C 0 km/h
3052 14-03-2010 00:33:04 4.7 C 3.6 g/m*3 4.7 C 0 km/h
3053 14-03-2010 00:45:04 4.7 C 3.6 g/m*3 4.7 C 0 km/h
3054 14-03-2010 00:57:04 4.6 C 3.57 g/m*3 4.6 C 0 km/h
3055 14-03-2010 01:09:04 4.6 C 3.64 g/m*3 4.6 C 0 km/h
3056 14-03-2010 01:21:04 4.5 C 3.68 g/m*3 4.5 C 0 km/h
3057 14-03-2010 01:33:04 4.4 C 3.66 g/m*3 4.4 C 0 km/h
3058 14-03-2010 01:45:04 4.3 C 3.7 g/m*3 4.3 C 0 km/h
3059 14-03-2010 01:57:04 4.3 C 3.76 g/m*3 4.3 C 0 km/h
3060 14-03-2010 02:09:04 4.3 C 3.76 g/m*3 4.3 C 0 km/h
3061 14-03-2010 02:21:04 4.3 C 3.83 g/m*3 4.3 C 0 km/h
3062 14-03-2010 02:33:04 4.3 C 3.83 g/m*3 4.3 C 0 km/h
3063 14-03-2010 02:45:05 4.2 C 3.8 g/m*3 4.2 C 0 km/h
3064 14-03-2010 02:57:05 4.3 C 3.83 g/m*3 4.3 C 0 km/h
3065 14-03-2010 03:09:05 4.3 C 3.89 g/m*3 4.3 C 0 km/h
3066 14-03-2010 03:21:05 4.3 C 3.89 g/m*3 4.3 C 0 km/h
3067 14-03-2010 03:33:05 4.4 C 3.85 g/m*3 4.4 C 0 km/h
3068 14-03-2010 03:45:05 4.4 C 3.85 g/m*3 4.4 C 0 km/h
3069 14-03-2010 03:57:05 4.4 C 3.85 g/m*3 4.4 C 0 km/h
3070 14-03-2010 04:09:05 4.4 C 3.85 g/m*3 4.4 C 0 km/h
3071 14-03-2010 04:21:05 4.5 C 3.88 g/m*3 4.5 C 0 km/h
3072 14-03-2010 04:33:05 4.4 C 3.92 g/m*3 4.4 C 0 km/h
3073 14-03-2010 04:45:05 4.4 C 3.92 g/m*3 4.4 C 0 km/h
3074 14-03-2010 04:57:05 4.3 C 3.96 g/m*3 4.3 C 0 km/h
3075 14-03-2010 05:09:05 4.3 C 4.02 g/m*3 4.3 C 0 km/h
Sensor: Nr:Datum:Temp:Abs-Feuchte:Windchill:Wind:
Aussen-T/F 3076 14-03-2010 05:21:05 4.3 C 4.02 g/m*3 4.3 C 0 km/h
3077 14-03-2010 05:33:05 4.3 C 4.02 g/m*3 4.3 C 0 km/h
3078 14-03-2010 05:45:05 4.2 C 3.99 g/m*3 4.2 C 0 km/h
3079 14-03-2010 05:57:05 4.2 C 3.99 g/m*3 4.2 C 0 km/h
3080 14-03-2010 06:09:05 4.3 C 4.02 g/m*3 4.3 C 0 km/h
3081 14-03-2010 06:21:05 4.2 C 3.99 g/m*3 4.2 C 0 km/h
3082 14-03-2010 06:33:05 4.2 C 3.99 g/m*3 4.2 C 0 km/h
3083 14-03-2010 06:45:06 4.2 C 3.99 g/m*3 4.2 C 0 km/h
3084 14-03-2010 06:57:06 4.2 C 4.06 g/m*3 4.2 C 0 km/h
3085 14-03-2010 07:09:06 4.3 C 4.02 g/m*3 4.3 C 0 km/h
3086 14-03-2010 07:21:06 4.3 C 4.02 g/m*3 4.3 C 0 km/h
3087 14-03-2010 07:33:06 4.5 C 4.08 g/m*3 4.5 C 0 km/h
3088 14-03-2010 07:45:06 4.6 C 4.04 g/m*3 4.6 C 0 km/h
3089 14-03-2010 07:57:06 4.7 C 4 g/m*3 4.7 C 0 km/h
3090 14-03-2010 08:09:06 4.8 C 3.96 g/m*3 4.8 C 0 km/h
3091 14-03-2010 08:21:06 4.9 C 3.92 g/m*3 4.9 C 0 km/h
3092 14-03-2010 08:33:06 5.2 C 3.86 g/m*3 5.2 C 0 km/h
3093 14-03-2010 08:45:01 5.3 C 3.81 g/m*3 5.3 C 0 km/h
3094 14-03-2010 08:57:01 5.4 C 3.77 g/m*3 5.4 C 0 km/h
3095 14-03-2010 09:09:02 5.6 C 3.82 g/m*3 5.6 C 0 km/h
3096 14-03-2010 09:21:01 5.7 C 3.77 g/m*3 5.7 C 0 km/h
3097 14-03-2010 09:33:02 6 C 3.7 g/m*3 6 C 0 km/h
3098 14-03-2010 09:45:02 5.9 C 3.75 g/m*3 5.9 C 0 km/h
3099 14-03-2010 09:57:02 6 C 3.77 g/m*3 6 C 0 km/h
3100 14-03-2010 10:09:02 6.3 C 3.78 g/m*3 6.3 C 0 km/h
Sensor: Nr:Datum:Temp:Abs-Feuchte:Windchill:Wind:
Aussen-T/F 3101 14-03-2010 10:21:02 6.5 C 3.75 g/m*3 6.5 C 0 km/h
3102 14-03-2010 10:33:02 6.8 C 3.82 g/m*3 6.8 C 0 km/h
3103 14-03-2010 10:45:02 7 C 3.64 g/m*3 7 C 0 km/h
3104 14-03-2010 10:57:02 6.9 C 3.7 g/m*3 6.9 C 0 km/h
3105 14-03-2010 11:09:02 7.2 C 3.69 g/m*3 7.2 C 0 km/h
3106 14-03-2010 11:21:02 7.5 C 3.76 g/m*3 7.5 C 0 km/h
3107 14-03-2010 11:33:02 7.4 C 3.66 g/m*3 7.4 C 0 km/h
3108 14-03-2010 11:45:01 7.5 C 3.76 g/m*3 7.5 C 0 km/h
3109 14-03-2010 11:57:01 7.6 C 3.63 g/m*3 7.6 C 0 km/h
3110 14-03-2010 12:09:02 7.8 C 3.51 g/m*3 7.8 C 0 km/h
3111 14-03-2010 12:21:01 7.8 C 3.43 g/m*3 7.8 C 0 km/h
3112 14-03-2010 12:33:01 7.7 C 3.49 g/m*3 7.7 C 0 km/h
3113 14-03-2010 12:45:01 7.6 C 3.54 g/m*3 7.6 C 0 km/h
3114 14-03-2010 12:57:01 7.6 C 3.63 g/m*3 7.6 C 0 km/h
3115 14-03-2010 13:09:02 7.6 C 3.63 g/m*3 7.6 C 0 km/h
3116 14-03-2010 13:21:01 7.7 C 3.73 g/m*3 7.7 C 0 km/h
3117 14-03-2010 13:33:02 7.7 C 3.73 g/m*3 7.7 C 0 km/h
3118 14-03-2010 13:45:02 7.5 C 3.76 g/m*3 7.5 C 0 km/h
3119 14-03-2010 13:57:02 7.5 C 3.76 g/m*3 7.5 C 0 km/h
3120 14-03-2010 14:09:02 7.4 C 3.74 g/m*3 7.4 C 0 km/h
3121 14-03-2010 14:21:01 7.3 C 3.79 g/m*3 7.3 C 0 km/h
3122 14-03-2010 14:33:02 7.4 C 3.82 g/m*3 7.4 C 0 km/h
3123 14-03-2010 14:45:02 7.5 C 3.84 g/m*3 7.5 C 0 km/h
3124 14-03-2010 14:57:02 7.5 C 3.84 g/m*3 7.5 C 0 km/h
3125 14-03-2010 15:09:02 7.7 C 3.89 g/m*3 7.7 C 0 km/h
Sensor: Nr:Datum:Temp:Abs-Feuchte:Windchill:Wind:
Aussen-T/F 3126 14-03-2010 15:21:02 7.7 C 3.89 g/m*3 7.7 C 0 km/h
3127 14-03-2010 15:33:02 7.8 C 3.84 g/m*3 7.8 C 0 km/h
3128 14-03-2010 15:45:02 7.8 C 3.92 g/m*3 7.8 C 0 km/h
3129 14-03-2010 15:57:02 7.7 C 3.97 g/m*3 7.7 C 0 km/h
3130 14-03-2010 16:09:02 7.6 C 3.95 g/m*3 7.6 C 0 km/h
3131 14-03-2010 16:21:02 7.3 C 4.03 g/m*3 7.3 C 0 km/h
3132 14-03-2010 16:33:02 7.2 C 4.08 g/m*3 7.2 C 0 km/h
3133 14-03-2010 16:45:02 6.9 C 4.31 g/m*3 6.9 C 0 km/h
3134 14-03-2010 16:57:02 6.5 C 4.27 g/m*3 6.5 C 0 km/h
3135 14-03-2010 17:09:02 6.4 C 4.47 g/m*3 6.4 C 0 km/h
3136 14-03-2010 17:21:02 6.7 C 4.18 g/m*3 6.7 C 0 km/h
3137 14-03-2010 17:33:02 6.8 C 4.21 g/m*3 6.8 C 0 km/h
3138 14-03-2010 17:45:02 6.6 C 4.23 g/m*3 6.6 C 0 km/h
3139 14-03-2010 17:57:02 6.4 C 4.32 g/m*3 6.4 C 0 km/h
3140 14-03-2010 18:09:02 6.4 C 4.4 g/m*3 6.4 C 0 km/h
3141 14-03-2010 18:21:02 6.2 C 4.49 g/m*3 6.2 C 0 km/h
3142 14-03-2010 18:33:02 5.9 C 4.61 g/m*3 5.9 C 0 km/h
3143 14-03-2010 18:45:02 5.7 C 4.84 g/m*3 5.7 C 0 km/h
3144 14-03-2010 18:57:02 5.4 C 4.95 g/m*3 5.4 C 0 km/h
3145 14-03-2010 19:09:01 5.4 C 4.95 g/m*3 5.4 C 0 km/h
3146 14-03-2010 19:21:02 5.4 C 4.95 g/m*3 5.4 C 0 km/h
3147 14-03-2010 19:33:01 5.6 C 5.02 g/m*3 5.6 C 0 km/h
3148 14-03-2010 19:45:02 5.7 C 4.98 g/m*3 5.7 C 0 km/h
3149 14-03-2010 19:57:02 5.8 C 4.94 g/m*3 5.8 C 0 km/h
3150 14-03-2010 20:09:01 5.7 C 4.91 g/m*3 5.7 C 0 km/h
Sensor: Nr:Datum:Temp:Abs-Feuchte:Windchill:Wind:
Aussen-T/F 3151 14-03-2010 20:21:02 5.7 C 4.84 g/m*3 5.7 C 0 km/h
3152 14-03-2010 20:33:01 5.7 C 4.77 g/m*3 5.7 C 0 km/h
3153 14-03-2010 20:45:02 5.8 C 4.73 g/m*3 5.8 C 0 km/h
3154 14-03-2010 20:57:02 5.7 C 4.63 g/m*3 5.7 C 0 km/h
3155 14-03-2010 21:09:02 5.7 C 4.55 g/m*3 5.7 C 0 km/h
3156 14-03-2010 21:21:02 5.7 C 4.55 g/m*3 5.7 C 0 km/h
3157 14-03-2010 21:33:02 5.9 C 4.4 g/m*3 5.9 C 0 km/h
3158 14-03-2010 21:46:05 5.8 C 4.37 g/m*3 5.8 C 0 km/h
3159 14-03-2010 21:58:06 5.8 C 4.3 g/m*3 5.8 C 0 km/h
3160 14-03-2010 22:10:06 5.8 C 4.3 g/m*3 5.8 C 0 km/h
3161 14-03-2010 22:22:06 5.9 C 4.33 g/m*3 5.9 C 0 km/h
3162 14-03-2010 22:34:06 5.8 C 4.3 g/m*3 5.8 C 0 km/h
3163 14-03-2010 22:46:06 5.9 C 4.33 g/m*3 5.9 C 0 km/h
3164 14-03-2010 22:58:06 5.9 C 4.33 g/m*3 5.9 C 0 km/h
3165 14-03-2010 23:10:06 6.1 C 4.31 g/m*3 6.1 C 0 km/h
3166 14-03-2010 23:22:06 6 C 4.5 g/m*3 6 C 0 km/h
3167 14-03-2010 23:34:06 5.8 C 4.58 g/m*3 5.8 C 0 km/h
3168 14-03-2010 23:46:06 6.1 C 4.75 g/m*3 6.1 C 0 km/h
3169 14-03-2010 23:58:06 5.7 C 4.77 g/m*3 5.7 C 0 km/h
3170 15-03-2010 00:10:06 5.8 C 4.73 g/m*3 5.8 C 0 km/h
3171 15-03-2010 00:22:06 5.8 C 4.73 g/m*3 5.8 C 0 km/h
3172 15-03-2010 00:34:06 5.9 C 4.76 g/m*3 5.9 C 0 km/h
3173 15-03-2010 00:46:06 5.8 C 4.8 g/m*3 5.8 C 0 km/h
3174 15-03-2010 00:58:06 5.8 C 4.73 g/m*3 5.8 C 0 km/h
3175 15-03-2010 01:10:06 5.8 C 4.73 g/m*3 5.8 C 0 km/h
Sensor: Nr:Datum:Temp:Abs-Feuchte:Windchill:Wind:
Aussen-T/F 3176 15-03-2010 01:22:06 5.8 C 4.73 g/m*3 5.8 C 0 km/h
3177 15-03-2010 01:34:06 5.7 C 4.63 g/m*3 5.7 C 0 km/h
3178 15-03-2010 01:46:06 5.7 C 4.7 g/m*3 5.7 C 0 km/h
3179 15-03-2010 01:58:07 5.7 C 4.77 g/m*3 5.7 C 0 km/h
3180 15-03-2010 02:10:07 5.4 C 4.81 g/m*3 5.4 C 0 km/h
3181 15-03-2010 02:22:07 5.2 C 4.82 g/m*3 5.2 C 0 km/h
3182 15-03-2010 02:34:07 4.9 C 4.93 g/m*3 4.9 C 0 km/h
3183 15-03-2010 02:46:07 4.8 C 5.03 g/m*3 4.8 C 0 km/h
3184 15-03-2010 02:58:07 4.7 C 5 g/m*3 4.7 C 0 km/h
3185 15-03-2010 03:10:07 5 C 4.76 g/m*3 5 C 0 km/h
3186 15-03-2010 03:22:07 5 C 4.69 g/m*3 5 C 0 km/h
3187 15-03-2010 03:34:07 4.9 C 4.79 g/m*3 4.9 C 0 km/h
3188 15-03-2010 03:46:07 4.8 C 4.69 g/m*3 4.8 C 0 km/h
3189 15-03-2010 03:58:07 4.7 C 4.73 g/m*3 4.7 C 0 km/h
3190 15-03-2010 04:10:07 4.6 C 4.63 g/m*3 4.6 C 0 km/h
3191 15-03-2010 04:22:07 4.6 C 4.63 g/m*3 4.6 C 0 km/h
3192 15-03-2010 04:34:07 4.6 C 4.63 g/m*3 4.6 C 0 km/h
3193 15-03-2010 04:46:07 4.6 C 4.57 g/m*3 4.6 C 0 km/h
3194 15-03-2010 04:58:07 4.7 C 4.6 g/m*3 4.7 C 0 km/h
3195 15-03-2010 05:10:07 4.6 C 4.5 g/m*3 4.6 C 0 km/h
3196 15-03-2010 05:22:07 4.6 C 4.57 g/m*3 4.6 C 0 km/h
3197 15-03-2010 05:34:07 4.6 C 4.43 g/m*3 4.6 C 0 km/h
3198 15-03-2010 05:46:07 4.7 C 4.33 g/m*3 4.7 C 0 km/h
3199 15-03-2010 05:58:07 4.7 C 4.33 g/m*3 4.7 C 0 km/h
3200 15-03-2010 06:10:08 4.7 C 4.26 g/m*3 4.7 C 0 km/h
Sensor: Nr:Datum:Temp:Abs-Feuchte:Windchill:Wind:
Aussen-T/F 3201 15-03-2010 06:22:03 4.7 C 4.2 g/m*3 4.7 C 0 km/h
3202 15-03-2010 06:34:04 4.6 C 4.17 g/m*3 4.6 C 0 km/h
3203 15-03-2010 06:46:02 4.6 C 4.23 g/m*3 4.6 C 0 km/h
3204 15-03-2010 06:58:02 4.7 C 4.2 g/m*3 4.7 C 0 km/h
3205 15-03-2010 07:10:02 4.4 C 4.37 g/m*3 4.4 C 0 km/h
3206 15-03-2010 07:22:02 4 C 4.64 g/m*3 4 C 0 km/h
3207 15-03-2010 07:34:02 3.7 C 4.86 g/m*3 3.7 C 0 km/h
3208 15-03-2010 07:46:02 3.6 C 4.95 g/m*3 3.6 C 0 km/h
3209 15-03-2010 07:58:02 3.7 C 5.11 g/m*3 3.7 C 0 km/h
3210 15-03-2010 08:10:02 3.8 C 5.21 g/m*3 3.8 C 0 km/h
3211 15-03-2010 08:22:02 3.7 C 5.23 g/m*3 3.7 C 0 km/h
3212 15-03-2010 08:34:02 3.8 C 5.33 g/m*3 3.8 C 0 km/h
3213 15-03-2010 08:46:02 4 C 5.4 g/m*3 4 C 0 km/h
3214 15-03-2010 08:58:02 4.2 C 5.54 g/m*3 4.2 C 0 km/h
3215 15-03-2010 09:10:02 4.3 C 5.51 g/m*3 4.3 C 0 km/h
3216 15-03-2010 09:22:02 4.3 C 5.51 g/m*3 4.3 C 0 km/h
3217 15-03-2010 09:34:02 4.4 C 5.55 g/m*3 4.4 C 0 km/h
3218 15-03-2010 09:46:02 4.6 C 5.62 g/m*3 4.6 C 0 km/h
3219 15-03-2010 09:58:02 4.5 C 5.52 g/m*3 4.5 C 0 km/h
3220 15-03-2010 10:10:02 4.5 C 5.52 g/m*3 4.5 C 0 km/h
3221 15-03-2010 10:22:02 4.6 C 5.56 g/m*3 4.6 C 0 km/h
3222 15-03-2010 10:34:02 5.1 C 5.61 g/m*3 5.1 C 0 km/h
3223 15-03-2010 10:46:02 5.5 C 5.48 g/m*3 5.5 C 0 km/h
3224 15-03-2010 10:58:02 6 C 5.44 g/m*3 6 C 0 km/h
3225 15-03-2010 11:10:02 5.9 C 5.26 g/m*3 5.9 C 0 km/h
Sensor: Nr:Datum:Temp:Abs-Feuchte:Windchill:Wind:
Aussen-T/F 3226 15-03-2010 11:22:02 6 C 5.08 g/m*3 6 C 0 km/h
3227 15-03-2010 11:34:01 5.9 C 5.05 g/m*3 5.9 C 0 km/h
3228 15-03-2010 11:46:02 5.9 C 4.98 g/m*3 5.9 C 0 km/h
3229 15-03-2010 11:58:02 6 C 4.94 g/m*3 6 C 0 km/h
3230 15-03-2010 12:10:01 6 C 4.79 g/m*3 6 C 0 km/h
3231 15-03-2010 12:22:02 6.6 C 4.98 g/m*3 6.6 C 0 km/h
3232 15-03-2010 12:34:01 7.4 C 4.85 g/m*3 7.4 C 0 km/h
3233 15-03-2010 12:46:02 7.8 C 4.98 g/m*3 7.8 C 0 km/h
3234 15-03-2010 12:58:02 8.5 C 4.87 g/m*3 8.5 C 0 km/h
3235 15-03-2010 13:10:02 9.3 C 4.67 g/m*3 9.3 C 0 km/h
3236 15-03-2010 13:22:02 9 C 4.58 g/m*3 9 C 0 km/h
3237 15-03-2010 13:34:02 9.4 C 4.61 g/m*3 9.4 C 0 km/h
3238 15-03-2010 13:46:02 9.9 C 4.58 g/m*3 9.9 C 0 km/h
3239 15-03-2010 13:58:03 9.7 C 4.33 g/m*3 9.7 C 0 km/h
3240 15-03-2010 14:10:01 10.1 C 4.35 g/m*3 10.1 C 0 km/h
3241 15-03-2010 14:22:01 10 C 4.04 g/m*3 10 C 0 km/h
3242 15-03-2010 14:34:02 10.4 C 3.95 g/m*3 10.4 C 0 km/h
3243 15-03-2010 14:46:02 10.5 C 4.07 g/m*3 10.5 C 0 km/h
3244 15-03-2010 14:58:02 10.3 C 4.02 g/m*3 10.3 C 0 km/h
3245 15-03-2010 15:10:01 10.4 C 4.05 g/m*3